<?xml version="1.0" encoding="UTF-8" standalone="no" ?>
<gpx xmlns="http://www.topografix.com/GPX/1/1" xmlns:xsi="http://www.w3.org/2001/XMLSchema-instance" xsi:schemaLocation="http://www.topografix.com/GPX/1/1 http://www.topografix.com/GPX/1/1/gpx.xsd" version="1.1" creator="VisuGPX - https://www.visugpx.com">
  <metadata>
    <name>25/09/2022</name>
    <desc><![CDATA[boucle au départ de payolle puis col d'aspin, col hourquette d'ancizan et retour]]></desc>
  </metadata>
  <trk>
    <name><![CDATA[25/09/2022_1]]></name>
    <trkseg>
      <trkpt lat="42.94225" lon="0.28488">
        <ele>1114.4</ele>
        <time>2022-09-25T06:48:04Z</time>
      </trkpt>
      <trkpt lat="42.94226" lon="0.28488">
        <ele>1095.4</ele>
        <time>2022-09-25T06:48:12Z</time>
      </trkpt>
      <trkpt lat="42.94228" lon="0.28482">
        <ele>1095.4</ele>
        <time>2022-09-25T06:48:15Z</time>
      </trkpt>
      <trkpt lat="42.94226" lon="0.28479">
        <ele>1095.8</ele>
        <time>2022-09-25T06:48:17Z</time>
      </trkpt>
      <trkpt lat="42.94224" lon="0.28481">
        <ele>1095.8</ele>
        <time>2022-09-25T06:48:19Z</time>
      </trkpt>
      <trkpt lat="42.94216" lon="0.28488">
        <ele>1096.2</ele>
        <time>2022-09-25T06:48:24Z</time>
      </trkpt>
      <trkpt lat="42.94214" lon="0.28493">
        <ele>1096.6</ele>
        <time>2022-09-25T06:48:26Z</time>
      </trkpt>
      <trkpt lat="42.94206" lon="0.28501">
        <ele>1097.4</ele>
        <time>2022-09-25T06:48:30Z</time>
      </trkpt>
      <trkpt lat="42.94201" lon="0.28508">
        <ele>1098</ele>
        <time>2022-09-25T06:48:33Z</time>
      </trkpt>
      <trkpt lat="42.94197" lon="0.28512">
        <ele>1098.4</ele>
        <time>2022-09-25T06:48:35Z</time>
      </trkpt>
      <trkpt lat="42.94186" lon="0.28524">
        <ele>1099.2</ele>
        <time>2022-09-25T06:48:40Z</time>
      </trkpt>
      <trkpt lat="42.94183" lon="0.28527">
        <ele>1099.8</ele>
        <time>2022-09-25T06:48:41Z</time>
      </trkpt>
      <trkpt lat="42.94164" lon="0.28549">
        <ele>1100.6</ele>
        <time>2022-09-25T06:48:49Z</time>
      </trkpt>
      <trkpt lat="42.94162" lon="0.28552">
        <ele>1100.8</ele>
        <time>2022-09-25T06:48:50Z</time>
      </trkpt>
      <trkpt lat="42.94157" lon="0.28558">
        <ele>1101</ele>
        <time>2022-09-25T06:48:52Z</time>
      </trkpt>
      <trkpt lat="42.94141" lon="0.28574">
        <ele>1101.4</ele>
        <time>2022-09-25T06:48:58Z</time>
      </trkpt>
      <trkpt lat="42.94133" lon="0.28582">
        <ele>1101.8</ele>
        <time>2022-09-25T06:49:01Z</time>
      </trkpt>
      <trkpt lat="42.94119" lon="0.28599">
        <ele>1102.2</ele>
        <time>2022-09-25T06:49:06Z</time>
      </trkpt>
      <trkpt lat="42.94109" lon="0.28613">
        <ele>1102.6</ele>
        <time>2022-09-25T06:49:11Z</time>
      </trkpt>
      <trkpt lat="42.94101" lon="0.28624">
        <ele>1102.8</ele>
        <time>2022-09-25T06:49:13Z</time>
      </trkpt>
      <trkpt lat="42.94096" lon="0.28632">
        <ele>1102.8</ele>
        <time>2022-09-25T06:49:15Z</time>
      </trkpt>
      <trkpt lat="42.94087" lon="0.28647">
        <ele>1103.4</ele>
        <time>2022-09-25T06:49:20Z</time>
      </trkpt>
      <trkpt lat="42.94077" lon="0.28666">
        <ele>1104</ele>
        <time>2022-09-25T06:49:24Z</time>
      </trkpt>
      <trkpt lat="42.94069" lon="0.28689">
        <ele>1104.4</ele>
        <time>2022-09-25T06:49:29Z</time>
      </trkpt>
      <trkpt lat="42.94068" lon="0.28694">
        <ele>1104.6</ele>
        <time>2022-09-25T06:49:30Z</time>
      </trkpt>
      <trkpt lat="42.94065" lon="0.28708">
        <ele>1105</ele>
        <time>2022-09-25T06:49:33Z</time>
      </trkpt>
      <trkpt lat="42.9406" lon="0.28734">
        <ele>1105.6</ele>
        <time>2022-09-25T06:49:39Z</time>
      </trkpt>
      <trkpt lat="42.94059" lon="0.28738">
        <ele>1105.6</ele>
        <time>2022-09-25T06:49:40Z</time>
      </trkpt>
      <trkpt lat="42.94058" lon="0.28746">
        <ele>1106</ele>
        <time>2022-09-25T06:49:42Z</time>
      </trkpt>
      <trkpt lat="42.94053" lon="0.28765">
        <ele>1106.6</ele>
        <time>2022-09-25T06:49:47Z</time>
      </trkpt>
      <trkpt lat="42.94051" lon="0.28773">
        <ele>1107</ele>
        <time>2022-09-25T06:49:49Z</time>
      </trkpt>
      <trkpt lat="42.94043" lon="0.28803">
        <ele>1108</ele>
        <time>2022-09-25T06:49:57Z</time>
      </trkpt>
      <trkpt lat="42.94042" lon="0.28806">
        <ele>1108</ele>
        <time>2022-09-25T06:49:58Z</time>
      </trkpt>
      <trkpt lat="42.94037" lon="0.28819">
        <ele>1109</ele>
        <time>2022-09-25T06:50:03Z</time>
      </trkpt>
      <trkpt lat="42.94033" lon="0.2883">
        <ele>1109.6</ele>
        <time>2022-09-25T06:50:05Z</time>
      </trkpt>
      <trkpt lat="42.94028" lon="0.28844">
        <ele>1110.2</ele>
        <time>2022-09-25T06:50:09Z</time>
      </trkpt>
      <trkpt lat="42.94021" lon="0.28869">
        <ele>1111.2</ele>
        <time>2022-09-25T06:50:16Z</time>
      </trkpt>
      <trkpt lat="42.94019" lon="0.28877">
        <ele>1111.4</ele>
        <time>2022-09-25T06:50:19Z</time>
      </trkpt>
      <trkpt lat="42.94015" lon="0.28901">
        <ele>1112.2</ele>
        <time>2022-09-25T06:50:24Z</time>
      </trkpt>
      <trkpt lat="42.94014" lon="0.28905">
        <ele>1112.4</ele>
        <time>2022-09-25T06:50:25Z</time>
      </trkpt>
      <trkpt lat="42.9401" lon="0.28925">
        <ele>1113</ele>
        <time>2022-09-25T06:50:30Z</time>
      </trkpt>
      <trkpt lat="42.94009" lon="0.28936">
        <ele>1113.4</ele>
        <time>2022-09-25T06:50:33Z</time>
      </trkpt>
      <trkpt lat="42.94006" lon="0.28952">
        <ele>1113.8</ele>
        <time>2022-09-25T06:50:37Z</time>
      </trkpt>
      <trkpt lat="42.94004" lon="0.28985">
        <ele>1114.2</ele>
        <time>2022-09-25T06:50:45Z</time>
      </trkpt>
      <trkpt lat="42.94004" lon="0.28989">
        <ele>1114.4</ele>
        <time>2022-09-25T06:50:46Z</time>
      </trkpt>
      <trkpt lat="42.94004" lon="0.28994">
        <ele>1114.4</ele>
        <time>2022-09-25T06:50:47Z</time>
      </trkpt>
      <trkpt lat="42.94002" lon="0.29031">
        <ele>1115.2</ele>
        <time>2022-09-25T06:50:56Z</time>
      </trkpt>
      <trkpt lat="42.94001" lon="0.2904">
        <ele>1115.4</ele>
        <time>2022-09-25T06:50:58Z</time>
      </trkpt>
      <trkpt lat="42.93995" lon="0.29063">
        <ele>1116</ele>
        <time>2022-09-25T06:51:04Z</time>
      </trkpt>
      <trkpt lat="42.93992" lon="0.29074">
        <ele>1116.2</ele>
        <time>2022-09-25T06:51:07Z</time>
      </trkpt>
      <trkpt lat="42.9399" lon="0.29078">
        <ele>1116.2</ele>
        <time>2022-09-25T06:51:08Z</time>
      </trkpt>
      <trkpt lat="42.93981" lon="0.29095">
        <ele>1116.8</ele>
        <time>2022-09-25T06:51:13Z</time>
      </trkpt>
      <trkpt lat="42.93968" lon="0.29112">
        <ele>1117.2</ele>
        <time>2022-09-25T06:51:19Z</time>
      </trkpt>
      <trkpt lat="42.93966" lon="0.29115">
        <ele>1117.4</ele>
        <time>2022-09-25T06:51:20Z</time>
      </trkpt>
      <trkpt lat="42.93959" lon="0.29121">
        <ele>1117.8</ele>
        <time>2022-09-25T06:51:23Z</time>
      </trkpt>
      <trkpt lat="42.93949" lon="0.29126">
        <ele>1118.2</ele>
        <time>2022-09-25T06:51:27Z</time>
      </trkpt>
      <trkpt lat="42.93938" lon="0.29127">
        <ele>1118.2</ele>
        <time>2022-09-25T06:51:29Z</time>
      </trkpt>
      <trkpt lat="42.93915" lon="0.29129">
        <ele>1118.2</ele>
        <time>2022-09-25T06:51:34Z</time>
      </trkpt>
      <trkpt lat="42.93906" lon="0.29129">
        <ele>1118</ele>
        <time>2022-09-25T06:51:36Z</time>
      </trkpt>
      <trkpt lat="42.93875" lon="0.29128">
        <ele>1117.2</ele>
        <time>2022-09-25T06:51:42Z</time>
      </trkpt>
      <trkpt lat="42.93865" lon="0.29125">
        <ele>1116.8</ele>
        <time>2022-09-25T06:51:44Z</time>
      </trkpt>
      <trkpt lat="42.93865" lon="0.29125">
        <ele>1116.6</ele>
        <time>2022-09-25T06:51:45Z</time>
      </trkpt>
      <trkpt lat="42.93844" lon="0.2912">
        <ele>1116</ele>
        <time>2022-09-25T06:51:48Z</time>
      </trkpt>
      <trkpt lat="42.93839" lon="0.2912">
        <ele>1116</ele>
        <time>2022-09-25T06:51:49Z</time>
      </trkpt>
      <trkpt lat="42.93835" lon="0.29121">
        <ele>1115.8</ele>
        <time>2022-09-25T06:51:50Z</time>
      </trkpt>
      <trkpt lat="42.93832" lon="0.29123">
        <ele>1115.8</ele>
        <time>2022-09-25T06:51:51Z</time>
      </trkpt>
      <trkpt lat="42.93826" lon="0.29129">
        <ele>1115.8</ele>
        <time>2022-09-25T06:51:53Z</time>
      </trkpt>
      <trkpt lat="42.93814" lon="0.29151">
        <ele>1116.2</ele>
        <time>2022-09-25T06:52:00Z</time>
      </trkpt>
      <trkpt lat="42.93805" lon="0.29161">
        <ele>1116.8</ele>
        <time>2022-09-25T06:52:04Z</time>
      </trkpt>
      <trkpt lat="42.93799" lon="0.29168">
        <ele>1117.4</ele>
        <time>2022-09-25T06:52:07Z</time>
      </trkpt>
      <trkpt lat="42.93795" lon="0.29172">
        <ele>1117.8</ele>
        <time>2022-09-25T06:52:09Z</time>
      </trkpt>
      <trkpt lat="42.93782" lon="0.29182">
        <ele>1119</ele>
        <time>2022-09-25T06:52:15Z</time>
      </trkpt>
      <trkpt lat="42.9378" lon="0.29184">
        <ele>1119.2</ele>
        <time>2022-09-25T06:52:16Z</time>
      </trkpt>
      <trkpt lat="42.93768" lon="0.29196">
        <ele>1120.2</ele>
        <time>2022-09-25T06:52:22Z</time>
      </trkpt>
      <trkpt lat="42.9376" lon="0.29205">
        <ele>1121</ele>
        <time>2022-09-25T06:52:26Z</time>
      </trkpt>
      <trkpt lat="42.93754" lon="0.29212">
        <ele>1121.4</ele>
        <time>2022-09-25T06:52:29Z</time>
      </trkpt>
      <trkpt lat="42.93741" lon="0.29226">
        <ele>1122.4</ele>
        <time>2022-09-25T06:52:35Z</time>
      </trkpt>
      <trkpt lat="42.93725" lon="0.2924">
        <ele>1123.2</ele>
        <time>2022-09-25T06:52:42Z</time>
      </trkpt>
      <trkpt lat="42.93722" lon="0.29241">
        <ele>1123.4</ele>
        <time>2022-09-25T06:52:44Z</time>
      </trkpt>
      <trkpt lat="42.93717" lon="0.29244">
        <ele>1123.6</ele>
        <time>2022-09-25T06:52:45Z</time>
      </trkpt>
      <trkpt lat="42.93702" lon="0.29249">
        <ele>1124.2</ele>
        <time>2022-09-25T06:52:51Z</time>
      </trkpt>
      <trkpt lat="42.93699" lon="0.29249">
        <ele>1124.4</ele>
        <time>2022-09-25T06:52:52Z</time>
      </trkpt>
      <trkpt lat="42.93681" lon="0.29247">
        <ele>1125</ele>
        <time>2022-09-25T06:52:58Z</time>
      </trkpt>
      <trkpt lat="42.93669" lon="0.29239">
        <ele>1125.4</ele>
        <time>2022-09-25T06:53:02Z</time>
      </trkpt>
      <trkpt lat="42.93663" lon="0.29235">
        <ele>1125.6</ele>
        <time>2022-09-25T06:53:04Z</time>
      </trkpt>
      <trkpt lat="42.93656" lon="0.29228">
        <ele>1126</ele>
        <time>2022-09-25T06:53:07Z</time>
      </trkpt>
      <trkpt lat="42.93638" lon="0.29213">
        <ele>1126.2</ele>
        <time>2022-09-25T06:53:14Z</time>
      </trkpt>
      <trkpt lat="42.93625" lon="0.29201">
        <ele>1126.6</ele>
        <time>2022-09-25T06:53:20Z</time>
      </trkpt>
      <trkpt lat="42.93618" lon="0.29194">
        <ele>1127.2</ele>
        <time>2022-09-25T06:53:23Z</time>
      </trkpt>
      <trkpt lat="42.93608" lon="0.29185">
        <ele>1127.6</ele>
        <time>2022-09-25T06:53:27Z</time>
      </trkpt>
      <trkpt lat="42.93602" lon="0.2918">
        <ele>1127.8</ele>
        <time>2022-09-25T06:53:29Z</time>
      </trkpt>
      <trkpt lat="42.93585" lon="0.29165">
        <ele>1128.6</ele>
        <time>2022-09-25T06:53:35Z</time>
      </trkpt>
      <trkpt lat="42.93577" lon="0.29159">
        <ele>1129.2</ele>
        <time>2022-09-25T06:53:38Z</time>
      </trkpt>
      <trkpt lat="42.93566" lon="0.2915">
        <ele>1129.6</ele>
        <time>2022-09-25T06:53:42Z</time>
      </trkpt>
      <trkpt lat="42.9356" lon="0.29144">
        <ele>1129.8</ele>
        <time>2022-09-25T06:53:44Z</time>
      </trkpt>
      <trkpt lat="42.93553" lon="0.29136">
        <ele>1129.8</ele>
        <time>2022-09-25T06:53:47Z</time>
      </trkpt>
      <trkpt lat="42.93534" lon="0.29123">
        <ele>1130.2</ele>
        <time>2022-09-25T06:53:54Z</time>
      </trkpt>
      <trkpt lat="42.93516" lon="0.29112">
        <ele>1130.6</ele>
        <time>2022-09-25T06:54:00Z</time>
      </trkpt>
      <trkpt lat="42.93513" lon="0.29112">
        <ele>1130.8</ele>
        <time>2022-09-25T06:54:01Z</time>
      </trkpt>
      <trkpt lat="42.93507" lon="0.29114">
        <ele>1131</ele>
        <time>2022-09-25T06:54:03Z</time>
      </trkpt>
      <trkpt lat="42.935" lon="0.29118">
        <ele>1131.2</ele>
        <time>2022-09-25T06:54:05Z</time>
      </trkpt>
      <trkpt lat="42.93479" lon="0.29129">
        <ele>1132</ele>
        <time>2022-09-25T06:54:12Z</time>
      </trkpt>
      <trkpt lat="42.93471" lon="0.29133">
        <ele>1132.2</ele>
        <time>2022-09-25T06:54:15Z</time>
      </trkpt>
      <trkpt lat="42.93453" lon="0.29142">
        <ele>1133</ele>
        <time>2022-09-25T06:54:21Z</time>
      </trkpt>
      <trkpt lat="42.93444" lon="0.29148">
        <ele>1133.4</ele>
        <time>2022-09-25T06:54:24Z</time>
      </trkpt>
      <trkpt lat="42.93442" lon="0.29149">
        <ele>1133.6</ele>
        <time>2022-09-25T06:54:25Z</time>
      </trkpt>
      <trkpt lat="42.93432" lon="0.29155">
        <ele>1134</ele>
        <time>2022-09-25T06:54:28Z</time>
      </trkpt>
      <trkpt lat="42.93413" lon="0.29169">
        <ele>1135</ele>
        <time>2022-09-25T06:54:35Z</time>
      </trkpt>
      <trkpt lat="42.9341" lon="0.29171">
        <ele>1135.2</ele>
        <time>2022-09-25T06:54:36Z</time>
      </trkpt>
      <trkpt lat="42.93388" lon="0.29187">
        <ele>1136.2</ele>
        <time>2022-09-25T06:54:44Z</time>
      </trkpt>
      <trkpt lat="42.93383" lon="0.2919">
        <ele>1136.6</ele>
        <time>2022-09-25T06:54:46Z</time>
      </trkpt>
      <trkpt lat="42.93377" lon="0.29195">
        <ele>1137</ele>
        <time>2022-09-25T06:54:48Z</time>
      </trkpt>
      <trkpt lat="42.93372" lon="0.29199">
        <ele>1137.2</ele>
        <time>2022-09-25T06:54:50Z</time>
      </trkpt>
      <trkpt lat="42.93358" lon="0.2921">
        <ele>1137.8</ele>
        <time>2022-09-25T06:54:55Z</time>
      </trkpt>
      <trkpt lat="42.9335" lon="0.29216">
        <ele>1138.4</ele>
        <time>2022-09-25T06:54:58Z</time>
      </trkpt>
      <trkpt lat="42.93339" lon="0.29229">
        <ele>1139</ele>
        <time>2022-09-25T06:55:03Z</time>
      </trkpt>
      <trkpt lat="42.93331" lon="0.29241">
        <ele>1139.6</ele>
        <time>2022-09-25T06:55:07Z</time>
      </trkpt>
      <trkpt lat="42.93322" lon="0.29257">
        <ele>1140.4</ele>
        <time>2022-09-25T06:55:12Z</time>
      </trkpt>
      <trkpt lat="42.93318" lon="0.29263">
        <ele>1140.8</ele>
        <time>2022-09-25T06:55:14Z</time>
      </trkpt>
      <trkpt lat="42.93311" lon="0.29274">
        <ele>1141.2</ele>
        <time>2022-09-25T06:55:18Z</time>
      </trkpt>
      <trkpt lat="42.93309" lon="0.29277">
        <ele>1141.4</ele>
        <time>2022-09-25T06:55:19Z</time>
      </trkpt>
      <trkpt lat="42.93305" lon="0.29282">
        <ele>1142</ele>
        <time>2022-09-25T06:55:21Z</time>
      </trkpt>
      <trkpt lat="42.93292" lon="0.29297">
        <ele>1143</ele>
        <time>2022-09-25T06:55:27Z</time>
      </trkpt>
      <trkpt lat="42.9329" lon="0.29299">
        <ele>1143.2</ele>
        <time>2022-09-25T06:55:28Z</time>
      </trkpt>
      <trkpt lat="42.93279" lon="0.29308">
        <ele>1144</ele>
        <time>2022-09-25T06:55:32Z</time>
      </trkpt>
      <trkpt lat="42.93265" lon="0.29318">
        <ele>1144.8</ele>
        <time>2022-09-25T06:55:37Z</time>
      </trkpt>
      <trkpt lat="42.93254" lon="0.29326">
        <ele>1145.2</ele>
        <time>2022-09-25T06:55:41Z</time>
      </trkpt>
      <trkpt lat="42.93245" lon="0.29332">
        <ele>1145.8</ele>
        <time>2022-09-25T06:55:44Z</time>
      </trkpt>
      <trkpt lat="42.93242" lon="0.29334">
        <ele>1145.8</ele>
        <time>2022-09-25T06:55:45Z</time>
      </trkpt>
      <trkpt lat="42.93233" lon="0.29339">
        <ele>1146</ele>
        <time>2022-09-25T06:55:48Z</time>
      </trkpt>
      <trkpt lat="42.93222" lon="0.29346">
        <ele>1146.4</ele>
        <time>2022-09-25T06:55:52Z</time>
      </trkpt>
      <trkpt lat="42.93205" lon="0.2936">
        <ele>1147.2</ele>
        <time>2022-09-25T06:55:59Z</time>
      </trkpt>
      <trkpt lat="42.93196" lon="0.29365">
        <ele>1148</ele>
        <time>2022-09-25T06:56:03Z</time>
      </trkpt>
      <trkpt lat="42.93191" lon="0.29367">
        <ele>1148.4</ele>
        <time>2022-09-25T06:56:05Z</time>
      </trkpt>
      <trkpt lat="42.9318" lon="0.29371">
        <ele>1149.6</ele>
        <time>2022-09-25T06:56:10Z</time>
      </trkpt>
      <trkpt lat="42.93177" lon="0.29372">
        <ele>1150</ele>
        <time>2022-09-25T06:56:11Z</time>
      </trkpt>
      <trkpt lat="42.93171" lon="0.29373">
        <ele>1150.6</ele>
        <time>2022-09-25T06:56:14Z</time>
      </trkpt>
      <trkpt lat="42.93157" lon="0.29375">
        <ele>1151.8</ele>
        <time>2022-09-25T06:56:20Z</time>
      </trkpt>
      <trkpt lat="42.93153" lon="0.29375">
        <ele>1152.4</ele>
        <time>2022-09-25T06:56:22Z</time>
      </trkpt>
      <trkpt lat="42.93148" lon="0.29376">
        <ele>1153</ele>
        <time>2022-09-25T06:56:24Z</time>
      </trkpt>
      <trkpt lat="42.9314" lon="0.29374">
        <ele>1153.8</ele>
        <time>2022-09-25T06:56:28Z</time>
      </trkpt>
      <trkpt lat="42.93134" lon="0.29375">
        <ele>1154.2</ele>
        <time>2022-09-25T06:56:30Z</time>
      </trkpt>
      <trkpt lat="42.93124" lon="0.29374">
        <ele>1155.2</ele>
        <time>2022-09-25T06:56:34Z</time>
      </trkpt>
      <trkpt lat="42.93115" lon="0.29371">
        <ele>1156</ele>
        <time>2022-09-25T06:56:38Z</time>
      </trkpt>
      <trkpt lat="42.93112" lon="0.29371">
        <ele>1156.2</ele>
        <time>2022-09-25T06:56:39Z</time>
      </trkpt>
      <trkpt lat="42.93101" lon="0.2937">
        <ele>1156.6</ele>
        <time>2022-09-25T06:56:42Z</time>
      </trkpt>
      <trkpt lat="42.93097" lon="0.29368">
        <ele>1157.2</ele>
        <time>2022-09-25T06:56:44Z</time>
      </trkpt>
      <trkpt lat="42.93094" lon="0.29369">
        <ele>1157.4</ele>
        <time>2022-09-25T06:56:45Z</time>
      </trkpt>
      <trkpt lat="42.9307" lon="0.2937">
        <ele>1158.6</ele>
        <time>2022-09-25T06:56:51Z</time>
      </trkpt>
      <trkpt lat="42.93061" lon="0.29369">
        <ele>1159.4</ele>
        <time>2022-09-25T06:56:56Z</time>
      </trkpt>
      <trkpt lat="42.93058" lon="0.29368">
        <ele>1159.4</ele>
        <time>2022-09-25T06:56:57Z</time>
      </trkpt>
      <trkpt lat="42.93044" lon="0.29371">
        <ele>1160.2</ele>
        <time>2022-09-25T06:57:02Z</time>
      </trkpt>
      <trkpt lat="42.93039" lon="0.29372">
        <ele>1160.6</ele>
        <time>2022-09-25T06:57:04Z</time>
      </trkpt>
      <trkpt lat="42.93037" lon="0.29372">
        <ele>1160.8</ele>
        <time>2022-09-25T06:57:05Z</time>
      </trkpt>
      <trkpt lat="42.93021" lon="0.29372">
        <ele>1161.8</ele>
        <time>2022-09-25T06:57:12Z</time>
      </trkpt>
      <trkpt lat="42.93016" lon="0.29372">
        <ele>1162.2</ele>
        <time>2022-09-25T06:57:14Z</time>
      </trkpt>
      <trkpt lat="42.93005" lon="0.29368">
        <ele>1162.8</ele>
        <time>2022-09-25T06:57:18Z</time>
      </trkpt>
      <trkpt lat="42.93" lon="0.29368">
        <ele>1163</ele>
        <time>2022-09-25T06:57:20Z</time>
      </trkpt>
      <trkpt lat="42.92986" lon="0.29366">
        <ele>1163.8</ele>
        <time>2022-09-25T06:57:25Z</time>
      </trkpt>
      <trkpt lat="42.9298" lon="0.29365">
        <ele>1164.2</ele>
        <time>2022-09-25T06:57:27Z</time>
      </trkpt>
      <trkpt lat="42.92965" lon="0.29365">
        <ele>1165</ele>
        <time>2022-09-25T06:57:33Z</time>
      </trkpt>
      <trkpt lat="42.92962" lon="0.29366">
        <ele>1165.4</ele>
        <time>2022-09-25T06:57:34Z</time>
      </trkpt>
      <trkpt lat="42.92953" lon="0.29368">
        <ele>1166.4</ele>
        <time>2022-09-25T06:57:38Z</time>
      </trkpt>
      <trkpt lat="42.92938" lon="0.29366">
        <ele>1167.2</ele>
        <time>2022-09-25T06:57:44Z</time>
      </trkpt>
      <trkpt lat="42.92934" lon="0.29367">
        <ele>1167.6</ele>
        <time>2022-09-25T06:57:46Z</time>
      </trkpt>
      <trkpt lat="42.92925" lon="0.29365">
        <ele>1168.6</ele>
        <time>2022-09-25T06:57:50Z</time>
      </trkpt>
      <trkpt lat="42.92918" lon="0.29365">
        <ele>1169.8</ele>
        <time>2022-09-25T06:57:53Z</time>
      </trkpt>
      <trkpt lat="42.92916" lon="0.29365">
        <ele>1170.2</ele>
        <time>2022-09-25T06:57:54Z</time>
      </trkpt>
      <trkpt lat="42.92899" lon="0.2936">
        <ele>1170.8</ele>
        <time>2022-09-25T06:58:00Z</time>
      </trkpt>
      <trkpt lat="42.92896" lon="0.29359">
        <ele>1170.8</ele>
        <time>2022-09-25T06:58:01Z</time>
      </trkpt>
      <trkpt lat="42.92891" lon="0.29358">
        <ele>1171.8</ele>
        <time>2022-09-25T06:58:03Z</time>
      </trkpt>
      <trkpt lat="42.92875" lon="0.29354">
        <ele>1173</ele>
        <time>2022-09-25T06:58:09Z</time>
      </trkpt>
      <trkpt lat="42.92858" lon="0.29348">
        <ele>1173.6</ele>
        <time>2022-09-25T06:58:15Z</time>
      </trkpt>
      <trkpt lat="42.92854" lon="0.29348">
        <ele>1174.2</ele>
        <time>2022-09-25T06:58:17Z</time>
      </trkpt>
      <trkpt lat="42.92843" lon="0.29348">
        <ele>1175</ele>
        <time>2022-09-25T06:58:22Z</time>
      </trkpt>
      <trkpt lat="42.92837" lon="0.29347">
        <ele>1176</ele>
        <time>2022-09-25T06:58:25Z</time>
      </trkpt>
      <trkpt lat="42.92835" lon="0.29347">
        <ele>1176.4</ele>
        <time>2022-09-25T06:58:26Z</time>
      </trkpt>
      <trkpt lat="42.92829" lon="0.29348">
        <ele>1177</ele>
        <time>2022-09-25T06:58:29Z</time>
      </trkpt>
      <trkpt lat="42.92826" lon="0.29348">
        <ele>1177.4</ele>
        <time>2022-09-25T06:58:31Z</time>
      </trkpt>
      <trkpt lat="42.92823" lon="0.29349">
        <ele>1178</ele>
        <time>2022-09-25T06:58:32Z</time>
      </trkpt>
      <trkpt lat="42.92817" lon="0.2935">
        <ele>1178.8</ele>
        <time>2022-09-25T06:58:35Z</time>
      </trkpt>
      <trkpt lat="42.92812" lon="0.2935">
        <ele>1179.4</ele>
        <time>2022-09-25T06:58:38Z</time>
      </trkpt>
      <trkpt lat="42.92808" lon="0.2935">
        <ele>1179.8</ele>
        <time>2022-09-25T06:58:40Z</time>
      </trkpt>
      <trkpt lat="42.92802" lon="0.29355">
        <ele>1180.8</ele>
        <time>2022-09-25T06:58:44Z</time>
      </trkpt>
      <trkpt lat="42.928" lon="0.29356">
        <ele>1181</ele>
        <time>2022-09-25T06:58:45Z</time>
      </trkpt>
      <trkpt lat="42.92794" lon="0.29355">
        <ele>1182</ele>
        <time>2022-09-25T06:58:48Z</time>
      </trkpt>
      <trkpt lat="42.92788" lon="0.29353">
        <ele>1183</ele>
        <time>2022-09-25T06:58:51Z</time>
      </trkpt>
      <trkpt lat="42.92786" lon="0.29353">
        <ele>1183</ele>
        <time>2022-09-25T06:58:52Z</time>
      </trkpt>
      <trkpt lat="42.92779" lon="0.29356">
        <ele>1184</ele>
        <time>2022-09-25T06:58:55Z</time>
      </trkpt>
      <trkpt lat="42.92774" lon="0.29356">
        <ele>1184.4</ele>
        <time>2022-09-25T06:58:58Z</time>
      </trkpt>
      <trkpt lat="42.92767" lon="0.29354">
        <ele>1185</ele>
        <time>2022-09-25T06:59:01Z</time>
      </trkpt>
      <trkpt lat="42.92756" lon="0.2935">
        <ele>1186</ele>
        <time>2022-09-25T06:59:06Z</time>
      </trkpt>
      <trkpt lat="42.92754" lon="0.29349">
        <ele>1186.4</ele>
        <time>2022-09-25T06:59:07Z</time>
      </trkpt>
      <trkpt lat="42.92746" lon="0.29344">
        <ele>1187.2</ele>
        <time>2022-09-25T06:59:11Z</time>
      </trkpt>
      <trkpt lat="42.9273" lon="0.29337">
        <ele>1188.2</ele>
        <time>2022-09-25T06:59:16Z</time>
      </trkpt>
      <trkpt lat="42.92719" lon="0.29334">
        <ele>1189.2</ele>
        <time>2022-09-25T06:59:22Z</time>
      </trkpt>
      <trkpt lat="42.92704" lon="0.29329">
        <ele>1190.4</ele>
        <time>2022-09-25T06:59:29Z</time>
      </trkpt>
      <trkpt lat="42.92693" lon="0.2933">
        <ele>1191.2</ele>
        <time>2022-09-25T06:59:34Z</time>
      </trkpt>
      <trkpt lat="42.92689" lon="0.29329">
        <ele>1191.4</ele>
        <time>2022-09-25T06:59:36Z</time>
      </trkpt>
      <trkpt lat="42.9268" lon="0.29325">
        <ele>1192</ele>
        <time>2022-09-25T06:59:40Z</time>
      </trkpt>
      <trkpt lat="42.92677" lon="0.29324">
        <ele>1192.2</ele>
        <time>2022-09-25T06:59:41Z</time>
      </trkpt>
      <trkpt lat="42.92672" lon="0.29322">
        <ele>1192.4</ele>
        <time>2022-09-25T06:59:43Z</time>
      </trkpt>
      <trkpt lat="42.9266" lon="0.29321">
        <ele>1193.6</ele>
        <time>2022-09-25T06:59:49Z</time>
      </trkpt>
      <trkpt lat="42.9265" lon="0.29318">
        <ele>1194.4</ele>
        <time>2022-09-25T06:59:54Z</time>
      </trkpt>
      <trkpt lat="42.92645" lon="0.29317">
        <ele>1195</ele>
        <time>2022-09-25T06:59:57Z</time>
      </trkpt>
      <trkpt lat="42.92639" lon="0.29316">
        <ele>1195.6</ele>
        <time>2022-09-25T07:00:00Z</time>
      </trkpt>
      <trkpt lat="42.9263" lon="0.29313">
        <ele>1196.6</ele>
        <time>2022-09-25T07:00:05Z</time>
      </trkpt>
      <trkpt lat="42.92628" lon="0.29312">
        <ele>1197</ele>
        <time>2022-09-25T07:00:06Z</time>
      </trkpt>
      <trkpt lat="42.92621" lon="0.29309">
        <ele>1197.8</ele>
        <time>2022-09-25T07:00:11Z</time>
      </trkpt>
      <trkpt lat="42.92616" lon="0.29306">
        <ele>1198.4</ele>
        <time>2022-09-25T07:00:14Z</time>
      </trkpt>
      <trkpt lat="42.92611" lon="0.29305">
        <ele>1198.8</ele>
        <time>2022-09-25T07:00:16Z</time>
      </trkpt>
      <trkpt lat="42.92601" lon="0.29301">
        <ele>1200</ele>
        <time>2022-09-25T07:00:20Z</time>
      </trkpt>
      <trkpt lat="42.92599" lon="0.29299">
        <ele>1200</ele>
        <time>2022-09-25T07:00:21Z</time>
      </trkpt>
      <trkpt lat="42.92588" lon="0.29294">
        <ele>1201</ele>
        <time>2022-09-25T07:00:26Z</time>
      </trkpt>
      <trkpt lat="42.92581" lon="0.29291">
        <ele>1201.8</ele>
        <time>2022-09-25T07:00:30Z</time>
      </trkpt>
      <trkpt lat="42.92579" lon="0.2929">
        <ele>1202</ele>
        <time>2022-09-25T07:00:31Z</time>
      </trkpt>
      <trkpt lat="42.92568" lon="0.29286">
        <ele>1203</ele>
        <time>2022-09-25T07:00:37Z</time>
      </trkpt>
      <trkpt lat="42.92566" lon="0.29285">
        <ele>1203.2</ele>
        <time>2022-09-25T07:00:38Z</time>
      </trkpt>
      <trkpt lat="42.92556" lon="0.29283">
        <ele>1204.4</ele>
        <time>2022-09-25T07:00:43Z</time>
      </trkpt>
      <trkpt lat="42.92554" lon="0.29282">
        <ele>1204.4</ele>
        <time>2022-09-25T07:00:44Z</time>
      </trkpt>
      <trkpt lat="42.92546" lon="0.29279">
        <ele>1205.4</ele>
        <time>2022-09-25T07:00:49Z</time>
      </trkpt>
      <trkpt lat="42.92544" lon="0.29279">
        <ele>1205.6</ele>
        <time>2022-09-25T07:00:50Z</time>
      </trkpt>
      <trkpt lat="42.92536" lon="0.29278">
        <ele>1206.6</ele>
        <time>2022-09-25T07:00:54Z</time>
      </trkpt>
      <trkpt lat="42.92528" lon="0.29275">
        <ele>1207.2</ele>
        <time>2022-09-25T07:00:59Z</time>
      </trkpt>
      <trkpt lat="42.92526" lon="0.29275">
        <ele>1207.4</ele>
        <time>2022-09-25T07:01:00Z</time>
      </trkpt>
      <trkpt lat="42.92514" lon="0.29278">
        <ele>1208.6</ele>
        <time>2022-09-25T07:01:06Z</time>
      </trkpt>
      <trkpt lat="42.92512" lon="0.29278">
        <ele>1208.8</ele>
        <time>2022-09-25T07:01:07Z</time>
      </trkpt>
      <trkpt lat="42.925" lon="0.29276">
        <ele>1209.8</ele>
        <time>2022-09-25T07:01:12Z</time>
      </trkpt>
      <trkpt lat="42.92497" lon="0.29275">
        <ele>1209.8</ele>
        <time>2022-09-25T07:01:13Z</time>
      </trkpt>
      <trkpt lat="42.92486" lon="0.29278">
        <ele>1210.6</ele>
        <time>2022-09-25T07:01:18Z</time>
      </trkpt>
      <trkpt lat="42.92483" lon="0.29279">
        <ele>1210.8</ele>
        <time>2022-09-25T07:01:19Z</time>
      </trkpt>
      <trkpt lat="42.92469" lon="0.2928">
        <ele>1211.8</ele>
        <time>2022-09-25T07:01:25Z</time>
      </trkpt>
      <trkpt lat="42.92464" lon="0.29281">
        <ele>1212.2</ele>
        <time>2022-09-25T07:01:27Z</time>
      </trkpt>
      <trkpt lat="42.92453" lon="0.29283">
        <ele>1213</ele>
        <time>2022-09-25T07:01:31Z</time>
      </trkpt>
      <trkpt lat="42.92446" lon="0.29284">
        <ele>1213.8</ele>
        <time>2022-09-25T07:01:35Z</time>
      </trkpt>
      <trkpt lat="42.92439" lon="0.29285">
        <ele>1214.2</ele>
        <time>2022-09-25T07:01:37Z</time>
      </trkpt>
      <trkpt lat="42.92427" lon="0.2929">
        <ele>1215</ele>
        <time>2022-09-25T07:01:42Z</time>
      </trkpt>
      <trkpt lat="42.92426" lon="0.2929">
        <ele>1215.4</ele>
        <time>2022-09-25T07:01:43Z</time>
      </trkpt>
      <trkpt lat="42.92416" lon="0.2929">
        <ele>1216.2</ele>
        <time>2022-09-25T07:01:48Z</time>
      </trkpt>
      <trkpt lat="42.92404" lon="0.29292">
        <ele>1217.4</ele>
        <time>2022-09-25T07:01:54Z</time>
      </trkpt>
      <trkpt lat="42.92399" lon="0.29293">
        <ele>1217.8</ele>
        <time>2022-09-25T07:01:56Z</time>
      </trkpt>
      <trkpt lat="42.92391" lon="0.29296">
        <ele>1218.6</ele>
        <time>2022-09-25T07:02:00Z</time>
      </trkpt>
      <trkpt lat="42.92387" lon="0.29298">
        <ele>1219</ele>
        <time>2022-09-25T07:02:02Z</time>
      </trkpt>
      <trkpt lat="42.9238" lon="0.29302">
        <ele>1219.4</ele>
        <time>2022-09-25T07:02:05Z</time>
      </trkpt>
      <trkpt lat="42.92373" lon="0.29306">
        <ele>1220.2</ele>
        <time>2022-09-25T07:02:08Z</time>
      </trkpt>
      <trkpt lat="42.9237" lon="0.29307">
        <ele>1220.4</ele>
        <time>2022-09-25T07:02:09Z</time>
      </trkpt>
      <trkpt lat="42.92357" lon="0.29313">
        <ele>1221.4</ele>
        <time>2022-09-25T07:02:15Z</time>
      </trkpt>
      <trkpt lat="42.92353" lon="0.29314">
        <ele>1221.8</ele>
        <time>2022-09-25T07:02:17Z</time>
      </trkpt>
      <trkpt lat="42.92341" lon="0.29316">
        <ele>1222.6</ele>
        <time>2022-09-25T07:02:22Z</time>
      </trkpt>
      <trkpt lat="42.92339" lon="0.29318">
        <ele>1222.6</ele>
        <time>2022-09-25T07:02:23Z</time>
      </trkpt>
      <trkpt lat="42.92338" lon="0.29323">
        <ele>1223.2</ele>
        <time>2022-09-25T07:02:25Z</time>
      </trkpt>
      <trkpt lat="42.92339" lon="0.29325">
        <ele>1223.4</ele>
        <time>2022-09-25T07:02:26Z</time>
      </trkpt>
      <trkpt lat="42.9234" lon="0.29326">
        <ele>1223.6</ele>
        <time>2022-09-25T07:02:27Z</time>
      </trkpt>
      <trkpt lat="42.92342" lon="0.29327">
        <ele>1223.6</ele>
        <time>2022-09-25T07:02:28Z</time>
      </trkpt>
      <trkpt lat="42.92352" lon="0.29328">
        <ele>1224.2</ele>
        <time>2022-09-25T07:02:32Z</time>
      </trkpt>
      <trkpt lat="42.9236" lon="0.29329">
        <ele>1224.6</ele>
        <time>2022-09-25T07:02:35Z</time>
      </trkpt>
      <trkpt lat="42.92364" lon="0.29328">
        <ele>1224.8</ele>
        <time>2022-09-25T07:02:37Z</time>
      </trkpt>
      <trkpt lat="42.92376" lon="0.2933">
        <ele>1225.8</ele>
        <time>2022-09-25T07:02:42Z</time>
      </trkpt>
      <trkpt lat="42.92381" lon="0.29331">
        <ele>1226</ele>
        <time>2022-09-25T07:02:44Z</time>
      </trkpt>
      <trkpt lat="42.92385" lon="0.29333">
        <ele>1226.2</ele>
        <time>2022-09-25T07:02:46Z</time>
      </trkpt>
      <trkpt lat="42.9239" lon="0.29334">
        <ele>1226.6</ele>
        <time>2022-09-25T07:02:48Z</time>
      </trkpt>
      <trkpt lat="42.92393" lon="0.29339">
        <ele>1226.8</ele>
        <time>2022-09-25T07:02:49Z</time>
      </trkpt>
      <trkpt lat="42.92401" lon="0.29344">
        <ele>1227.6</ele>
        <time>2022-09-25T07:02:53Z</time>
      </trkpt>
      <trkpt lat="42.92404" lon="0.29346">
        <ele>1227.8</ele>
        <time>2022-09-25T07:02:54Z</time>
      </trkpt>
      <trkpt lat="42.92407" lon="0.29347">
        <ele>1228</ele>
        <time>2022-09-25T07:02:55Z</time>
      </trkpt>
      <trkpt lat="42.92415" lon="0.29353">
        <ele>1229</ele>
        <time>2022-09-25T07:02:59Z</time>
      </trkpt>
      <trkpt lat="42.92417" lon="0.29356">
        <ele>1229.4</ele>
        <time>2022-09-25T07:03:01Z</time>
      </trkpt>
      <trkpt lat="42.92423" lon="0.29359">
        <ele>1230.4</ele>
        <time>2022-09-25T07:03:04Z</time>
      </trkpt>
      <trkpt lat="42.92425" lon="0.29359">
        <ele>1230.8</ele>
        <time>2022-09-25T07:03:05Z</time>
      </trkpt>
      <trkpt lat="42.92429" lon="0.2936">
        <ele>1231.4</ele>
        <time>2022-09-25T07:03:08Z</time>
      </trkpt>
      <trkpt lat="42.92431" lon="0.29361">
        <ele>1231.8</ele>
        <time>2022-09-25T07:03:09Z</time>
      </trkpt>
      <trkpt lat="42.92432" lon="0.29362">
        <ele>1232</ele>
        <time>2022-09-25T07:03:10Z</time>
      </trkpt>
      <trkpt lat="42.92434" lon="0.29364">
        <ele>1232.4</ele>
        <time>2022-09-25T07:03:12Z</time>
      </trkpt>
      <trkpt lat="42.92435" lon="0.29365">
        <ele>1232.6</ele>
        <time>2022-09-25T07:03:13Z</time>
      </trkpt>
      <trkpt lat="42.92437" lon="0.29367">
        <ele>1232.6</ele>
        <time>2022-09-25T07:03:14Z</time>
      </trkpt>
      <trkpt lat="42.92446" lon="0.29375">
        <ele>1234</ele>
        <time>2022-09-25T07:03:19Z</time>
      </trkpt>
      <trkpt lat="42.92447" lon="0.29377">
        <ele>1234.4</ele>
        <time>2022-09-25T07:03:20Z</time>
      </trkpt>
      <trkpt lat="42.92451" lon="0.29381">
        <ele>1235.2</ele>
        <time>2022-09-25T07:03:23Z</time>
      </trkpt>
      <trkpt lat="42.92456" lon="0.29388">
        <ele>1236.2</ele>
        <time>2022-09-25T07:03:27Z</time>
      </trkpt>
      <trkpt lat="42.92457" lon="0.29389">
        <ele>1236.6</ele>
        <time>2022-09-25T07:03:28Z</time>
      </trkpt>
      <trkpt lat="42.92462" lon="0.29394">
        <ele>1237.2</ele>
        <time>2022-09-25T07:03:32Z</time>
      </trkpt>
      <trkpt lat="42.92468" lon="0.29402">
        <ele>1238.4</ele>
        <time>2022-09-25T07:03:36Z</time>
      </trkpt>
      <trkpt lat="42.92469" lon="0.29403">
        <ele>1238.6</ele>
        <time>2022-09-25T07:03:37Z</time>
      </trkpt>
      <trkpt lat="42.92476" lon="0.29412">
        <ele>1239.6</ele>
        <time>2022-09-25T07:03:42Z</time>
      </trkpt>
      <trkpt lat="42.92478" lon="0.29416">
        <ele>1240.2</ele>
        <time>2022-09-25T07:03:44Z</time>
      </trkpt>
      <trkpt lat="42.92481" lon="0.29418">
        <ele>1240.6</ele>
        <time>2022-09-25T07:03:47Z</time>
      </trkpt>
      <trkpt lat="42.92487" lon="0.29425">
        <ele>1241.6</ele>
        <time>2022-09-25T07:03:51Z</time>
      </trkpt>
      <trkpt lat="42.92488" lon="0.29427">
        <ele>1241.8</ele>
        <time>2022-09-25T07:03:52Z</time>
      </trkpt>
      <trkpt lat="42.92494" lon="0.29435">
        <ele>1243</ele>
        <time>2022-09-25T07:03:56Z</time>
      </trkpt>
      <trkpt lat="42.92497" lon="0.29439">
        <ele>1243.2</ele>
        <time>2022-09-25T07:03:58Z</time>
      </trkpt>
      <trkpt lat="42.925" lon="0.29443">
        <ele>1244</ele>
        <time>2022-09-25T07:04:02Z</time>
      </trkpt>
      <trkpt lat="42.92504" lon="0.29447">
        <ele>1244.8</ele>
        <time>2022-09-25T07:04:05Z</time>
      </trkpt>
      <trkpt lat="42.92507" lon="0.29449">
        <ele>1245</ele>
        <time>2022-09-25T07:04:07Z</time>
      </trkpt>
      <trkpt lat="42.92513" lon="0.29454">
        <ele>1246.2</ele>
        <time>2022-09-25T07:04:12Z</time>
      </trkpt>
      <trkpt lat="42.92516" lon="0.29457">
        <ele>1246.6</ele>
        <time>2022-09-25T07:04:14Z</time>
      </trkpt>
      <trkpt lat="42.92521" lon="0.2946">
        <ele>1247.4</ele>
        <time>2022-09-25T07:04:17Z</time>
      </trkpt>
      <trkpt lat="42.92528" lon="0.29466">
        <ele>1248</ele>
        <time>2022-09-25T07:04:22Z</time>
      </trkpt>
      <trkpt lat="42.9253" lon="0.29468">
        <ele>1248.2</ele>
        <time>2022-09-25T07:04:23Z</time>
      </trkpt>
      <trkpt lat="42.92536" lon="0.29471">
        <ele>1249.2</ele>
        <time>2022-09-25T07:04:28Z</time>
      </trkpt>
      <trkpt lat="42.92537" lon="0.29472">
        <ele>1249.4</ele>
        <time>2022-09-25T07:04:29Z</time>
      </trkpt>
      <trkpt lat="42.92541" lon="0.29476">
        <ele>1250.2</ele>
        <time>2022-09-25T07:04:33Z</time>
      </trkpt>
      <trkpt lat="42.92542" lon="0.29476">
        <ele>1250.6</ele>
        <time>2022-09-25T07:04:34Z</time>
      </trkpt>
      <trkpt lat="42.92544" lon="0.29477">
        <ele>1250.6</ele>
        <time>2022-09-25T07:04:35Z</time>
      </trkpt>
      <trkpt lat="42.92549" lon="0.29482">
        <ele>1251.6</ele>
        <time>2022-09-25T07:04:38Z</time>
      </trkpt>
      <trkpt lat="42.92556" lon="0.29487">
        <ele>1252.4</ele>
        <time>2022-09-25T07:04:42Z</time>
      </trkpt>
      <trkpt lat="42.92557" lon="0.29488">
        <ele>1252.4</ele>
        <time>2022-09-25T07:04:43Z</time>
      </trkpt>
      <trkpt lat="42.92559" lon="0.29489">
        <ele>1252.8</ele>
        <time>2022-09-25T07:04:44Z</time>
      </trkpt>
      <trkpt lat="42.92562" lon="0.29491">
        <ele>1253</ele>
        <time>2022-09-25T07:04:46Z</time>
      </trkpt>
      <trkpt lat="42.92563" lon="0.29492">
        <ele>1253.2</ele>
        <time>2022-09-25T07:04:47Z</time>
      </trkpt>
      <trkpt lat="42.92564" lon="0.29493">
        <ele>1253.4</ele>
        <time>2022-09-25T07:04:48Z</time>
      </trkpt>
      <trkpt lat="42.92566" lon="0.29494">
        <ele>1253.8</ele>
        <time>2022-09-25T07:04:49Z</time>
      </trkpt>
      <trkpt lat="42.92569" lon="0.29495">
        <ele>1254.6</ele>
        <time>2022-09-25T07:04:53Z</time>
      </trkpt>
      <trkpt lat="42.9257" lon="0.29495">
        <ele>1254.8</ele>
        <time>2022-09-25T07:04:54Z</time>
      </trkpt>
      <trkpt lat="42.92577" lon="0.29498">
        <ele>1255.6</ele>
        <time>2022-09-25T07:04:58Z</time>
      </trkpt>
      <trkpt lat="42.92578" lon="0.29499">
        <ele>1255.8</ele>
        <time>2022-09-25T07:04:59Z</time>
      </trkpt>
      <trkpt lat="42.92579" lon="0.295">
        <ele>1256</ele>
        <time>2022-09-25T07:05:00Z</time>
      </trkpt>
      <trkpt lat="42.92583" lon="0.29502">
        <ele>1256.4</ele>
        <time>2022-09-25T07:05:02Z</time>
      </trkpt>
      <trkpt lat="42.92586" lon="0.29504">
        <ele>1256.6</ele>
        <time>2022-09-25T07:05:04Z</time>
      </trkpt>
      <trkpt lat="42.92588" lon="0.29506">
        <ele>1257</ele>
        <time>2022-09-25T07:05:05Z</time>
      </trkpt>
      <trkpt lat="42.92599" lon="0.29513">
        <ele>1258</ele>
        <time>2022-09-25T07:05:11Z</time>
      </trkpt>
      <trkpt lat="42.92607" lon="0.29519">
        <ele>1258.6</ele>
        <time>2022-09-25T07:05:15Z</time>
      </trkpt>
      <trkpt lat="42.92611" lon="0.29523">
        <ele>1259</ele>
        <time>2022-09-25T07:05:18Z</time>
      </trkpt>
      <trkpt lat="42.92613" lon="0.29524">
        <ele>1259.4</ele>
        <time>2022-09-25T07:05:19Z</time>
      </trkpt>
      <trkpt lat="42.92616" lon="0.29525">
        <ele>1259.6</ele>
        <time>2022-09-25T07:05:21Z</time>
      </trkpt>
      <trkpt lat="42.92618" lon="0.29526">
        <ele>1260</ele>
        <time>2022-09-25T07:05:22Z</time>
      </trkpt>
      <trkpt lat="42.92622" lon="0.29528">
        <ele>1260.8</ele>
        <time>2022-09-25T07:05:24Z</time>
      </trkpt>
      <trkpt lat="42.92623" lon="0.29529">
        <ele>1261</ele>
        <time>2022-09-25T07:05:25Z</time>
      </trkpt>
      <trkpt lat="42.92623" lon="0.29529">
        <ele>1261.2</ele>
        <time>2022-09-25T07:05:26Z</time>
      </trkpt>
      <trkpt lat="42.92631" lon="0.29534">
        <ele>1262</ele>
        <time>2022-09-25T07:05:33Z</time>
      </trkpt>
      <trkpt lat="42.92634" lon="0.29535">
        <ele>1262.8</ele>
        <time>2022-09-25T07:05:35Z</time>
      </trkpt>
      <trkpt lat="42.92635" lon="0.29536">
        <ele>1263</ele>
        <time>2022-09-25T07:05:36Z</time>
      </trkpt>
      <trkpt lat="42.92643" lon="0.29539">
        <ele>1264</ele>
        <time>2022-09-25T07:05:42Z</time>
      </trkpt>
      <trkpt lat="42.92645" lon="0.2954">
        <ele>1264.2</ele>
        <time>2022-09-25T07:05:43Z</time>
      </trkpt>
      <trkpt lat="42.92647" lon="0.29541">
        <ele>1264.4</ele>
        <time>2022-09-25T07:05:45Z</time>
      </trkpt>
      <trkpt lat="42.9265" lon="0.29543">
        <ele>1264.6</ele>
        <time>2022-09-25T07:05:47Z</time>
      </trkpt>
      <trkpt lat="42.92651" lon="0.29544">
        <ele>1265.2</ele>
        <time>2022-09-25T07:05:49Z</time>
      </trkpt>
      <trkpt lat="42.92661" lon="0.29552">
        <ele>1266.2</ele>
        <time>2022-09-25T07:05:53Z</time>
      </trkpt>
      <trkpt lat="42.92668" lon="0.29557">
        <ele>1267.2</ele>
        <time>2022-09-25T07:05:58Z</time>
      </trkpt>
      <trkpt lat="42.92677" lon="0.29566">
        <ele>1268.4</ele>
        <time>2022-09-25T07:06:04Z</time>
      </trkpt>
      <trkpt lat="42.92686" lon="0.29567">
        <ele>1269.4</ele>
        <time>2022-09-25T07:06:09Z</time>
      </trkpt>
      <trkpt lat="42.92688" lon="0.29568">
        <ele>1269.8</ele>
        <time>2022-09-25T07:06:11Z</time>
      </trkpt>
      <trkpt lat="42.92694" lon="0.2957">
        <ele>1270.6</ele>
        <time>2022-09-25T07:06:15Z</time>
      </trkpt>
      <trkpt lat="42.92698" lon="0.29573">
        <ele>1271.2</ele>
        <time>2022-09-25T07:06:18Z</time>
      </trkpt>
      <trkpt lat="42.92702" lon="0.29576">
        <ele>1271.6</ele>
        <time>2022-09-25T07:06:20Z</time>
      </trkpt>
      <trkpt lat="42.92711" lon="0.29583">
        <ele>1272.4</ele>
        <time>2022-09-25T07:06:25Z</time>
      </trkpt>
      <trkpt lat="42.92712" lon="0.29585">
        <ele>1272.8</ele>
        <time>2022-09-25T07:06:26Z</time>
      </trkpt>
      <trkpt lat="42.9272" lon="0.29597">
        <ele>1273.8</ele>
        <time>2022-09-25T07:06:32Z</time>
      </trkpt>
      <trkpt lat="42.92721" lon="0.29599">
        <ele>1274</ele>
        <time>2022-09-25T07:06:33Z</time>
      </trkpt>
      <trkpt lat="42.92725" lon="0.29611">
        <ele>1274.8</ele>
        <time>2022-09-25T07:06:39Z</time>
      </trkpt>
      <trkpt lat="42.92726" lon="0.29616">
        <ele>1275.4</ele>
        <time>2022-09-25T07:06:42Z</time>
      </trkpt>
      <trkpt lat="42.92726" lon="0.29617">
        <ele>1275.4</ele>
        <time>2022-09-25T07:06:43Z</time>
      </trkpt>
      <trkpt lat="42.92726" lon="0.29618">
        <ele>1275.8</ele>
        <time>2022-09-25T07:06:46Z</time>
      </trkpt>
      <trkpt lat="42.92726" lon="0.29618">
        <ele>1276</ele>
        <time>2022-09-25T07:06:47Z</time>
      </trkpt>
      <trkpt lat="42.92726" lon="0.29618">
        <ele>1276.2</ele>
        <time>2022-09-25T07:07:37Z</time>
      </trkpt>
      <trkpt lat="42.92726" lon="0.29622">
        <ele>1276.4</ele>
        <time>2022-09-25T07:07:39Z</time>
      </trkpt>
      <trkpt lat="42.92726" lon="0.29624">
        <ele>1276.4</ele>
        <time>2022-09-25T07:07:40Z</time>
      </trkpt>
      <trkpt lat="42.92724" lon="0.29625">
        <ele>1276.4</ele>
        <time>2022-09-25T07:07:41Z</time>
      </trkpt>
      <trkpt lat="42.92719" lon="0.29634">
        <ele>1276.6</ele>
        <time>2022-09-25T07:07:46Z</time>
      </trkpt>
      <trkpt lat="42.92705" lon="0.29646">
        <ele>1277</ele>
        <time>2022-09-25T07:07:54Z</time>
      </trkpt>
      <trkpt lat="42.92696" lon="0.29653">
        <ele>1277.2</ele>
        <time>2022-09-25T07:07:59Z</time>
      </trkpt>
      <trkpt lat="42.92693" lon="0.29654">
        <ele>1277.4</ele>
        <time>2022-09-25T07:08:00Z</time>
      </trkpt>
      <trkpt lat="42.92677" lon="0.29667">
        <ele>1277.6</ele>
        <time>2022-09-25T07:08:07Z</time>
      </trkpt>
      <trkpt lat="42.92664" lon="0.29682">
        <ele>1277.8</ele>
        <time>2022-09-25T07:08:13Z</time>
      </trkpt>
      <trkpt lat="42.92648" lon="0.29703">
        <ele>1278</ele>
        <time>2022-09-25T07:08:21Z</time>
      </trkpt>
      <trkpt lat="42.92637" lon="0.29713">
        <ele>1278.2</ele>
        <time>2022-09-25T07:08:26Z</time>
      </trkpt>
      <trkpt lat="42.92622" lon="0.29733">
        <ele>1278.8</ele>
        <time>2022-09-25T07:08:34Z</time>
      </trkpt>
      <trkpt lat="42.9261" lon="0.29751">
        <ele>1279</ele>
        <time>2022-09-25T07:08:40Z</time>
      </trkpt>
      <trkpt lat="42.92598" lon="0.29767">
        <ele>1279.2</ele>
        <time>2022-09-25T07:08:47Z</time>
      </trkpt>
      <trkpt lat="42.92587" lon="0.29776">
        <ele>1279.4</ele>
        <time>2022-09-25T07:08:52Z</time>
      </trkpt>
      <trkpt lat="42.92577" lon="0.29787">
        <ele>1279.8</ele>
        <time>2022-09-25T07:08:57Z</time>
      </trkpt>
      <trkpt lat="42.92567" lon="0.29802">
        <ele>1280</ele>
        <time>2022-09-25T07:09:02Z</time>
      </trkpt>
      <trkpt lat="42.92562" lon="0.29809">
        <ele>1279.8</ele>
        <time>2022-09-25T07:09:04Z</time>
      </trkpt>
      <trkpt lat="42.92548" lon="0.2983">
        <ele>1279.8</ele>
        <time>2022-09-25T07:09:11Z</time>
      </trkpt>
      <trkpt lat="42.92534" lon="0.29857">
        <ele>1280.4</ele>
        <time>2022-09-25T07:09:20Z</time>
      </trkpt>
      <trkpt lat="42.92528" lon="0.29871">
        <ele>1280.8</ele>
        <time>2022-09-25T07:09:24Z</time>
      </trkpt>
      <trkpt lat="42.92523" lon="0.29886">
        <ele>1280.8</ele>
        <time>2022-09-25T07:09:28Z</time>
      </trkpt>
      <trkpt lat="42.92518" lon="0.29905">
        <ele>1280.8</ele>
        <time>2022-09-25T07:09:33Z</time>
      </trkpt>
      <trkpt lat="42.92517" lon="0.29909">
        <ele>1280.8</ele>
        <time>2022-09-25T07:09:34Z</time>
      </trkpt>
      <trkpt lat="42.92516" lon="0.29922">
        <ele>1281</ele>
        <time>2022-09-25T07:09:37Z</time>
      </trkpt>
      <trkpt lat="42.92512" lon="0.29955">
        <ele>1281.2</ele>
        <time>2022-09-25T07:09:44Z</time>
      </trkpt>
      <trkpt lat="42.92511" lon="0.29962">
        <ele>1281.2</ele>
        <time>2022-09-25T07:09:46Z</time>
      </trkpt>
      <trkpt lat="42.92513" lon="0.29975">
        <ele>1281.4</ele>
        <time>2022-09-25T07:09:49Z</time>
      </trkpt>
      <trkpt lat="42.92513" lon="0.29979">
        <ele>1281.4</ele>
        <time>2022-09-25T07:09:50Z</time>
      </trkpt>
      <trkpt lat="42.92513" lon="0.29987">
        <ele>1281.4</ele>
        <time>2022-09-25T07:09:52Z</time>
      </trkpt>
      <trkpt lat="42.92514" lon="0.29992">
        <ele>1281.4</ele>
        <time>2022-09-25T07:09:53Z</time>
      </trkpt>
      <trkpt lat="42.92511" lon="0.30008">
        <ele>1281.6</ele>
        <time>2022-09-25T07:09:58Z</time>
      </trkpt>
      <trkpt lat="42.92509" lon="0.30011">
        <ele>1281.6</ele>
        <time>2022-09-25T07:09:59Z</time>
      </trkpt>
      <trkpt lat="42.92502" lon="0.30039">
        <ele>1282.4</ele>
        <time>2022-09-25T07:10:07Z</time>
      </trkpt>
      <trkpt lat="42.92502" lon="0.30041">
        <ele>1282.6</ele>
        <time>2022-09-25T07:10:08Z</time>
      </trkpt>
      <trkpt lat="42.92497" lon="0.30059">
        <ele>1283.2</ele>
        <time>2022-09-25T07:10:14Z</time>
      </trkpt>
      <trkpt lat="42.92496" lon="0.30064">
        <ele>1283.4</ele>
        <time>2022-09-25T07:10:16Z</time>
      </trkpt>
      <trkpt lat="42.92494" lon="0.30071">
        <ele>1283.6</ele>
        <time>2022-09-25T07:10:19Z</time>
      </trkpt>
      <trkpt lat="42.92491" lon="0.30084">
        <ele>1284.4</ele>
        <time>2022-09-25T07:10:25Z</time>
      </trkpt>
      <trkpt lat="42.92491" lon="0.30091">
        <ele>1284.8</ele>
        <time>2022-09-25T07:10:28Z</time>
      </trkpt>
      <trkpt lat="42.92492" lon="0.30097">
        <ele>1285.2</ele>
        <time>2022-09-25T07:10:30Z</time>
      </trkpt>
      <trkpt lat="42.92491" lon="0.30102">
        <ele>1285.6</ele>
        <time>2022-09-25T07:10:32Z</time>
      </trkpt>
      <trkpt lat="42.92488" lon="0.30115">
        <ele>1286.2</ele>
        <time>2022-09-25T07:10:36Z</time>
      </trkpt>
      <trkpt lat="42.92484" lon="0.30126">
        <ele>1286.6</ele>
        <time>2022-09-25T07:10:40Z</time>
      </trkpt>
      <trkpt lat="42.9248" lon="0.30129">
        <ele>1287</ele>
        <time>2022-09-25T07:10:42Z</time>
      </trkpt>
      <trkpt lat="42.92479" lon="0.30131">
        <ele>1287</ele>
        <time>2022-09-25T07:10:43Z</time>
      </trkpt>
      <trkpt lat="42.92475" lon="0.30134">
        <ele>1287.4</ele>
        <time>2022-09-25T07:10:45Z</time>
      </trkpt>
      <trkpt lat="42.92468" lon="0.30142">
        <ele>1288</ele>
        <time>2022-09-25T07:10:49Z</time>
      </trkpt>
      <trkpt lat="42.92462" lon="0.30148">
        <ele>1288.4</ele>
        <time>2022-09-25T07:10:52Z</time>
      </trkpt>
      <trkpt lat="42.92461" lon="0.30153">
        <ele>1288.8</ele>
        <time>2022-09-25T07:10:54Z</time>
      </trkpt>
      <trkpt lat="42.92459" lon="0.30161">
        <ele>1289.4</ele>
        <time>2022-09-25T07:10:58Z</time>
      </trkpt>
      <trkpt lat="42.92458" lon="0.30162">
        <ele>1289.6</ele>
        <time>2022-09-25T07:10:59Z</time>
      </trkpt>
      <trkpt lat="42.92457" lon="0.30165">
        <ele>1289.8</ele>
        <time>2022-09-25T07:11:00Z</time>
      </trkpt>
      <trkpt lat="42.92454" lon="0.30169">
        <ele>1289.8</ele>
        <time>2022-09-25T07:11:02Z</time>
      </trkpt>
      <trkpt lat="42.92455" lon="0.30169">
        <ele>1290</ele>
        <time>2022-09-25T07:11:03Z</time>
      </trkpt>
      <trkpt lat="42.92455" lon="0.30169">
        <ele>1290.2</ele>
        <time>2022-09-25T07:11:05Z</time>
      </trkpt>
      <trkpt lat="42.92455" lon="0.30171">
        <ele>1290.4</ele>
        <time>2022-09-25T07:11:06Z</time>
      </trkpt>
      <trkpt lat="42.92464" lon="0.30181">
        <ele>1291.6</ele>
        <time>2022-09-25T07:11:12Z</time>
      </trkpt>
      <trkpt lat="42.92466" lon="0.30183">
        <ele>1291.6</ele>
        <time>2022-09-25T07:11:13Z</time>
      </trkpt>
      <trkpt lat="42.92468" lon="0.30187">
        <ele>1292.2</ele>
        <time>2022-09-25T07:11:15Z</time>
      </trkpt>
      <trkpt lat="42.92468" lon="0.30191">
        <ele>1292.4</ele>
        <time>2022-09-25T07:11:17Z</time>
      </trkpt>
      <trkpt lat="42.92469" lon="0.30193">
        <ele>1292.8</ele>
        <time>2022-09-25T07:11:18Z</time>
      </trkpt>
      <trkpt lat="42.9247" lon="0.30194">
        <ele>1293.2</ele>
        <time>2022-09-25T07:11:22Z</time>
      </trkpt>
      <trkpt lat="42.92473" lon="0.30195">
        <ele>1293.6</ele>
        <time>2022-09-25T07:11:24Z</time>
      </trkpt>
      <trkpt lat="42.92477" lon="0.30196">
        <ele>1294.2</ele>
        <time>2022-09-25T07:11:26Z</time>
      </trkpt>
      <trkpt lat="42.92484" lon="0.30201">
        <ele>1295</ele>
        <time>2022-09-25T07:11:29Z</time>
      </trkpt>
      <trkpt lat="42.92487" lon="0.302">
        <ele>1295.6</ele>
        <time>2022-09-25T07:11:31Z</time>
      </trkpt>
      <trkpt lat="42.92495" lon="0.30199">
        <ele>1296.2</ele>
        <time>2022-09-25T07:11:35Z</time>
      </trkpt>
      <trkpt lat="42.92505" lon="0.30205">
        <ele>1296.6</ele>
        <time>2022-09-25T07:11:38Z</time>
      </trkpt>
      <trkpt lat="42.92508" lon="0.30208">
        <ele>1297</ele>
        <time>2022-09-25T07:11:40Z</time>
      </trkpt>
      <trkpt lat="42.9251" lon="0.30207">
        <ele>1297.2</ele>
        <time>2022-09-25T07:11:41Z</time>
      </trkpt>
      <trkpt lat="42.92513" lon="0.30209">
        <ele>1297.6</ele>
        <time>2022-09-25T07:11:43Z</time>
      </trkpt>
      <trkpt lat="42.92518" lon="0.30213">
        <ele>1298.2</ele>
        <time>2022-09-25T07:11:45Z</time>
      </trkpt>
      <trkpt lat="42.92524" lon="0.30214">
        <ele>1298.6</ele>
        <time>2022-09-25T07:11:47Z</time>
      </trkpt>
      <trkpt lat="42.92531" lon="0.30215">
        <ele>1299.2</ele>
        <time>2022-09-25T07:11:51Z</time>
      </trkpt>
      <trkpt lat="42.92538" lon="0.30216">
        <ele>1300.2</ele>
        <time>2022-09-25T07:11:55Z</time>
      </trkpt>
      <trkpt lat="42.9254" lon="0.30217">
        <ele>1300.6</ele>
        <time>2022-09-25T07:11:56Z</time>
      </trkpt>
      <trkpt lat="42.92545" lon="0.30217">
        <ele>1301.2</ele>
        <time>2022-09-25T07:11:59Z</time>
      </trkpt>
      <trkpt lat="42.9255" lon="0.30217">
        <ele>1301.6</ele>
        <time>2022-09-25T07:12:02Z</time>
      </trkpt>
      <trkpt lat="42.92553" lon="0.30217">
        <ele>1302.2</ele>
        <time>2022-09-25T07:12:04Z</time>
      </trkpt>
      <trkpt lat="42.92554" lon="0.30214">
        <ele>1302.4</ele>
        <time>2022-09-25T07:12:05Z</time>
      </trkpt>
      <trkpt lat="42.92556" lon="0.30214">
        <ele>1302.6</ele>
        <time>2022-09-25T07:12:06Z</time>
      </trkpt>
      <trkpt lat="42.92558" lon="0.30215">
        <ele>1302.6</ele>
        <time>2022-09-25T07:12:07Z</time>
      </trkpt>
      <trkpt lat="42.9256" lon="0.30216">
        <ele>1303</ele>
        <time>2022-09-25T07:12:08Z</time>
      </trkpt>
      <trkpt lat="42.92563" lon="0.30218">
        <ele>1303.2</ele>
        <time>2022-09-25T07:12:09Z</time>
      </trkpt>
      <trkpt lat="42.92565" lon="0.30222">
        <ele>1303.6</ele>
        <time>2022-09-25T07:12:10Z</time>
      </trkpt>
      <trkpt lat="42.92569" lon="0.30222">
        <ele>1304</ele>
        <time>2022-09-25T07:12:12Z</time>
      </trkpt>
      <trkpt lat="42.92571" lon="0.30222">
        <ele>1304.2</ele>
        <time>2022-09-25T07:12:13Z</time>
      </trkpt>
      <trkpt lat="42.92577" lon="0.30222">
        <ele>1305.2</ele>
        <time>2022-09-25T07:12:16Z</time>
      </trkpt>
      <trkpt lat="42.9258" lon="0.30225">
        <ele>1305.6</ele>
        <time>2022-09-25T07:12:18Z</time>
      </trkpt>
      <trkpt lat="42.92583" lon="0.30226">
        <ele>1306</ele>
        <time>2022-09-25T07:12:20Z</time>
      </trkpt>
      <trkpt lat="42.92587" lon="0.30227">
        <ele>1306.2</ele>
        <time>2022-09-25T07:12:22Z</time>
      </trkpt>
      <trkpt lat="42.92589" lon="0.30225">
        <ele>1306.6</ele>
        <time>2022-09-25T07:12:23Z</time>
      </trkpt>
      <trkpt lat="42.92591" lon="0.30225">
        <ele>1306.8</ele>
        <time>2022-09-25T07:12:24Z</time>
      </trkpt>
      <trkpt lat="42.92596" lon="0.30224">
        <ele>1307.2</ele>
        <time>2022-09-25T07:12:27Z</time>
      </trkpt>
      <trkpt lat="42.92601" lon="0.30224">
        <ele>1307.4</ele>
        <time>2022-09-25T07:12:29Z</time>
      </trkpt>
      <trkpt lat="42.92606" lon="0.30224">
        <ele>1307.8</ele>
        <time>2022-09-25T07:12:31Z</time>
      </trkpt>
      <trkpt lat="42.92609" lon="0.30225">
        <ele>1308.2</ele>
        <time>2022-09-25T07:12:33Z</time>
      </trkpt>
      <trkpt lat="42.92611" lon="0.30225">
        <ele>1308.4</ele>
        <time>2022-09-25T07:12:35Z</time>
      </trkpt>
      <trkpt lat="42.92619" lon="0.30224">
        <ele>1309.6</ele>
        <time>2022-09-25T07:12:40Z</time>
      </trkpt>
      <trkpt lat="42.92623" lon="0.30226">
        <ele>1310</ele>
        <time>2022-09-25T07:12:42Z</time>
      </trkpt>
      <trkpt lat="42.92628" lon="0.30228">
        <ele>1310.6</ele>
        <time>2022-09-25T07:12:45Z</time>
      </trkpt>
      <trkpt lat="42.9263" lon="0.30228">
        <ele>1311</ele>
        <time>2022-09-25T07:12:47Z</time>
      </trkpt>
      <trkpt lat="42.92633" lon="0.30229">
        <ele>1311.4</ele>
        <time>2022-09-25T07:12:49Z</time>
      </trkpt>
      <trkpt lat="42.92635" lon="0.30229">
        <ele>1311.6</ele>
        <time>2022-09-25T07:12:50Z</time>
      </trkpt>
      <trkpt lat="42.92636" lon="0.3023">
        <ele>1311.8</ele>
        <time>2022-09-25T07:12:51Z</time>
      </trkpt>
      <trkpt lat="42.92643" lon="0.30234">
        <ele>1312.8</ele>
        <time>2022-09-25T07:12:56Z</time>
      </trkpt>
      <trkpt lat="42.92645" lon="0.30234">
        <ele>1313</ele>
        <time>2022-09-25T07:12:57Z</time>
      </trkpt>
      <trkpt lat="42.92647" lon="0.30237">
        <ele>1313.2</ele>
        <time>2022-09-25T07:12:59Z</time>
      </trkpt>
      <trkpt lat="42.92651" lon="0.30238">
        <ele>1313.8</ele>
        <time>2022-09-25T07:13:01Z</time>
      </trkpt>
      <trkpt lat="42.92655" lon="0.30239">
        <ele>1314</ele>
        <time>2022-09-25T07:13:03Z</time>
      </trkpt>
      <trkpt lat="42.92662" lon="0.30245">
        <ele>1314.8</ele>
        <time>2022-09-25T07:13:06Z</time>
      </trkpt>
      <trkpt lat="42.92664" lon="0.30247">
        <ele>1315</ele>
        <time>2022-09-25T07:13:07Z</time>
      </trkpt>
      <trkpt lat="42.92668" lon="0.30247">
        <ele>1315.6</ele>
        <time>2022-09-25T07:13:11Z</time>
      </trkpt>
      <trkpt lat="42.9268" lon="0.30253">
        <ele>1316.6</ele>
        <time>2022-09-25T07:13:16Z</time>
      </trkpt>
      <trkpt lat="42.92688" lon="0.30259">
        <ele>1317.8</ele>
        <time>2022-09-25T07:13:21Z</time>
      </trkpt>
      <trkpt lat="42.92691" lon="0.30262">
        <ele>1317.8</ele>
        <time>2022-09-25T07:13:22Z</time>
      </trkpt>
      <trkpt lat="42.92693" lon="0.30264">
        <ele>1318.2</ele>
        <time>2022-09-25T07:13:24Z</time>
      </trkpt>
      <trkpt lat="42.92694" lon="0.30273">
        <ele>1319</ele>
        <time>2022-09-25T07:13:27Z</time>
      </trkpt>
      <trkpt lat="42.92695" lon="0.30276">
        <ele>1319.2</ele>
        <time>2022-09-25T07:13:28Z</time>
      </trkpt>
      <trkpt lat="42.92698" lon="0.30281">
        <ele>1319.4</ele>
        <time>2022-09-25T07:13:29Z</time>
      </trkpt>
      <trkpt lat="42.92704" lon="0.3029">
        <ele>1320</ele>
        <time>2022-09-25T07:13:32Z</time>
      </trkpt>
      <trkpt lat="42.92705" lon="0.30292">
        <ele>1320.4</ele>
        <time>2022-09-25T07:13:33Z</time>
      </trkpt>
      <trkpt lat="42.92705" lon="0.30295">
        <ele>1320.4</ele>
        <time>2022-09-25T07:13:34Z</time>
      </trkpt>
      <trkpt lat="42.92708" lon="0.30304">
        <ele>1321.4</ele>
        <time>2022-09-25T07:13:38Z</time>
      </trkpt>
      <trkpt lat="42.92708" lon="0.30306">
        <ele>1321.6</ele>
        <time>2022-09-25T07:13:39Z</time>
      </trkpt>
      <trkpt lat="42.92707" lon="0.30309">
        <ele>1322</ele>
        <time>2022-09-25T07:13:41Z</time>
      </trkpt>
      <trkpt lat="42.92707" lon="0.30314">
        <ele>1322.2</ele>
        <time>2022-09-25T07:13:43Z</time>
      </trkpt>
      <trkpt lat="42.92707" lon="0.30316">
        <ele>1322.6</ele>
        <time>2022-09-25T07:13:44Z</time>
      </trkpt>
      <trkpt lat="42.92707" lon="0.30325">
        <ele>1323.8</ele>
        <time>2022-09-25T07:13:49Z</time>
      </trkpt>
      <trkpt lat="42.92708" lon="0.30327">
        <ele>1324</ele>
        <time>2022-09-25T07:13:50Z</time>
      </trkpt>
      <trkpt lat="42.92709" lon="0.3033">
        <ele>1324.2</ele>
        <time>2022-09-25T07:13:51Z</time>
      </trkpt>
      <trkpt lat="42.92711" lon="0.3034">
        <ele>1325</ele>
        <time>2022-09-25T07:13:55Z</time>
      </trkpt>
      <trkpt lat="42.92711" lon="0.30349">
        <ele>1325.8</ele>
        <time>2022-09-25T07:13:59Z</time>
      </trkpt>
      <trkpt lat="42.92711" lon="0.30352">
        <ele>1326.2</ele>
        <time>2022-09-25T07:14:00Z</time>
      </trkpt>
      <trkpt lat="42.92712" lon="0.30361">
        <ele>1326.8</ele>
        <time>2022-09-25T07:14:04Z</time>
      </trkpt>
      <trkpt lat="42.92711" lon="0.30363">
        <ele>1327</ele>
        <time>2022-09-25T07:14:05Z</time>
      </trkpt>
      <trkpt lat="42.92711" lon="0.30366">
        <ele>1327.2</ele>
        <time>2022-09-25T07:14:06Z</time>
      </trkpt>
      <trkpt lat="42.92713" lon="0.3038">
        <ele>1328.2</ele>
        <time>2022-09-25T07:14:11Z</time>
      </trkpt>
      <trkpt lat="42.92712" lon="0.30382">
        <ele>1328.4</ele>
        <time>2022-09-25T07:14:12Z</time>
      </trkpt>
      <trkpt lat="42.92715" lon="0.30392">
        <ele>1328.6</ele>
        <time>2022-09-25T07:14:15Z</time>
      </trkpt>
      <trkpt lat="42.92718" lon="0.30398">
        <ele>1329</ele>
        <time>2022-09-25T07:14:17Z</time>
      </trkpt>
      <trkpt lat="42.92719" lon="0.30401">
        <ele>1329.4</ele>
        <time>2022-09-25T07:14:18Z</time>
      </trkpt>
      <trkpt lat="42.92716" lon="0.30409">
        <ele>1330.6</ele>
        <time>2022-09-25T07:14:23Z</time>
      </trkpt>
      <trkpt lat="42.92713" lon="0.30413">
        <ele>1331</ele>
        <time>2022-09-25T07:14:25Z</time>
      </trkpt>
      <trkpt lat="42.92712" lon="0.30419">
        <ele>1331.6</ele>
        <time>2022-09-25T07:14:28Z</time>
      </trkpt>
      <trkpt lat="42.92711" lon="0.30427">
        <ele>1332.8</ele>
        <time>2022-09-25T07:14:32Z</time>
      </trkpt>
      <trkpt lat="42.92712" lon="0.30429">
        <ele>1332.8</ele>
        <time>2022-09-25T07:14:33Z</time>
      </trkpt>
      <trkpt lat="42.92714" lon="0.3044">
        <ele>1333.8</ele>
        <time>2022-09-25T07:14:38Z</time>
      </trkpt>
      <trkpt lat="42.92714" lon="0.30442">
        <ele>1333.8</ele>
        <time>2022-09-25T07:14:39Z</time>
      </trkpt>
      <trkpt lat="42.92717" lon="0.30451">
        <ele>1334.4</ele>
        <time>2022-09-25T07:14:42Z</time>
      </trkpt>
      <trkpt lat="42.92717" lon="0.30456">
        <ele>1334.8</ele>
        <time>2022-09-25T07:14:44Z</time>
      </trkpt>
      <trkpt lat="42.92718" lon="0.3046">
        <ele>1335.4</ele>
        <time>2022-09-25T07:14:46Z</time>
      </trkpt>
      <trkpt lat="42.92719" lon="0.30469">
        <ele>1336</ele>
        <time>2022-09-25T07:14:50Z</time>
      </trkpt>
      <trkpt lat="42.92718" lon="0.30475">
        <ele>1336.2</ele>
        <time>2022-09-25T07:14:53Z</time>
      </trkpt>
      <trkpt lat="42.92721" lon="0.30482">
        <ele>1336.8</ele>
        <time>2022-09-25T07:14:56Z</time>
      </trkpt>
      <trkpt lat="42.92722" lon="0.30497">
        <ele>1338</ele>
        <time>2022-09-25T07:15:02Z</time>
      </trkpt>
      <trkpt lat="42.92723" lon="0.30502">
        <ele>1338.6</ele>
        <time>2022-09-25T07:15:04Z</time>
      </trkpt>
      <trkpt lat="42.92724" lon="0.30508">
        <ele>1339.2</ele>
        <time>2022-09-25T07:15:07Z</time>
      </trkpt>
      <trkpt lat="42.92727" lon="0.3052">
        <ele>1340.2</ele>
        <time>2022-09-25T07:15:12Z</time>
      </trkpt>
      <trkpt lat="42.92727" lon="0.30525">
        <ele>1340.8</ele>
        <time>2022-09-25T07:15:14Z</time>
      </trkpt>
      <trkpt lat="42.92725" lon="0.30531">
        <ele>1341.6</ele>
        <time>2022-09-25T07:15:17Z</time>
      </trkpt>
      <trkpt lat="42.92725" lon="0.30538">
        <ele>1341.8</ele>
        <time>2022-09-25T07:15:20Z</time>
      </trkpt>
      <trkpt lat="42.92724" lon="0.30539">
        <ele>1342.2</ele>
        <time>2022-09-25T07:15:21Z</time>
      </trkpt>
      <trkpt lat="42.92723" lon="0.30545">
        <ele>1342.6</ele>
        <time>2022-09-25T07:15:24Z</time>
      </trkpt>
      <trkpt lat="42.92722" lon="0.30546">
        <ele>1342.8</ele>
        <time>2022-09-25T07:15:25Z</time>
      </trkpt>
      <trkpt lat="42.92722" lon="0.30547">
        <ele>1343</ele>
        <time>2022-09-25T07:15:26Z</time>
      </trkpt>
      <trkpt lat="42.92717" lon="0.30554">
        <ele>1343.8</ele>
        <time>2022-09-25T07:15:30Z</time>
      </trkpt>
      <trkpt lat="42.92717" lon="0.30556">
        <ele>1344</ele>
        <time>2022-09-25T07:15:31Z</time>
      </trkpt>
      <trkpt lat="42.9271" lon="0.30563">
        <ele>1344.6</ele>
        <time>2022-09-25T07:15:34Z</time>
      </trkpt>
      <trkpt lat="42.92707" lon="0.30568">
        <ele>1345</ele>
        <time>2022-09-25T07:15:36Z</time>
      </trkpt>
      <trkpt lat="42.92697" lon="0.30574">
        <ele>1346.2</ele>
        <time>2022-09-25T07:15:42Z</time>
      </trkpt>
      <trkpt lat="42.92695" lon="0.30575">
        <ele>1346.4</ele>
        <time>2022-09-25T07:15:43Z</time>
      </trkpt>
      <trkpt lat="42.92692" lon="0.30579">
        <ele>1347</ele>
        <time>2022-09-25T07:15:45Z</time>
      </trkpt>
      <trkpt lat="42.92691" lon="0.3058">
        <ele>1347.4</ele>
        <time>2022-09-25T07:15:46Z</time>
      </trkpt>
      <trkpt lat="42.92689" lon="0.3058">
        <ele>1347.4</ele>
        <time>2022-09-25T07:15:47Z</time>
      </trkpt>
      <trkpt lat="42.92684" lon="0.30586">
        <ele>1348.4</ele>
        <time>2022-09-25T07:15:51Z</time>
      </trkpt>
      <trkpt lat="42.92683" lon="0.30588">
        <ele>1348.6</ele>
        <time>2022-09-25T07:15:52Z</time>
      </trkpt>
      <trkpt lat="42.9268" lon="0.30595">
        <ele>1349.4</ele>
        <time>2022-09-25T07:15:56Z</time>
      </trkpt>
      <trkpt lat="42.92674" lon="0.306">
        <ele>1350.2</ele>
        <time>2022-09-25T07:16:00Z</time>
      </trkpt>
      <trkpt lat="42.92671" lon="0.30604">
        <ele>1350.8</ele>
        <time>2022-09-25T07:16:03Z</time>
      </trkpt>
      <trkpt lat="42.92666" lon="0.30611">
        <ele>1352</ele>
        <time>2022-09-25T07:16:07Z</time>
      </trkpt>
      <trkpt lat="42.92663" lon="0.30623">
        <ele>1353.2</ele>
        <time>2022-09-25T07:16:12Z</time>
      </trkpt>
      <trkpt lat="42.92662" lon="0.30626">
        <ele>1353.2</ele>
        <time>2022-09-25T07:16:13Z</time>
      </trkpt>
      <trkpt lat="42.92657" lon="0.30631">
        <ele>1354.2</ele>
        <time>2022-09-25T07:16:17Z</time>
      </trkpt>
      <trkpt lat="42.92656" lon="0.30634">
        <ele>1354.4</ele>
        <time>2022-09-25T07:16:18Z</time>
      </trkpt>
      <trkpt lat="42.92654" lon="0.30645">
        <ele>1355.4</ele>
        <time>2022-09-25T07:16:22Z</time>
      </trkpt>
      <trkpt lat="42.92653" lon="0.30649">
        <ele>1355.6</ele>
        <time>2022-09-25T07:16:24Z</time>
      </trkpt>
      <trkpt lat="42.92649" lon="0.30656">
        <ele>1356.4</ele>
        <time>2022-09-25T07:16:28Z</time>
      </trkpt>
      <trkpt lat="42.92646" lon="0.3066">
        <ele>1357</ele>
        <time>2022-09-25T07:16:31Z</time>
      </trkpt>
      <trkpt lat="42.92644" lon="0.30663">
        <ele>1357.4</ele>
        <time>2022-09-25T07:16:33Z</time>
      </trkpt>
      <trkpt lat="42.92639" lon="0.30667">
        <ele>1358.4</ele>
        <time>2022-09-25T07:16:38Z</time>
      </trkpt>
      <trkpt lat="42.92637" lon="0.30669">
        <ele>1358.6</ele>
        <time>2022-09-25T07:16:39Z</time>
      </trkpt>
      <trkpt lat="42.92636" lon="0.3067">
        <ele>1358.8</ele>
        <time>2022-09-25T07:16:40Z</time>
      </trkpt>
      <trkpt lat="42.92632" lon="0.30676">
        <ele>1359.2</ele>
        <time>2022-09-25T07:16:43Z</time>
      </trkpt>
      <trkpt lat="42.92629" lon="0.30679">
        <ele>1359.6</ele>
        <time>2022-09-25T07:16:45Z</time>
      </trkpt>
      <trkpt lat="42.92623" lon="0.30681">
        <ele>1360.2</ele>
        <time>2022-09-25T07:16:48Z</time>
      </trkpt>
      <trkpt lat="42.9262" lon="0.30683">
        <ele>1360.6</ele>
        <time>2022-09-25T07:16:50Z</time>
      </trkpt>
      <trkpt lat="42.9262" lon="0.30686">
        <ele>1360.8</ele>
        <time>2022-09-25T07:16:51Z</time>
      </trkpt>
      <trkpt lat="42.92614" lon="0.30693">
        <ele>1361.6</ele>
        <time>2022-09-25T07:16:55Z</time>
      </trkpt>
      <trkpt lat="42.92607" lon="0.30702">
        <ele>1362.8</ele>
        <time>2022-09-25T07:17:00Z</time>
      </trkpt>
      <trkpt lat="42.92605" lon="0.30702">
        <ele>1362.8</ele>
        <time>2022-09-25T07:17:01Z</time>
      </trkpt>
      <trkpt lat="42.92597" lon="0.30707">
        <ele>1363.8</ele>
        <time>2022-09-25T07:17:05Z</time>
      </trkpt>
      <trkpt lat="42.92592" lon="0.30714">
        <ele>1364.8</ele>
        <time>2022-09-25T07:17:09Z</time>
      </trkpt>
      <trkpt lat="42.92587" lon="0.30719">
        <ele>1365.8</ele>
        <time>2022-09-25T07:17:13Z</time>
      </trkpt>
      <trkpt lat="42.9258" lon="0.30721">
        <ele>1366.6</ele>
        <time>2022-09-25T07:17:17Z</time>
      </trkpt>
      <trkpt lat="42.92578" lon="0.30721">
        <ele>1367</ele>
        <time>2022-09-25T07:17:18Z</time>
      </trkpt>
      <trkpt lat="42.92574" lon="0.30726">
        <ele>1368.2</ele>
        <time>2022-09-25T07:17:22Z</time>
      </trkpt>
      <trkpt lat="42.92573" lon="0.30729">
        <ele>1368.4</ele>
        <time>2022-09-25T07:17:24Z</time>
      </trkpt>
      <trkpt lat="42.92572" lon="0.3073">
        <ele>1368.4</ele>
        <time>2022-09-25T07:17:25Z</time>
      </trkpt>
      <trkpt lat="42.92571" lon="0.30731">
        <ele>1368.6</ele>
        <time>2022-09-25T07:17:26Z</time>
      </trkpt>
      <trkpt lat="42.92566" lon="0.30732">
        <ele>1369.2</ele>
        <time>2022-09-25T07:17:29Z</time>
      </trkpt>
      <trkpt lat="42.92556" lon="0.30736">
        <ele>1370.2</ele>
        <time>2022-09-25T07:17:34Z</time>
      </trkpt>
      <trkpt lat="42.92555" lon="0.30737">
        <ele>1370.4</ele>
        <time>2022-09-25T07:17:35Z</time>
      </trkpt>
      <trkpt lat="42.92552" lon="0.30737">
        <ele>1371</ele>
        <time>2022-09-25T07:17:37Z</time>
      </trkpt>
      <trkpt lat="42.92548" lon="0.3074">
        <ele>1371.2</ele>
        <time>2022-09-25T07:17:39Z</time>
      </trkpt>
      <trkpt lat="42.92546" lon="0.3074">
        <ele>1371.4</ele>
        <time>2022-09-25T07:17:40Z</time>
      </trkpt>
      <trkpt lat="42.92544" lon="0.3074">
        <ele>1371.6</ele>
        <time>2022-09-25T07:17:41Z</time>
      </trkpt>
      <trkpt lat="42.92539" lon="0.30743">
        <ele>1372.2</ele>
        <time>2022-09-25T07:17:44Z</time>
      </trkpt>
      <trkpt lat="42.92537" lon="0.30744">
        <ele>1372.6</ele>
        <time>2022-09-25T07:17:45Z</time>
      </trkpt>
      <trkpt lat="42.9253" lon="0.30751">
        <ele>1373.6</ele>
        <time>2022-09-25T07:17:50Z</time>
      </trkpt>
      <trkpt lat="42.92529" lon="0.30751">
        <ele>1373.8</ele>
        <time>2022-09-25T07:17:51Z</time>
      </trkpt>
      <trkpt lat="42.92525" lon="0.3076">
        <ele>1374.6</ele>
        <time>2022-09-25T07:17:55Z</time>
      </trkpt>
      <trkpt lat="42.92521" lon="0.30761">
        <ele>1375</ele>
        <time>2022-09-25T07:17:57Z</time>
      </trkpt>
      <trkpt lat="42.92517" lon="0.30766">
        <ele>1375.4</ele>
        <time>2022-09-25T07:18:01Z</time>
      </trkpt>
      <trkpt lat="42.92514" lon="0.30769">
        <ele>1375.8</ele>
        <time>2022-09-25T07:18:03Z</time>
      </trkpt>
      <trkpt lat="42.92512" lon="0.30771">
        <ele>1375.8</ele>
        <time>2022-09-25T07:18:04Z</time>
      </trkpt>
      <trkpt lat="42.92509" lon="0.30779">
        <ele>1376.6</ele>
        <time>2022-09-25T07:18:07Z</time>
      </trkpt>
      <trkpt lat="42.92508" lon="0.30785">
        <ele>1377</ele>
        <time>2022-09-25T07:18:09Z</time>
      </trkpt>
      <trkpt lat="42.92504" lon="0.30793">
        <ele>1377.8</ele>
        <time>2022-09-25T07:18:12Z</time>
      </trkpt>
      <trkpt lat="42.92502" lon="0.30794">
        <ele>1378</ele>
        <time>2022-09-25T07:18:14Z</time>
      </trkpt>
      <trkpt lat="42.92499" lon="0.308">
        <ele>1378.4</ele>
        <time>2022-09-25T07:18:17Z</time>
      </trkpt>
      <trkpt lat="42.92498" lon="0.30809">
        <ele>1379</ele>
        <time>2022-09-25T07:18:19Z</time>
      </trkpt>
      <trkpt lat="42.92496" lon="0.30816">
        <ele>1380</ele>
        <time>2022-09-25T07:18:24Z</time>
      </trkpt>
      <trkpt lat="42.92502" lon="0.30823">
        <ele>1381</ele>
        <time>2022-09-25T07:18:29Z</time>
      </trkpt>
      <trkpt lat="42.92504" lon="0.30825">
        <ele>1381.6</ele>
        <time>2022-09-25T07:18:32Z</time>
      </trkpt>
      <trkpt lat="42.92505" lon="0.30826">
        <ele>1381.8</ele>
        <time>2022-09-25T07:18:33Z</time>
      </trkpt>
      <trkpt lat="42.92508" lon="0.30827">
        <ele>1382.2</ele>
        <time>2022-09-25T07:18:36Z</time>
      </trkpt>
      <trkpt lat="42.92512" lon="0.30831">
        <ele>1383</ele>
        <time>2022-09-25T07:18:39Z</time>
      </trkpt>
      <trkpt lat="42.92515" lon="0.30836">
        <ele>1383.4</ele>
        <time>2022-09-25T07:18:42Z</time>
      </trkpt>
      <trkpt lat="42.92519" lon="0.30844">
        <ele>1384</ele>
        <time>2022-09-25T07:18:45Z</time>
      </trkpt>
      <trkpt lat="42.92522" lon="0.30849">
        <ele>1384.4</ele>
        <time>2022-09-25T07:18:47Z</time>
      </trkpt>
      <trkpt lat="42.92521" lon="0.30851">
        <ele>1384.6</ele>
        <time>2022-09-25T07:18:48Z</time>
      </trkpt>
      <trkpt lat="42.92522" lon="0.30857">
        <ele>1385</ele>
        <time>2022-09-25T07:18:51Z</time>
      </trkpt>
      <trkpt lat="42.92522" lon="0.30863">
        <ele>1385.6</ele>
        <time>2022-09-25T07:18:54Z</time>
      </trkpt>
      <trkpt lat="42.92523" lon="0.30865">
        <ele>1386</ele>
        <time>2022-09-25T07:18:55Z</time>
      </trkpt>
      <trkpt lat="42.92523" lon="0.30867">
        <ele>1386.2</ele>
        <time>2022-09-25T07:18:56Z</time>
      </trkpt>
      <trkpt lat="42.92524" lon="0.30877">
        <ele>1387</ele>
        <time>2022-09-25T07:19:01Z</time>
      </trkpt>
      <trkpt lat="42.92525" lon="0.30883">
        <ele>1387.4</ele>
        <time>2022-09-25T07:19:04Z</time>
      </trkpt>
      <trkpt lat="42.92526" lon="0.30891">
        <ele>1388.4</ele>
        <time>2022-09-25T07:19:08Z</time>
      </trkpt>
      <trkpt lat="42.92527" lon="0.30897">
        <ele>1388.8</ele>
        <time>2022-09-25T07:19:10Z</time>
      </trkpt>
      <trkpt lat="42.92527" lon="0.30903">
        <ele>1389.4</ele>
        <time>2022-09-25T07:19:13Z</time>
      </trkpt>
      <trkpt lat="42.92528" lon="0.30905">
        <ele>1389.6</ele>
        <time>2022-09-25T07:19:14Z</time>
      </trkpt>
      <trkpt lat="42.9253" lon="0.30914">
        <ele>1390.6</ele>
        <time>2022-09-25T07:19:18Z</time>
      </trkpt>
      <trkpt lat="42.92533" lon="0.30927">
        <ele>1392</ele>
        <time>2022-09-25T07:19:24Z</time>
      </trkpt>
      <trkpt lat="42.92534" lon="0.30929">
        <ele>1392.2</ele>
        <time>2022-09-25T07:19:25Z</time>
      </trkpt>
      <trkpt lat="42.92534" lon="0.30934">
        <ele>1392.6</ele>
        <time>2022-09-25T07:19:27Z</time>
      </trkpt>
      <trkpt lat="42.92535" lon="0.30939">
        <ele>1393</ele>
        <time>2022-09-25T07:19:29Z</time>
      </trkpt>
      <trkpt lat="42.92535" lon="0.30941">
        <ele>1393.2</ele>
        <time>2022-09-25T07:19:30Z</time>
      </trkpt>
      <trkpt lat="42.92541" lon="0.30951">
        <ele>1394.2</ele>
        <time>2022-09-25T07:19:35Z</time>
      </trkpt>
      <trkpt lat="42.92544" lon="0.30955">
        <ele>1394.6</ele>
        <time>2022-09-25T07:19:38Z</time>
      </trkpt>
      <trkpt lat="42.92547" lon="0.3096">
        <ele>1395.4</ele>
        <time>2022-09-25T07:19:41Z</time>
      </trkpt>
      <trkpt lat="42.92549" lon="0.30964">
        <ele>1396</ele>
        <time>2022-09-25T07:19:44Z</time>
      </trkpt>
      <trkpt lat="42.9255" lon="0.30967">
        <ele>1396.4</ele>
        <time>2022-09-25T07:19:45Z</time>
      </trkpt>
      <trkpt lat="42.92553" lon="0.30973">
        <ele>1397.4</ele>
        <time>2022-09-25T07:19:49Z</time>
      </trkpt>
      <trkpt lat="42.92555" lon="0.30979">
        <ele>1398</ele>
        <time>2022-09-25T07:19:51Z</time>
      </trkpt>
      <trkpt lat="42.92558" lon="0.30986">
        <ele>1398.6</ele>
        <time>2022-09-25T07:19:54Z</time>
      </trkpt>
      <trkpt lat="42.9256" lon="0.30987">
        <ele>1399</ele>
        <time>2022-09-25T07:19:56Z</time>
      </trkpt>
      <trkpt lat="42.9256" lon="0.30984">
        <ele>1399.4</ele>
        <time>2022-09-25T07:19:58Z</time>
      </trkpt>
      <trkpt lat="42.92561" lon="0.30985">
        <ele>1399.6</ele>
        <time>2022-09-25T07:19:59Z</time>
      </trkpt>
      <trkpt lat="42.92563" lon="0.30987">
        <ele>1400</ele>
        <time>2022-09-25T07:20:01Z</time>
      </trkpt>
      <trkpt lat="42.92568" lon="0.3099">
        <ele>1400.4</ele>
        <time>2022-09-25T07:20:05Z</time>
      </trkpt>
      <trkpt lat="42.92577" lon="0.30999">
        <ele>1401.6</ele>
        <time>2022-09-25T07:20:12Z</time>
      </trkpt>
      <trkpt lat="42.92589" lon="0.31009">
        <ele>1402.6</ele>
        <time>2022-09-25T07:20:19Z</time>
      </trkpt>
      <trkpt lat="42.92598" lon="0.31017">
        <ele>1403.6</ele>
        <time>2022-09-25T07:20:24Z</time>
      </trkpt>
      <trkpt lat="42.92604" lon="0.31023">
        <ele>1404.2</ele>
        <time>2022-09-25T07:20:27Z</time>
      </trkpt>
      <trkpt lat="42.92613" lon="0.3103">
        <ele>1404.8</ele>
        <time>2022-09-25T07:20:31Z</time>
      </trkpt>
      <trkpt lat="42.92623" lon="0.31038">
        <ele>1405</ele>
        <time>2022-09-25T07:20:35Z</time>
      </trkpt>
      <trkpt lat="42.92634" lon="0.31044">
        <ele>1405.4</ele>
        <time>2022-09-25T07:20:41Z</time>
      </trkpt>
      <trkpt lat="42.92636" lon="0.31044">
        <ele>1405.4</ele>
        <time>2022-09-25T07:20:42Z</time>
      </trkpt>
      <trkpt lat="42.92642" lon="0.31051">
        <ele>1405.6</ele>
        <time>2022-09-25T07:20:45Z</time>
      </trkpt>
      <trkpt lat="42.92646" lon="0.31055">
        <ele>1405.8</ele>
        <time>2022-09-25T07:20:47Z</time>
      </trkpt>
      <trkpt lat="42.92657" lon="0.31064">
        <ele>1407</ele>
        <time>2022-09-25T07:20:54Z</time>
      </trkpt>
      <trkpt lat="42.92658" lon="0.31065">
        <ele>1407.2</ele>
        <time>2022-09-25T07:20:55Z</time>
      </trkpt>
      <trkpt lat="42.92664" lon="0.3107">
        <ele>1407.6</ele>
        <time>2022-09-25T07:20:59Z</time>
      </trkpt>
      <trkpt lat="42.92667" lon="0.31074">
        <ele>1408.2</ele>
        <time>2022-09-25T07:21:02Z</time>
      </trkpt>
      <trkpt lat="42.9267" lon="0.31077">
        <ele>1408.6</ele>
        <time>2022-09-25T07:21:04Z</time>
      </trkpt>
      <trkpt lat="42.92681" lon="0.31083">
        <ele>1409.2</ele>
        <time>2022-09-25T07:21:10Z</time>
      </trkpt>
      <trkpt lat="42.92693" lon="0.31091">
        <ele>1410.2</ele>
        <time>2022-09-25T07:21:16Z</time>
      </trkpt>
      <trkpt lat="42.92694" lon="0.31092">
        <ele>1410.2</ele>
        <time>2022-09-25T07:21:17Z</time>
      </trkpt>
      <trkpt lat="42.92705" lon="0.31103">
        <ele>1411.2</ele>
        <time>2022-09-25T07:21:23Z</time>
      </trkpt>
      <trkpt lat="42.92707" lon="0.31107">
        <ele>1411.4</ele>
        <time>2022-09-25T07:21:24Z</time>
      </trkpt>
      <trkpt lat="42.92716" lon="0.31119">
        <ele>1412.2</ele>
        <time>2022-09-25T07:21:29Z</time>
      </trkpt>
      <trkpt lat="42.92717" lon="0.31121">
        <ele>1412.2</ele>
        <time>2022-09-25T07:21:30Z</time>
      </trkpt>
      <trkpt lat="42.92718" lon="0.31123">
        <ele>1412.4</ele>
        <time>2022-09-25T07:21:31Z</time>
      </trkpt>
      <trkpt lat="42.92725" lon="0.31135">
        <ele>1413.4</ele>
        <time>2022-09-25T07:21:37Z</time>
      </trkpt>
      <trkpt lat="42.92726" lon="0.31137">
        <ele>1413.6</ele>
        <time>2022-09-25T07:21:38Z</time>
      </trkpt>
      <trkpt lat="42.92728" lon="0.31147">
        <ele>1414.8</ele>
        <time>2022-09-25T07:21:43Z</time>
      </trkpt>
      <trkpt lat="42.92729" lon="0.31149">
        <ele>1415.2</ele>
        <time>2022-09-25T07:21:45Z</time>
      </trkpt>
      <trkpt lat="42.9273" lon="0.31151">
        <ele>1415.6</ele>
        <time>2022-09-25T07:21:47Z</time>
      </trkpt>
      <trkpt lat="42.9273" lon="0.31152">
        <ele>1415.8</ele>
        <time>2022-09-25T07:21:48Z</time>
      </trkpt>
      <trkpt lat="42.9273" lon="0.3116">
        <ele>1416.4</ele>
        <time>2022-09-25T07:21:51Z</time>
      </trkpt>
      <trkpt lat="42.92731" lon="0.31164">
        <ele>1416.8</ele>
        <time>2022-09-25T07:21:53Z</time>
      </trkpt>
      <trkpt lat="42.92731" lon="0.31166">
        <ele>1417</ele>
        <time>2022-09-25T07:21:54Z</time>
      </trkpt>
      <trkpt lat="42.9273" lon="0.31173">
        <ele>1417.6</ele>
        <time>2022-09-25T07:21:57Z</time>
      </trkpt>
      <trkpt lat="42.92731" lon="0.31175">
        <ele>1417.8</ele>
        <time>2022-09-25T07:21:58Z</time>
      </trkpt>
      <trkpt lat="42.92731" lon="0.31178">
        <ele>1417.8</ele>
        <time>2022-09-25T07:21:59Z</time>
      </trkpt>
      <trkpt lat="42.92733" lon="0.31185">
        <ele>1418.4</ele>
        <time>2022-09-25T07:22:02Z</time>
      </trkpt>
      <trkpt lat="42.92733" lon="0.31188">
        <ele>1418.6</ele>
        <time>2022-09-25T07:22:03Z</time>
      </trkpt>
      <trkpt lat="42.92733" lon="0.31193">
        <ele>1419</ele>
        <time>2022-09-25T07:22:05Z</time>
      </trkpt>
      <trkpt lat="42.92733" lon="0.31195">
        <ele>1419.4</ele>
        <time>2022-09-25T07:22:06Z</time>
      </trkpt>
      <trkpt lat="42.92735" lon="0.31204">
        <ele>1419.8</ele>
        <time>2022-09-25T07:22:09Z</time>
      </trkpt>
      <trkpt lat="42.92736" lon="0.31211">
        <ele>1420.2</ele>
        <time>2022-09-25T07:22:11Z</time>
      </trkpt>
      <trkpt lat="42.92738" lon="0.31229">
        <ele>1421.2</ele>
        <time>2022-09-25T07:22:17Z</time>
      </trkpt>
      <trkpt lat="42.92739" lon="0.31232">
        <ele>1421.4</ele>
        <time>2022-09-25T07:22:18Z</time>
      </trkpt>
      <trkpt lat="42.92739" lon="0.31236">
        <ele>1421.8</ele>
        <time>2022-09-25T07:22:20Z</time>
      </trkpt>
      <trkpt lat="42.92743" lon="0.31245">
        <ele>1422.2</ele>
        <time>2022-09-25T07:22:23Z</time>
      </trkpt>
      <trkpt lat="42.92743" lon="0.31247">
        <ele>1422.4</ele>
        <time>2022-09-25T07:22:24Z</time>
      </trkpt>
      <trkpt lat="42.92746" lon="0.31264">
        <ele>1423.4</ele>
        <time>2022-09-25T07:22:32Z</time>
      </trkpt>
      <trkpt lat="42.92748" lon="0.31266">
        <ele>1423.6</ele>
        <time>2022-09-25T07:22:33Z</time>
      </trkpt>
      <trkpt lat="42.92749" lon="0.31267">
        <ele>1423.6</ele>
        <time>2022-09-25T07:22:34Z</time>
      </trkpt>
      <trkpt lat="42.92754" lon="0.31273">
        <ele>1423.8</ele>
        <time>2022-09-25T07:22:37Z</time>
      </trkpt>
      <trkpt lat="42.92757" lon="0.31277">
        <ele>1424</ele>
        <time>2022-09-25T07:22:39Z</time>
      </trkpt>
      <trkpt lat="42.9276" lon="0.31281">
        <ele>1424</ele>
        <time>2022-09-25T07:22:41Z</time>
      </trkpt>
      <trkpt lat="42.92768" lon="0.31296">
        <ele>1424.2</ele>
        <time>2022-09-25T07:22:47Z</time>
      </trkpt>
      <trkpt lat="42.92779" lon="0.31307">
        <ele>1424.2</ele>
        <time>2022-09-25T07:22:53Z</time>
      </trkpt>
      <trkpt lat="42.92782" lon="0.31309">
        <ele>1424.2</ele>
        <time>2022-09-25T07:22:54Z</time>
      </trkpt>
      <trkpt lat="42.92787" lon="0.31312">
        <ele>1424.4</ele>
        <time>2022-09-25T07:22:56Z</time>
      </trkpt>
      <trkpt lat="42.92788" lon="0.31312">
        <ele>1424.4</ele>
        <time>2022-09-25T07:22:57Z</time>
      </trkpt>
      <trkpt lat="42.92806" lon="0.31327">
        <ele>1424.4</ele>
        <time>2022-09-25T07:23:03Z</time>
      </trkpt>
      <trkpt lat="42.92816" lon="0.31332">
        <ele>1424.6</ele>
        <time>2022-09-25T07:23:08Z</time>
      </trkpt>
      <trkpt lat="42.92829" lon="0.3134">
        <ele>1424.8</ele>
        <time>2022-09-25T07:23:14Z</time>
      </trkpt>
      <trkpt lat="42.92839" lon="0.31352">
        <ele>1425</ele>
        <time>2022-09-25T07:23:21Z</time>
      </trkpt>
      <trkpt lat="42.92854" lon="0.31369">
        <ele>1425.4</ele>
        <time>2022-09-25T07:23:29Z</time>
      </trkpt>
      <trkpt lat="42.92866" lon="0.31378">
        <ele>1425.8</ele>
        <time>2022-09-25T07:23:34Z</time>
      </trkpt>
      <trkpt lat="42.92869" lon="0.31378">
        <ele>1425.8</ele>
        <time>2022-09-25T07:23:35Z</time>
      </trkpt>
      <trkpt lat="42.92872" lon="0.31378">
        <ele>1425.8</ele>
        <time>2022-09-25T07:23:36Z</time>
      </trkpt>
      <trkpt lat="42.92876" lon="0.31379">
        <ele>1425.8</ele>
        <time>2022-09-25T07:23:38Z</time>
      </trkpt>
      <trkpt lat="42.92881" lon="0.3138">
        <ele>1425.8</ele>
        <time>2022-09-25T07:23:40Z</time>
      </trkpt>
      <trkpt lat="42.92886" lon="0.31378">
        <ele>1426</ele>
        <time>2022-09-25T07:23:42Z</time>
      </trkpt>
      <trkpt lat="42.92903" lon="0.31372">
        <ele>1426.2</ele>
        <time>2022-09-25T07:23:48Z</time>
      </trkpt>
      <trkpt lat="42.92906" lon="0.31372">
        <ele>1426.2</ele>
        <time>2022-09-25T07:23:49Z</time>
      </trkpt>
      <trkpt lat="42.92909" lon="0.31372">
        <ele>1426.4</ele>
        <time>2022-09-25T07:23:50Z</time>
      </trkpt>
      <trkpt lat="42.92924" lon="0.31372">
        <ele>1426.8</ele>
        <time>2022-09-25T07:23:54Z</time>
      </trkpt>
      <trkpt lat="42.92939" lon="0.31379">
        <ele>1426.8</ele>
        <time>2022-09-25T07:23:58Z</time>
      </trkpt>
      <trkpt lat="42.92955" lon="0.31386">
        <ele>1427</ele>
        <time>2022-09-25T07:24:03Z</time>
      </trkpt>
      <trkpt lat="42.92959" lon="0.31388">
        <ele>1427</ele>
        <time>2022-09-25T07:24:04Z</time>
      </trkpt>
      <trkpt lat="42.9297" lon="0.31395">
        <ele>1426.4</ele>
        <time>2022-09-25T07:24:07Z</time>
      </trkpt>
      <trkpt lat="42.92978" lon="0.31402">
        <ele>1426.4</ele>
        <time>2022-09-25T07:24:09Z</time>
      </trkpt>
      <trkpt lat="42.92984" lon="0.31409">
        <ele>1426</ele>
        <time>2022-09-25T07:24:11Z</time>
      </trkpt>
      <trkpt lat="42.92987" lon="0.31413">
        <ele>1426</ele>
        <time>2022-09-25T07:24:12Z</time>
      </trkpt>
      <trkpt lat="42.92991" lon="0.31419">
        <ele>1425.8</ele>
        <time>2022-09-25T07:24:13Z</time>
      </trkpt>
      <trkpt lat="42.93001" lon="0.31431">
        <ele>1425.2</ele>
        <time>2022-09-25T07:24:15Z</time>
      </trkpt>
      <trkpt lat="42.93025" lon="0.31443">
        <ele>1424.6</ele>
        <time>2022-09-25T07:24:19Z</time>
      </trkpt>
      <trkpt lat="42.93033" lon="0.3145">
        <ele>1424</ele>
        <time>2022-09-25T07:24:21Z</time>
      </trkpt>
      <trkpt lat="42.93049" lon="0.31469">
        <ele>1422.8</ele>
        <time>2022-09-25T07:24:24Z</time>
      </trkpt>
      <trkpt lat="42.93053" lon="0.31471">
        <ele>1422.8</ele>
        <time>2022-09-25T07:24:25Z</time>
      </trkpt>
      <trkpt lat="42.93059" lon="0.3147">
        <ele>1422.4</ele>
        <time>2022-09-25T07:24:26Z</time>
      </trkpt>
      <trkpt lat="42.93067" lon="0.31468">
        <ele>1422</ele>
        <time>2022-09-25T07:24:27Z</time>
      </trkpt>
      <trkpt lat="42.93075" lon="0.31464">
        <ele>1421.8</ele>
        <time>2022-09-25T07:24:28Z</time>
      </trkpt>
      <trkpt lat="42.93081" lon="0.31459">
        <ele>1421.4</ele>
        <time>2022-09-25T07:24:29Z</time>
      </trkpt>
      <trkpt lat="42.9309" lon="0.31449">
        <ele>1420.2</ele>
        <time>2022-09-25T07:24:31Z</time>
      </trkpt>
      <trkpt lat="42.931" lon="0.31438">
        <ele>1419.4</ele>
        <time>2022-09-25T07:24:33Z</time>
      </trkpt>
      <trkpt lat="42.93104" lon="0.31433">
        <ele>1419</ele>
        <time>2022-09-25T07:24:34Z</time>
      </trkpt>
      <trkpt lat="42.93112" lon="0.31425">
        <ele>1418.4</ele>
        <time>2022-09-25T07:24:36Z</time>
      </trkpt>
      <trkpt lat="42.93125" lon="0.31415">
        <ele>1418</ele>
        <time>2022-09-25T07:24:38Z</time>
      </trkpt>
      <trkpt lat="42.9313" lon="0.3141">
        <ele>1418</ele>
        <time>2022-09-25T07:24:39Z</time>
      </trkpt>
      <trkpt lat="42.93133" lon="0.31404">
        <ele>1417.8</ele>
        <time>2022-09-25T07:24:40Z</time>
      </trkpt>
      <trkpt lat="42.93137" lon="0.3139">
        <ele>1417.6</ele>
        <time>2022-09-25T07:24:42Z</time>
      </trkpt>
      <trkpt lat="42.93141" lon="0.31368">
        <ele>1417</ele>
        <time>2022-09-25T07:24:45Z</time>
      </trkpt>
      <trkpt lat="42.93144" lon="0.31361">
        <ele>1415.8</ele>
        <time>2022-09-25T07:24:46Z</time>
      </trkpt>
      <trkpt lat="42.93148" lon="0.31355">
        <ele>1415.6</ele>
        <time>2022-09-25T07:24:47Z</time>
      </trkpt>
      <trkpt lat="42.93158" lon="0.31343">
        <ele>1414.8</ele>
        <time>2022-09-25T07:24:49Z</time>
      </trkpt>
      <trkpt lat="42.93164" lon="0.31337">
        <ele>1414.4</ele>
        <time>2022-09-25T07:24:50Z</time>
      </trkpt>
      <trkpt lat="42.93172" lon="0.31333">
        <ele>1414</ele>
        <time>2022-09-25T07:24:51Z</time>
      </trkpt>
      <trkpt lat="42.9318" lon="0.31328">
        <ele>1413.6</ele>
        <time>2022-09-25T07:24:52Z</time>
      </trkpt>
      <trkpt lat="42.93197" lon="0.31317">
        <ele>1412.8</ele>
        <time>2022-09-25T07:24:54Z</time>
      </trkpt>
      <trkpt lat="42.93214" lon="0.31305">
        <ele>1412.4</ele>
        <time>2022-09-25T07:24:56Z</time>
      </trkpt>
      <trkpt lat="42.93231" lon="0.31289">
        <ele>1410.8</ele>
        <time>2022-09-25T07:24:58Z</time>
      </trkpt>
      <trkpt lat="42.93247" lon="0.31275">
        <ele>1409.4</ele>
        <time>2022-09-25T07:25:00Z</time>
      </trkpt>
      <trkpt lat="42.93254" lon="0.31269">
        <ele>1408</ele>
        <time>2022-09-25T07:25:01Z</time>
      </trkpt>
      <trkpt lat="42.93261" lon="0.31262">
        <ele>1407.8</ele>
        <time>2022-09-25T07:25:02Z</time>
      </trkpt>
      <trkpt lat="42.93268" lon="0.31256">
        <ele>1406</ele>
        <time>2022-09-25T07:25:03Z</time>
      </trkpt>
      <trkpt lat="42.93276" lon="0.31249">
        <ele>1405.4</ele>
        <time>2022-09-25T07:25:04Z</time>
      </trkpt>
      <trkpt lat="42.93284" lon="0.31239">
        <ele>1404.6</ele>
        <time>2022-09-25T07:25:05Z</time>
      </trkpt>
      <trkpt lat="42.93296" lon="0.31222">
        <ele>1403.2</ele>
        <time>2022-09-25T07:25:07Z</time>
      </trkpt>
      <trkpt lat="42.93302" lon="0.31211">
        <ele>1402.6</ele>
        <time>2022-09-25T07:25:08Z</time>
      </trkpt>
      <trkpt lat="42.93306" lon="0.31204">
        <ele>1401.4</ele>
        <time>2022-09-25T07:25:09Z</time>
      </trkpt>
      <trkpt lat="42.93316" lon="0.31191">
        <ele>1399.8</ele>
        <time>2022-09-25T07:25:11Z</time>
      </trkpt>
      <trkpt lat="42.93321" lon="0.31183">
        <ele>1399.4</ele>
        <time>2022-09-25T07:25:12Z</time>
      </trkpt>
      <trkpt lat="42.93324" lon="0.31176">
        <ele>1398.6</ele>
        <time>2022-09-25T07:25:13Z</time>
      </trkpt>
      <trkpt lat="42.93327" lon="0.31165">
        <ele>1397.4</ele>
        <time>2022-09-25T07:25:15Z</time>
      </trkpt>
      <trkpt lat="42.93333" lon="0.31141">
        <ele>1396.8</ele>
        <time>2022-09-25T07:25:20Z</time>
      </trkpt>
      <trkpt lat="42.93335" lon="0.31111">
        <ele>1397.6</ele>
        <time>2022-09-25T07:25:27Z</time>
      </trkpt>
      <trkpt lat="42.93338" lon="0.31096">
        <ele>1398.4</ele>
        <time>2022-09-25T07:25:32Z</time>
      </trkpt>
      <trkpt lat="42.93338" lon="0.31094">
        <ele>1398.6</ele>
        <time>2022-09-25T07:25:33Z</time>
      </trkpt>
      <trkpt lat="42.93344" lon="0.31086">
        <ele>1399.4</ele>
        <time>2022-09-25T07:25:37Z</time>
      </trkpt>
      <trkpt lat="42.93345" lon="0.31084">
        <ele>1399.6</ele>
        <time>2022-09-25T07:25:38Z</time>
      </trkpt>
      <trkpt lat="42.93358" lon="0.31079">
        <ele>1400.8</ele>
        <time>2022-09-25T07:25:44Z</time>
      </trkpt>
      <trkpt lat="42.93369" lon="0.3108">
        <ele>1401.8</ele>
        <time>2022-09-25T07:25:49Z</time>
      </trkpt>
      <trkpt lat="42.93381" lon="0.3109">
        <ele>1402.8</ele>
        <time>2022-09-25T07:25:56Z</time>
      </trkpt>
      <trkpt lat="42.93383" lon="0.31092">
        <ele>1403.2</ele>
        <time>2022-09-25T07:25:57Z</time>
      </trkpt>
      <trkpt lat="42.93387" lon="0.31099">
        <ele>1403.8</ele>
        <time>2022-09-25T07:26:00Z</time>
      </trkpt>
      <trkpt lat="42.93391" lon="0.31108">
        <ele>1404.2</ele>
        <time>2022-09-25T07:26:04Z</time>
      </trkpt>
      <trkpt lat="42.93395" lon="0.31116">
        <ele>1405</ele>
        <time>2022-09-25T07:26:08Z</time>
      </trkpt>
      <trkpt lat="42.93398" lon="0.31123">
        <ele>1406</ele>
        <time>2022-09-25T07:26:11Z</time>
      </trkpt>
      <trkpt lat="42.93398" lon="0.31126">
        <ele>1406.2</ele>
        <time>2022-09-25T07:26:12Z</time>
      </trkpt>
      <trkpt lat="42.93403" lon="0.31139">
        <ele>1407.2</ele>
        <time>2022-09-25T07:26:17Z</time>
      </trkpt>
      <trkpt lat="42.93405" lon="0.31146">
        <ele>1407.4</ele>
        <time>2022-09-25T07:26:20Z</time>
      </trkpt>
      <trkpt lat="42.93407" lon="0.31154">
        <ele>1408.2</ele>
        <time>2022-09-25T07:26:23Z</time>
      </trkpt>
      <trkpt lat="42.93409" lon="0.31163">
        <ele>1408.6</ele>
        <time>2022-09-25T07:26:26Z</time>
      </trkpt>
      <trkpt lat="42.93413" lon="0.31172">
        <ele>1409.4</ele>
        <time>2022-09-25T07:26:30Z</time>
      </trkpt>
      <trkpt lat="42.93414" lon="0.31175">
        <ele>1409.4</ele>
        <time>2022-09-25T07:26:31Z</time>
      </trkpt>
      <trkpt lat="42.93418" lon="0.3119">
        <ele>1410.4</ele>
        <time>2022-09-25T07:26:36Z</time>
      </trkpt>
      <trkpt lat="42.93422" lon="0.31199">
        <ele>1410.8</ele>
        <time>2022-09-25T07:26:39Z</time>
      </trkpt>
      <trkpt lat="42.93424" lon="0.31205">
        <ele>1411</ele>
        <time>2022-09-25T07:26:41Z</time>
      </trkpt>
      <trkpt lat="42.93425" lon="0.31209">
        <ele>1411.4</ele>
        <time>2022-09-25T07:26:42Z</time>
      </trkpt>
      <trkpt lat="42.93426" lon="0.31215">
        <ele>1411.6</ele>
        <time>2022-09-25T07:26:44Z</time>
      </trkpt>
      <trkpt lat="42.93428" lon="0.31226">
        <ele>1412.4</ele>
        <time>2022-09-25T07:26:48Z</time>
      </trkpt>
      <trkpt lat="42.9343" lon="0.31229">
        <ele>1412.6</ele>
        <time>2022-09-25T07:26:50Z</time>
      </trkpt>
      <trkpt lat="42.93433" lon="0.31239">
        <ele>1413.4</ele>
        <time>2022-09-25T07:26:54Z</time>
      </trkpt>
      <trkpt lat="42.93435" lon="0.31246">
        <ele>1414.2</ele>
        <time>2022-09-25T07:26:57Z</time>
      </trkpt>
      <trkpt lat="42.93436" lon="0.31248">
        <ele>1414.2</ele>
        <time>2022-09-25T07:26:58Z</time>
      </trkpt>
      <trkpt lat="42.93437" lon="0.3125">
        <ele>1414.6</ele>
        <time>2022-09-25T07:26:59Z</time>
      </trkpt>
      <trkpt lat="42.93438" lon="0.31252">
        <ele>1414.8</ele>
        <time>2022-09-25T07:27:00Z</time>
      </trkpt>
      <trkpt lat="42.93439" lon="0.31255">
        <ele>1415</ele>
        <time>2022-09-25T07:27:01Z</time>
      </trkpt>
      <trkpt lat="42.93444" lon="0.31266">
        <ele>1415.8</ele>
        <time>2022-09-25T07:27:06Z</time>
      </trkpt>
      <trkpt lat="42.93449" lon="0.31274">
        <ele>1416.6</ele>
        <time>2022-09-25T07:27:10Z</time>
      </trkpt>
      <trkpt lat="42.9345" lon="0.31277">
        <ele>1417</ele>
        <time>2022-09-25T07:27:11Z</time>
      </trkpt>
      <trkpt lat="42.93453" lon="0.31282">
        <ele>1417.6</ele>
        <time>2022-09-25T07:27:13Z</time>
      </trkpt>
      <trkpt lat="42.93454" lon="0.31284">
        <ele>1417.8</ele>
        <time>2022-09-25T07:27:14Z</time>
      </trkpt>
      <trkpt lat="42.93457" lon="0.31286">
        <ele>1417.8</ele>
        <time>2022-09-25T07:27:15Z</time>
      </trkpt>
      <trkpt lat="42.93465" lon="0.31298">
        <ele>1418.2</ele>
        <time>2022-09-25T07:27:19Z</time>
      </trkpt>
      <trkpt lat="42.93471" lon="0.31313">
        <ele>1419.4</ele>
        <time>2022-09-25T07:27:24Z</time>
      </trkpt>
      <trkpt lat="42.93473" lon="0.31316">
        <ele>1419.4</ele>
        <time>2022-09-25T07:27:25Z</time>
      </trkpt>
      <trkpt lat="42.93477" lon="0.31329">
        <ele>1420.4</ele>
        <time>2022-09-25T07:27:30Z</time>
      </trkpt>
      <trkpt lat="42.93482" lon="0.31349">
        <ele>1421.4</ele>
        <time>2022-09-25T07:27:37Z</time>
      </trkpt>
      <trkpt lat="42.93482" lon="0.31352">
        <ele>1421.8</ele>
        <time>2022-09-25T07:27:38Z</time>
      </trkpt>
      <trkpt lat="42.93485" lon="0.31369">
        <ele>1423</ele>
        <time>2022-09-25T07:27:44Z</time>
      </trkpt>
      <trkpt lat="42.93485" lon="0.31379">
        <ele>1423.6</ele>
        <time>2022-09-25T07:27:48Z</time>
      </trkpt>
      <trkpt lat="42.93485" lon="0.31382">
        <ele>1424</ele>
        <time>2022-09-25T07:27:49Z</time>
      </trkpt>
      <trkpt lat="42.93485" lon="0.31385">
        <ele>1424.2</ele>
        <time>2022-09-25T07:27:50Z</time>
      </trkpt>
      <trkpt lat="42.93488" lon="0.31395">
        <ele>1425.2</ele>
        <time>2022-09-25T07:27:54Z</time>
      </trkpt>
      <trkpt lat="42.93486" lon="0.31408">
        <ele>1426.2</ele>
        <time>2022-09-25T07:27:59Z</time>
      </trkpt>
      <trkpt lat="42.93485" lon="0.3141">
        <ele>1426.2</ele>
        <time>2022-09-25T07:28:00Z</time>
      </trkpt>
      <trkpt lat="42.93484" lon="0.31415">
        <ele>1426.8</ele>
        <time>2022-09-25T07:28:03Z</time>
      </trkpt>
      <trkpt lat="42.93483" lon="0.3142">
        <ele>1427.2</ele>
        <time>2022-09-25T07:28:05Z</time>
      </trkpt>
      <trkpt lat="42.93482" lon="0.31422">
        <ele>1427.2</ele>
        <time>2022-09-25T07:28:06Z</time>
      </trkpt>
      <trkpt lat="42.93482" lon="0.31424">
        <ele>1427.6</ele>
        <time>2022-09-25T07:28:07Z</time>
      </trkpt>
      <trkpt lat="42.9348" lon="0.31428">
        <ele>1428.2</ele>
        <time>2022-09-25T07:28:09Z</time>
      </trkpt>
      <trkpt lat="42.9348" lon="0.31431">
        <ele>1428.2</ele>
        <time>2022-09-25T07:28:10Z</time>
      </trkpt>
      <trkpt lat="42.9348" lon="0.31436">
        <ele>1428.4</ele>
        <time>2022-09-25T07:28:12Z</time>
      </trkpt>
      <trkpt lat="42.93481" lon="0.3144">
        <ele>1428.8</ele>
        <time>2022-09-25T07:28:13Z</time>
      </trkpt>
      <trkpt lat="42.93481" lon="0.31443">
        <ele>1428.8</ele>
        <time>2022-09-25T07:28:14Z</time>
      </trkpt>
      <trkpt lat="42.9348" lon="0.31454">
        <ele>1429.8</ele>
        <time>2022-09-25T07:28:18Z</time>
      </trkpt>
      <trkpt lat="42.93479" lon="0.31456">
        <ele>1429.8</ele>
        <time>2022-09-25T07:28:19Z</time>
      </trkpt>
      <trkpt lat="42.93478" lon="0.31459">
        <ele>1430</ele>
        <time>2022-09-25T07:28:20Z</time>
      </trkpt>
      <trkpt lat="42.93475" lon="0.31466">
        <ele>1430.6</ele>
        <time>2022-09-25T07:28:22Z</time>
      </trkpt>
      <trkpt lat="42.93474" lon="0.31472">
        <ele>1430.6</ele>
        <time>2022-09-25T07:28:24Z</time>
      </trkpt>
      <trkpt lat="42.93474" lon="0.31477">
        <ele>1431</ele>
        <time>2022-09-25T07:28:26Z</time>
      </trkpt>
      <trkpt lat="42.93474" lon="0.3148">
        <ele>1431</ele>
        <time>2022-09-25T07:28:27Z</time>
      </trkpt>
      <trkpt lat="42.93477" lon="0.31485">
        <ele>1431.6</ele>
        <time>2022-09-25T07:28:29Z</time>
      </trkpt>
      <trkpt lat="42.93479" lon="0.31489">
        <ele>1432</ele>
        <time>2022-09-25T07:28:30Z</time>
      </trkpt>
      <trkpt lat="42.93481" lon="0.31499">
        <ele>1432.6</ele>
        <time>2022-09-25T07:28:33Z</time>
      </trkpt>
      <trkpt lat="42.93482" lon="0.31502">
        <ele>1432.8</ele>
        <time>2022-09-25T07:28:34Z</time>
      </trkpt>
      <trkpt lat="42.93482" lon="0.31509">
        <ele>1433</ele>
        <time>2022-09-25T07:28:36Z</time>
      </trkpt>
      <trkpt lat="42.93479" lon="0.3152">
        <ele>1433.8</ele>
        <time>2022-09-25T07:28:39Z</time>
      </trkpt>
      <trkpt lat="42.9348" lon="0.31524">
        <ele>1434.4</ele>
        <time>2022-09-25T07:28:41Z</time>
      </trkpt>
      <trkpt lat="42.9348" lon="0.31527">
        <ele>1434.6</ele>
        <time>2022-09-25T07:28:42Z</time>
      </trkpt>
      <trkpt lat="42.9348" lon="0.31529">
        <ele>1434.8</ele>
        <time>2022-09-25T07:28:43Z</time>
      </trkpt>
      <trkpt lat="42.93481" lon="0.31538">
        <ele>1435.2</ele>
        <time>2022-09-25T07:28:46Z</time>
      </trkpt>
      <trkpt lat="42.9348" lon="0.31545">
        <ele>1435.6</ele>
        <time>2022-09-25T07:28:49Z</time>
      </trkpt>
      <trkpt lat="42.93482" lon="0.31551">
        <ele>1436</ele>
        <time>2022-09-25T07:28:51Z</time>
      </trkpt>
      <trkpt lat="42.93482" lon="0.31553">
        <ele>1436.2</ele>
        <time>2022-09-25T07:28:52Z</time>
      </trkpt>
      <trkpt lat="42.93485" lon="0.31573">
        <ele>1437</ele>
        <time>2022-09-25T07:28:59Z</time>
      </trkpt>
      <trkpt lat="42.93482" lon="0.31591">
        <ele>1438.4</ele>
        <time>2022-09-25T07:29:05Z</time>
      </trkpt>
      <trkpt lat="42.93482" lon="0.31594">
        <ele>1438.4</ele>
        <time>2022-09-25T07:29:06Z</time>
      </trkpt>
      <trkpt lat="42.93479" lon="0.31598">
        <ele>1438.8</ele>
        <time>2022-09-25T07:29:08Z</time>
      </trkpt>
      <trkpt lat="42.93479" lon="0.316">
        <ele>1439</ele>
        <time>2022-09-25T07:29:09Z</time>
      </trkpt>
      <trkpt lat="42.93479" lon="0.31603">
        <ele>1439.2</ele>
        <time>2022-09-25T07:29:10Z</time>
      </trkpt>
      <trkpt lat="42.93479" lon="0.31605">
        <ele>1439.4</ele>
        <time>2022-09-25T07:29:11Z</time>
      </trkpt>
      <trkpt lat="42.93478" lon="0.3161">
        <ele>1439.6</ele>
        <time>2022-09-25T07:29:13Z</time>
      </trkpt>
      <trkpt lat="42.93476" lon="0.31624">
        <ele>1440.4</ele>
        <time>2022-09-25T07:29:18Z</time>
      </trkpt>
      <trkpt lat="42.93473" lon="0.31629">
        <ele>1441</ele>
        <time>2022-09-25T07:29:21Z</time>
      </trkpt>
      <trkpt lat="42.93473" lon="0.31632">
        <ele>1441.2</ele>
        <time>2022-09-25T07:29:22Z</time>
      </trkpt>
      <trkpt lat="42.93473" lon="0.31637">
        <ele>1441.6</ele>
        <time>2022-09-25T07:29:24Z</time>
      </trkpt>
      <trkpt lat="42.93472" lon="0.31644">
        <ele>1442</ele>
        <time>2022-09-25T07:29:27Z</time>
      </trkpt>
      <trkpt lat="42.93471" lon="0.31648">
        <ele>1442.4</ele>
        <time>2022-09-25T07:29:29Z</time>
      </trkpt>
      <trkpt lat="42.93471" lon="0.3165">
        <ele>1442.8</ele>
        <time>2022-09-25T07:29:30Z</time>
      </trkpt>
      <trkpt lat="42.93466" lon="0.31657">
        <ele>1443.6</ele>
        <time>2022-09-25T07:29:33Z</time>
      </trkpt>
      <trkpt lat="42.93465" lon="0.3166">
        <ele>1444</ele>
        <time>2022-09-25T07:29:34Z</time>
      </trkpt>
      <trkpt lat="42.93463" lon="0.31662">
        <ele>1444.2</ele>
        <time>2022-09-25T07:29:35Z</time>
      </trkpt>
      <trkpt lat="42.93459" lon="0.31669">
        <ele>1444.8</ele>
        <time>2022-09-25T07:29:38Z</time>
      </trkpt>
      <trkpt lat="42.93456" lon="0.31676">
        <ele>1445.2</ele>
        <time>2022-09-25T07:29:40Z</time>
      </trkpt>
      <trkpt lat="42.93454" lon="0.31684">
        <ele>1445.6</ele>
        <time>2022-09-25T07:29:44Z</time>
      </trkpt>
      <trkpt lat="42.93452" lon="0.31691">
        <ele>1446</ele>
        <time>2022-09-25T07:29:47Z</time>
      </trkpt>
      <trkpt lat="42.93452" lon="0.31693">
        <ele>1446.2</ele>
        <time>2022-09-25T07:29:48Z</time>
      </trkpt>
      <trkpt lat="42.93452" lon="0.31696">
        <ele>1446.4</ele>
        <time>2022-09-25T07:29:49Z</time>
      </trkpt>
      <trkpt lat="42.93453" lon="0.31699">
        <ele>1446.6</ele>
        <time>2022-09-25T07:29:50Z</time>
      </trkpt>
      <trkpt lat="42.93454" lon="0.31705">
        <ele>1447</ele>
        <time>2022-09-25T07:29:52Z</time>
      </trkpt>
      <trkpt lat="42.93457" lon="0.31713">
        <ele>1447.8</ele>
        <time>2022-09-25T07:29:55Z</time>
      </trkpt>
      <trkpt lat="42.93458" lon="0.31717">
        <ele>1448.2</ele>
        <time>2022-09-25T07:29:57Z</time>
      </trkpt>
      <trkpt lat="42.93462" lon="0.31729">
        <ele>1449</ele>
        <time>2022-09-25T07:30:01Z</time>
      </trkpt>
      <trkpt lat="42.93464" lon="0.31734">
        <ele>1449.4</ele>
        <time>2022-09-25T07:30:03Z</time>
      </trkpt>
      <trkpt lat="42.93463" lon="0.31745">
        <ele>1450</ele>
        <time>2022-09-25T07:30:07Z</time>
      </trkpt>
      <trkpt lat="42.93462" lon="0.31751">
        <ele>1450.6</ele>
        <time>2022-09-25T07:30:09Z</time>
      </trkpt>
      <trkpt lat="42.93462" lon="0.31763">
        <ele>1451.2</ele>
        <time>2022-09-25T07:30:14Z</time>
      </trkpt>
      <trkpt lat="42.93462" lon="0.31769">
        <ele>1451.6</ele>
        <time>2022-09-25T07:30:16Z</time>
      </trkpt>
      <trkpt lat="42.93465" lon="0.31779">
        <ele>1452.2</ele>
        <time>2022-09-25T07:30:20Z</time>
      </trkpt>
      <trkpt lat="42.93469" lon="0.31786">
        <ele>1452.6</ele>
        <time>2022-09-25T07:30:23Z</time>
      </trkpt>
      <trkpt lat="42.93471" lon="0.31791">
        <ele>1452.8</ele>
        <time>2022-09-25T07:30:25Z</time>
      </trkpt>
      <trkpt lat="42.93472" lon="0.31794">
        <ele>1453.2</ele>
        <time>2022-09-25T07:30:26Z</time>
      </trkpt>
      <trkpt lat="42.93474" lon="0.31799">
        <ele>1453.6</ele>
        <time>2022-09-25T07:30:28Z</time>
      </trkpt>
      <trkpt lat="42.93477" lon="0.3181">
        <ele>1454.2</ele>
        <time>2022-09-25T07:30:32Z</time>
      </trkpt>
      <trkpt lat="42.93482" lon="0.3182">
        <ele>1454.8</ele>
        <time>2022-09-25T07:30:37Z</time>
      </trkpt>
      <trkpt lat="42.93487" lon="0.31828">
        <ele>1455.8</ele>
        <time>2022-09-25T07:30:42Z</time>
      </trkpt>
      <trkpt lat="42.93488" lon="0.31829">
        <ele>1456</ele>
        <time>2022-09-25T07:30:43Z</time>
      </trkpt>
      <trkpt lat="42.93496" lon="0.31842">
        <ele>1457</ele>
        <time>2022-09-25T07:30:50Z</time>
      </trkpt>
      <trkpt lat="42.93501" lon="0.31852">
        <ele>1458.2</ele>
        <time>2022-09-25T07:30:55Z</time>
      </trkpt>
      <trkpt lat="42.93504" lon="0.31855">
        <ele>1458.6</ele>
        <time>2022-09-25T07:30:57Z</time>
      </trkpt>
      <trkpt lat="42.93511" lon="0.31864">
        <ele>1459.2</ele>
        <time>2022-09-25T07:31:01Z</time>
      </trkpt>
      <trkpt lat="42.93517" lon="0.31871">
        <ele>1459.6</ele>
        <time>2022-09-25T07:31:04Z</time>
      </trkpt>
      <trkpt lat="42.93521" lon="0.31878">
        <ele>1460.4</ele>
        <time>2022-09-25T07:31:07Z</time>
      </trkpt>
      <trkpt lat="42.93527" lon="0.3189">
        <ele>1461.2</ele>
        <time>2022-09-25T07:31:12Z</time>
      </trkpt>
      <trkpt lat="42.9353" lon="0.31895">
        <ele>1461.6</ele>
        <time>2022-09-25T07:31:14Z</time>
      </trkpt>
      <trkpt lat="42.93534" lon="0.31908">
        <ele>1462.8</ele>
        <time>2022-09-25T07:31:19Z</time>
      </trkpt>
      <trkpt lat="42.93536" lon="0.31911">
        <ele>1462.8</ele>
        <time>2022-09-25T07:31:20Z</time>
      </trkpt>
      <trkpt lat="42.93547" lon="0.3193">
        <ele>1463.4</ele>
        <time>2022-09-25T07:31:27Z</time>
      </trkpt>
      <trkpt lat="42.9355" lon="0.31938">
        <ele>1463.8</ele>
        <time>2022-09-25T07:31:30Z</time>
      </trkpt>
      <trkpt lat="42.93555" lon="0.31949">
        <ele>1464.2</ele>
        <time>2022-09-25T07:31:34Z</time>
      </trkpt>
      <trkpt lat="42.93562" lon="0.31958">
        <ele>1464.4</ele>
        <time>2022-09-25T07:31:38Z</time>
      </trkpt>
      <trkpt lat="42.93574" lon="0.31971">
        <ele>1464.6</ele>
        <time>2022-09-25T07:31:43Z</time>
      </trkpt>
      <trkpt lat="42.9358" lon="0.31978">
        <ele>1464.8</ele>
        <time>2022-09-25T07:31:46Z</time>
      </trkpt>
      <trkpt lat="42.93589" lon="0.31986">
        <ele>1465</ele>
        <time>2022-09-25T07:31:50Z</time>
      </trkpt>
      <trkpt lat="42.93603" lon="0.31997">
        <ele>1465.6</ele>
        <time>2022-09-25T07:31:57Z</time>
      </trkpt>
      <trkpt lat="42.93608" lon="0.31999">
        <ele>1465.8</ele>
        <time>2022-09-25T07:31:59Z</time>
      </trkpt>
      <trkpt lat="42.93624" lon="0.32011">
        <ele>1466.2</ele>
        <time>2022-09-25T07:32:06Z</time>
      </trkpt>
      <trkpt lat="42.93635" lon="0.32025">
        <ele>1466.4</ele>
        <time>2022-09-25T07:32:13Z</time>
      </trkpt>
      <trkpt lat="42.93641" lon="0.32028">
        <ele>1466.8</ele>
        <time>2022-09-25T07:32:16Z</time>
      </trkpt>
      <trkpt lat="42.93648" lon="0.32028">
        <ele>1467</ele>
        <time>2022-09-25T07:32:19Z</time>
      </trkpt>
      <trkpt lat="42.93652" lon="0.32027">
        <ele>1467.4</ele>
        <time>2022-09-25T07:32:21Z</time>
      </trkpt>
      <trkpt lat="42.93656" lon="0.32024">
        <ele>1467.6</ele>
        <time>2022-09-25T07:32:23Z</time>
      </trkpt>
      <trkpt lat="42.93658" lon="0.32022">
        <ele>1467.8</ele>
        <time>2022-09-25T07:32:24Z</time>
      </trkpt>
      <trkpt lat="42.93673" lon="0.32016">
        <ele>1468.8</ele>
        <time>2022-09-25T07:32:30Z</time>
      </trkpt>
      <trkpt lat="42.93675" lon="0.32015">
        <ele>1468.8</ele>
        <time>2022-09-25T07:32:31Z</time>
      </trkpt>
      <trkpt lat="42.93687" lon="0.3201">
        <ele>1469.4</ele>
        <time>2022-09-25T07:32:36Z</time>
      </trkpt>
      <trkpt lat="42.93696" lon="0.32006">
        <ele>1470</ele>
        <time>2022-09-25T07:32:40Z</time>
      </trkpt>
      <trkpt lat="42.93705" lon="0.32">
        <ele>1470.4</ele>
        <time>2022-09-25T07:32:44Z</time>
      </trkpt>
      <trkpt lat="42.93715" lon="0.31995">
        <ele>1471</ele>
        <time>2022-09-25T07:32:49Z</time>
      </trkpt>
      <trkpt lat="42.9372" lon="0.31994">
        <ele>1471.4</ele>
        <time>2022-09-25T07:32:51Z</time>
      </trkpt>
      <trkpt lat="42.93734" lon="0.3199">
        <ele>1471.8</ele>
        <time>2022-09-25T07:32:57Z</time>
      </trkpt>
      <trkpt lat="42.93737" lon="0.31989">
        <ele>1472.2</ele>
        <time>2022-09-25T07:32:59Z</time>
      </trkpt>
      <trkpt lat="42.93748" lon="0.31988">
        <ele>1472.8</ele>
        <time>2022-09-25T07:33:04Z</time>
      </trkpt>
      <trkpt lat="42.9375" lon="0.31989">
        <ele>1472.8</ele>
        <time>2022-09-25T07:33:05Z</time>
      </trkpt>
      <trkpt lat="42.93756" lon="0.31988">
        <ele>1473</ele>
        <time>2022-09-25T07:33:08Z</time>
      </trkpt>
      <trkpt lat="42.93758" lon="0.31988">
        <ele>1473.2</ele>
        <time>2022-09-25T07:33:09Z</time>
      </trkpt>
      <trkpt lat="42.93767" lon="0.31989">
        <ele>1474</ele>
        <time>2022-09-25T07:33:13Z</time>
      </trkpt>
      <trkpt lat="42.93774" lon="0.31992">
        <ele>1474.4</ele>
        <time>2022-09-25T07:33:17Z</time>
      </trkpt>
      <trkpt lat="42.93778" lon="0.31995">
        <ele>1474.6</ele>
        <time>2022-09-25T07:33:19Z</time>
      </trkpt>
      <trkpt lat="42.93792" lon="0.32003">
        <ele>1475.4</ele>
        <time>2022-09-25T07:33:23Z</time>
      </trkpt>
      <trkpt lat="42.938" lon="0.32004">
        <ele>1475.8</ele>
        <time>2022-09-25T07:33:27Z</time>
      </trkpt>
      <trkpt lat="42.93808" lon="0.32011">
        <ele>1476.4</ele>
        <time>2022-09-25T07:33:31Z</time>
      </trkpt>
      <trkpt lat="42.93812" lon="0.32017">
        <ele>1476.8</ele>
        <time>2022-09-25T07:33:33Z</time>
      </trkpt>
      <trkpt lat="42.93825" lon="0.32025">
        <ele>1477.4</ele>
        <time>2022-09-25T07:33:38Z</time>
      </trkpt>
      <trkpt lat="42.93829" lon="0.32028">
        <ele>1477.8</ele>
        <time>2022-09-25T07:33:40Z</time>
      </trkpt>
      <trkpt lat="42.93831" lon="0.32029">
        <ele>1477.8</ele>
        <time>2022-09-25T07:33:41Z</time>
      </trkpt>
      <trkpt lat="42.93839" lon="0.32035">
        <ele>1478.6</ele>
        <time>2022-09-25T07:33:45Z</time>
      </trkpt>
      <trkpt lat="42.93842" lon="0.32041">
        <ele>1478.8</ele>
        <time>2022-09-25T07:33:47Z</time>
      </trkpt>
      <trkpt lat="42.93848" lon="0.32048">
        <ele>1479.6</ele>
        <time>2022-09-25T07:33:50Z</time>
      </trkpt>
      <trkpt lat="42.93856" lon="0.32058">
        <ele>1480.6</ele>
        <time>2022-09-25T07:33:55Z</time>
      </trkpt>
      <trkpt lat="42.93858" lon="0.32061">
        <ele>1480.8</ele>
        <time>2022-09-25T07:33:56Z</time>
      </trkpt>
      <trkpt lat="42.93864" lon="0.32075">
        <ele>1481.8</ele>
        <time>2022-09-25T07:34:01Z</time>
      </trkpt>
      <trkpt lat="42.93866" lon="0.32078">
        <ele>1481.8</ele>
        <time>2022-09-25T07:34:02Z</time>
      </trkpt>
      <trkpt lat="42.93874" lon="0.32093">
        <ele>1482.4</ele>
        <time>2022-09-25T07:34:07Z</time>
      </trkpt>
      <trkpt lat="42.93883" lon="0.32108">
        <ele>1482.6</ele>
        <time>2022-09-25T07:34:12Z</time>
      </trkpt>
      <trkpt lat="42.93884" lon="0.32111">
        <ele>1482.6</ele>
        <time>2022-09-25T07:34:13Z</time>
      </trkpt>
      <trkpt lat="42.93886" lon="0.32113">
        <ele>1482.8</ele>
        <time>2022-09-25T07:34:14Z</time>
      </trkpt>
      <trkpt lat="42.93892" lon="0.32126">
        <ele>1483.2</ele>
        <time>2022-09-25T07:34:19Z</time>
      </trkpt>
      <trkpt lat="42.93903" lon="0.32138">
        <ele>1483.8</ele>
        <time>2022-09-25T07:34:26Z</time>
      </trkpt>
      <trkpt lat="42.93918" lon="0.32153">
        <ele>1484.6</ele>
        <time>2022-09-25T07:34:34Z</time>
      </trkpt>
      <trkpt lat="42.93921" lon="0.32159">
        <ele>1484.8</ele>
        <time>2022-09-25T07:34:36Z</time>
      </trkpt>
      <trkpt lat="42.93923" lon="0.32161">
        <ele>1485.2</ele>
        <time>2022-09-25T07:34:37Z</time>
      </trkpt>
      <trkpt lat="42.93927" lon="0.32164">
        <ele>1485.6</ele>
        <time>2022-09-25T07:34:39Z</time>
      </trkpt>
      <trkpt lat="42.93932" lon="0.32167">
        <ele>1486</ele>
        <time>2022-09-25T07:34:41Z</time>
      </trkpt>
      <trkpt lat="42.93943" lon="0.3217">
        <ele>1486.6</ele>
        <time>2022-09-25T07:34:45Z</time>
      </trkpt>
      <trkpt lat="42.93949" lon="0.32172">
        <ele>1487</ele>
        <time>2022-09-25T07:34:48Z</time>
      </trkpt>
      <trkpt lat="42.93952" lon="0.32171">
        <ele>1487.2</ele>
        <time>2022-09-25T07:34:50Z</time>
      </trkpt>
      <trkpt lat="42.93963" lon="0.32173">
        <ele>1488.2</ele>
        <time>2022-09-25T07:34:55Z</time>
      </trkpt>
      <trkpt lat="42.93967" lon="0.32173">
        <ele>1488.6</ele>
        <time>2022-09-25T07:34:57Z</time>
      </trkpt>
      <trkpt lat="42.93979" lon="0.32175">
        <ele>1489.2</ele>
        <time>2022-09-25T07:35:02Z</time>
      </trkpt>
      <trkpt lat="42.93983" lon="0.32174">
        <ele>1489.6</ele>
        <time>2022-09-25T07:35:04Z</time>
      </trkpt>
      <trkpt lat="42.93993" lon="0.32175">
        <ele>1490.2</ele>
        <time>2022-09-25T07:35:09Z</time>
      </trkpt>
      <trkpt lat="42.93995" lon="0.32175">
        <ele>1490.2</ele>
        <time>2022-09-25T07:35:10Z</time>
      </trkpt>
      <trkpt lat="42.93997" lon="0.32174">
        <ele>1490.4</ele>
        <time>2022-09-25T07:35:11Z</time>
      </trkpt>
      <trkpt lat="42.94008" lon="0.32171">
        <ele>1491.2</ele>
        <time>2022-09-25T07:35:16Z</time>
      </trkpt>
      <trkpt lat="42.94012" lon="0.3217">
        <ele>1491.6</ele>
        <time>2022-09-25T07:35:18Z</time>
      </trkpt>
      <trkpt lat="42.94024" lon="0.32167">
        <ele>1492.6</ele>
        <time>2022-09-25T07:35:24Z</time>
      </trkpt>
      <trkpt lat="42.94026" lon="0.32166">
        <ele>1492.8</ele>
        <time>2022-09-25T07:35:25Z</time>
      </trkpt>
      <trkpt lat="42.94034" lon="0.32163">
        <ele>1493.6</ele>
        <time>2022-09-25T07:35:29Z</time>
      </trkpt>
      <trkpt lat="42.94042" lon="0.32162">
        <ele>1494.2</ele>
        <time>2022-09-25T07:35:33Z</time>
      </trkpt>
      <trkpt lat="42.94051" lon="0.32163">
        <ele>1494.8</ele>
        <time>2022-09-25T07:35:36Z</time>
      </trkpt>
      <trkpt lat="42.94063" lon="0.32164">
        <ele>1495.4</ele>
        <time>2022-09-25T07:35:41Z</time>
      </trkpt>
      <trkpt lat="42.9407" lon="0.32166">
        <ele>1495.8</ele>
        <time>2022-09-25T07:35:44Z</time>
      </trkpt>
      <trkpt lat="42.94078" lon="0.3217">
        <ele>1496.2</ele>
        <time>2022-09-25T07:35:48Z</time>
      </trkpt>
      <trkpt lat="42.94097" lon="0.32186">
        <ele>1496.8</ele>
        <time>2022-09-25T07:35:59Z</time>
      </trkpt>
      <trkpt lat="42.94108" lon="0.32206">
        <ele>1496.2</ele>
        <time>2022-09-25T07:36:05Z</time>
      </trkpt>
      <trkpt lat="42.94114" lon="0.3223">
        <ele>1496</ele>
        <time>2022-09-25T07:36:11Z</time>
      </trkpt>
      <trkpt lat="42.9412" lon="0.32262">
        <ele>1495.6</ele>
        <time>2022-09-25T07:36:17Z</time>
      </trkpt>
      <trkpt lat="42.94125" lon="0.32289">
        <ele>1495.2</ele>
        <time>2022-09-25T07:36:21Z</time>
      </trkpt>
      <trkpt lat="42.94127" lon="0.32302">
        <ele>1495</ele>
        <time>2022-09-25T07:36:23Z</time>
      </trkpt>
      <trkpt lat="42.94134" lon="0.3234">
        <ele>1494</ele>
        <time>2022-09-25T07:36:29Z</time>
      </trkpt>
      <trkpt lat="42.94135" lon="0.32349">
        <ele>1493.8</ele>
        <time>2022-09-25T07:36:31Z</time>
      </trkpt>
      <trkpt lat="42.94138" lon="0.32375">
        <ele>1493.2</ele>
        <time>2022-09-25T07:36:36Z</time>
      </trkpt>
      <trkpt lat="42.9414" lon="0.32391">
        <ele>1493</ele>
        <time>2022-09-25T07:36:39Z</time>
      </trkpt>
      <trkpt lat="42.94143" lon="0.32419">
        <ele>1492.8</ele>
        <time>2022-09-25T07:36:44Z</time>
      </trkpt>
      <trkpt lat="42.9415" lon="0.32475">
        <ele>1492</ele>
        <time>2022-09-25T07:36:54Z</time>
      </trkpt>
      <trkpt lat="42.94159" lon="0.32523">
        <ele>1491.2</ele>
        <time>2022-09-25T07:37:03Z</time>
      </trkpt>
      <trkpt lat="42.94167" lon="0.32555">
        <ele>1490.4</ele>
        <time>2022-09-25T07:37:09Z</time>
      </trkpt>
      <trkpt lat="42.94167" lon="0.3256">
        <ele>1490.4</ele>
        <time>2022-09-25T07:37:10Z</time>
      </trkpt>
      <trkpt lat="42.94168" lon="0.3257">
        <ele>1490.2</ele>
        <time>2022-09-25T07:37:12Z</time>
      </trkpt>
      <trkpt lat="42.94169" lon="0.32574">
        <ele>1490</ele>
        <time>2022-09-25T07:37:13Z</time>
      </trkpt>
      <trkpt lat="42.94173" lon="0.32588">
        <ele>1490</ele>
        <time>2022-09-25T07:37:16Z</time>
      </trkpt>
      <trkpt lat="42.9418" lon="0.32629">
        <ele>1489.4</ele>
        <time>2022-09-25T07:37:24Z</time>
      </trkpt>
      <trkpt lat="42.94184" lon="0.32643">
        <ele>1488.8</ele>
        <time>2022-09-25T07:37:27Z</time>
      </trkpt>
      <trkpt lat="42.94186" lon="0.32655">
        <ele>1488.6</ele>
        <time>2022-09-25T07:37:30Z</time>
      </trkpt>
      <trkpt lat="42.94196" lon="0.32677">
        <ele>1488.2</ele>
        <time>2022-09-25T07:37:36Z</time>
      </trkpt>
      <trkpt lat="42.94202" lon="0.32709">
        <ele>1487.8</ele>
        <time>2022-09-25T07:37:43Z</time>
      </trkpt>
      <trkpt lat="42.94207" lon="0.32731">
        <ele>1487.4</ele>
        <time>2022-09-25T07:37:49Z</time>
      </trkpt>
      <trkpt lat="42.94209" lon="0.32739">
        <ele>1487</ele>
        <time>2022-09-25T07:37:52Z</time>
      </trkpt>
      <trkpt lat="42.94209" lon="0.32744">
        <ele>1486.8</ele>
        <time>2022-09-25T07:37:54Z</time>
      </trkpt>
      <trkpt lat="42.9421" lon="0.32747">
        <ele>1486.6</ele>
        <time>2022-09-25T07:37:56Z</time>
      </trkpt>
      <trkpt lat="42.9421" lon="0.32748">
        <ele>1486.2</ele>
        <time>2022-09-25T07:37:58Z</time>
      </trkpt>
      <trkpt lat="42.9421" lon="0.32748">
        <ele>1486</ele>
        <time>2022-09-25T07:38:00Z</time>
      </trkpt>
      <trkpt lat="42.9421" lon="0.32748">
        <ele>1486</ele>
        <time>2022-09-25T07:38:03Z</time>
      </trkpt>
      <trkpt lat="42.9421" lon="0.32748">
        <ele>1485.8</ele>
        <time>2022-09-25T07:38:33Z</time>
      </trkpt>
      <trkpt lat="42.94211" lon="0.32748">
        <ele>1486</ele>
        <time>2022-09-25T07:38:42Z</time>
      </trkpt>
      <trkpt lat="42.94221" lon="0.32747">
        <ele>1486</ele>
        <time>2022-09-25T07:38:48Z</time>
      </trkpt>
      <trkpt lat="42.94223" lon="0.32745">
        <ele>1486</ele>
        <time>2022-09-25T07:38:49Z</time>
      </trkpt>
      <trkpt lat="42.94224" lon="0.3274">
        <ele>1486</ele>
        <time>2022-09-25T07:38:51Z</time>
      </trkpt>
      <trkpt lat="42.94223" lon="0.32737">
        <ele>1486</ele>
        <time>2022-09-25T07:38:52Z</time>
      </trkpt>
      <trkpt lat="42.94213" lon="0.32723">
        <ele>1486.2</ele>
        <time>2022-09-25T07:38:59Z</time>
      </trkpt>
      <trkpt lat="42.94207" lon="0.3272">
        <ele>1486.6</ele>
        <time>2022-09-25T07:39:02Z</time>
      </trkpt>
      <trkpt lat="42.94204" lon="0.32717">
        <ele>1486.6</ele>
        <time>2022-09-25T07:39:04Z</time>
      </trkpt>
      <trkpt lat="42.94203" lon="0.32714">
        <ele>1486.8</ele>
        <time>2022-09-25T07:39:05Z</time>
      </trkpt>
      <trkpt lat="42.94201" lon="0.32701">
        <ele>1487.2</ele>
        <time>2022-09-25T07:39:09Z</time>
      </trkpt>
      <trkpt lat="42.94198" lon="0.32685">
        <ele>1487.8</ele>
        <time>2022-09-25T07:39:13Z</time>
      </trkpt>
      <trkpt lat="42.94193" lon="0.32671">
        <ele>1488.2</ele>
        <time>2022-09-25T07:39:17Z</time>
      </trkpt>
      <trkpt lat="42.94184" lon="0.32644">
        <ele>1489</ele>
        <time>2022-09-25T07:39:25Z</time>
      </trkpt>
      <trkpt lat="42.94182" lon="0.32635">
        <ele>1489</ele>
        <time>2022-09-25T07:39:27Z</time>
      </trkpt>
      <trkpt lat="42.94179" lon="0.32625">
        <ele>1489.2</ele>
        <time>2022-09-25T07:39:30Z</time>
      </trkpt>
      <trkpt lat="42.94175" lon="0.32597">
        <ele>1489.4</ele>
        <time>2022-09-25T07:39:37Z</time>
      </trkpt>
      <trkpt lat="42.94171" lon="0.32579">
        <ele>1489.6</ele>
        <time>2022-09-25T07:39:42Z</time>
      </trkpt>
      <trkpt lat="42.94169" lon="0.32568">
        <ele>1489.8</ele>
        <time>2022-09-25T07:39:45Z</time>
      </trkpt>
      <trkpt lat="42.94168" lon="0.32556">
        <ele>1490</ele>
        <time>2022-09-25T07:39:48Z</time>
      </trkpt>
      <trkpt lat="42.94162" lon="0.32532">
        <ele>1490.2</ele>
        <time>2022-09-25T07:39:54Z</time>
      </trkpt>
      <trkpt lat="42.94156" lon="0.32504">
        <ele>1490.4</ele>
        <time>2022-09-25T07:40:01Z</time>
      </trkpt>
      <trkpt lat="42.94149" lon="0.32465">
        <ele>1491</ele>
        <time>2022-09-25T07:40:11Z</time>
      </trkpt>
      <trkpt lat="42.94146" lon="0.32449">
        <ele>1491.4</ele>
        <time>2022-09-25T07:40:15Z</time>
      </trkpt>
      <trkpt lat="42.94143" lon="0.32424">
        <ele>1491.8</ele>
        <time>2022-09-25T07:40:21Z</time>
      </trkpt>
      <trkpt lat="42.94139" lon="0.32388">
        <ele>1492.4</ele>
        <time>2022-09-25T07:40:30Z</time>
      </trkpt>
      <trkpt lat="42.94132" lon="0.32353">
        <ele>1493</ele>
        <time>2022-09-25T07:40:39Z</time>
      </trkpt>
      <trkpt lat="42.94128" lon="0.32326">
        <ele>1493.4</ele>
        <time>2022-09-25T07:40:46Z</time>
      </trkpt>
      <trkpt lat="42.94126" lon="0.3231">
        <ele>1493.4</ele>
        <time>2022-09-25T07:40:50Z</time>
      </trkpt>
      <trkpt lat="42.94125" lon="0.323">
        <ele>1493.6</ele>
        <time>2022-09-25T07:40:53Z</time>
      </trkpt>
      <trkpt lat="42.94121" lon="0.3228">
        <ele>1493.8</ele>
        <time>2022-09-25T07:40:59Z</time>
      </trkpt>
      <trkpt lat="42.9412" lon="0.32262">
        <ele>1494.4</ele>
        <time>2022-09-25T07:41:04Z</time>
      </trkpt>
      <trkpt lat="42.9412" lon="0.32258">
        <ele>1494.4</ele>
        <time>2022-09-25T07:41:05Z</time>
      </trkpt>
      <trkpt lat="42.94118" lon="0.32248">
        <ele>1494.8</ele>
        <time>2022-09-25T07:41:09Z</time>
      </trkpt>
      <trkpt lat="42.94115" lon="0.32244">
        <ele>1494.8</ele>
        <time>2022-09-25T07:41:10Z</time>
      </trkpt>
      <trkpt lat="42.94109" lon="0.32223">
        <ele>1495.4</ele>
        <time>2022-09-25T07:41:15Z</time>
      </trkpt>
      <trkpt lat="42.94107" lon="0.32212">
        <ele>1495.6</ele>
        <time>2022-09-25T07:41:17Z</time>
      </trkpt>
      <trkpt lat="42.94096" lon="0.32191">
        <ele>1496</ele>
        <time>2022-09-25T07:41:23Z</time>
      </trkpt>
      <trkpt lat="42.94086" lon="0.32184">
        <ele>1496.6</ele>
        <time>2022-09-25T07:41:28Z</time>
      </trkpt>
      <trkpt lat="42.94081" lon="0.32181">
        <ele>1497.2</ele>
        <time>2022-09-25T07:41:31Z</time>
      </trkpt>
      <trkpt lat="42.94077" lon="0.32179">
        <ele>1497.6</ele>
        <time>2022-09-25T07:41:33Z</time>
      </trkpt>
      <trkpt lat="42.94071" lon="0.32178">
        <ele>1498.6</ele>
        <time>2022-09-25T07:41:37Z</time>
      </trkpt>
      <trkpt lat="42.94069" lon="0.32178">
        <ele>1499</ele>
        <time>2022-09-25T07:41:38Z</time>
      </trkpt>
      <trkpt lat="42.94061" lon="0.32177">
        <ele>1499.8</ele>
        <time>2022-09-25T07:41:43Z</time>
      </trkpt>
      <trkpt lat="42.94059" lon="0.32177">
        <ele>1500</ele>
        <time>2022-09-25T07:41:44Z</time>
      </trkpt>
      <trkpt lat="42.94058" lon="0.32178">
        <ele>1500.2</ele>
        <time>2022-09-25T07:41:45Z</time>
      </trkpt>
      <trkpt lat="42.94051" lon="0.32182">
        <ele>1501.2</ele>
        <time>2022-09-25T07:41:50Z</time>
      </trkpt>
      <trkpt lat="42.94049" lon="0.32183">
        <ele>1501.4</ele>
        <time>2022-09-25T07:41:51Z</time>
      </trkpt>
      <trkpt lat="42.94047" lon="0.32184">
        <ele>1501.6</ele>
        <time>2022-09-25T07:41:52Z</time>
      </trkpt>
      <trkpt lat="42.94043" lon="0.32186">
        <ele>1502.6</ele>
        <time>2022-09-25T07:41:55Z</time>
      </trkpt>
      <trkpt lat="42.94037" lon="0.32191">
        <ele>1503.4</ele>
        <time>2022-09-25T07:42:00Z</time>
      </trkpt>
      <trkpt lat="42.94035" lon="0.32192">
        <ele>1503.8</ele>
        <time>2022-09-25T07:42:01Z</time>
      </trkpt>
      <trkpt lat="42.9403" lon="0.32196">
        <ele>1504.6</ele>
        <time>2022-09-25T07:42:05Z</time>
      </trkpt>
      <trkpt lat="42.94027" lon="0.32199">
        <ele>1505.2</ele>
        <time>2022-09-25T07:42:07Z</time>
      </trkpt>
      <trkpt lat="42.94019" lon="0.32205">
        <ele>1506.2</ele>
        <time>2022-09-25T07:42:12Z</time>
      </trkpt>
      <trkpt lat="42.94015" lon="0.32207">
        <ele>1506.4</ele>
        <time>2022-09-25T07:42:14Z</time>
      </trkpt>
      <trkpt lat="42.94007" lon="0.32211">
        <ele>1507.2</ele>
        <time>2022-09-25T07:42:19Z</time>
      </trkpt>
      <trkpt lat="42.94005" lon="0.32212">
        <ele>1507.6</ele>
        <time>2022-09-25T07:42:20Z</time>
      </trkpt>
      <trkpt lat="42.94002" lon="0.32214">
        <ele>1508</ele>
        <time>2022-09-25T07:42:22Z</time>
      </trkpt>
      <trkpt lat="42.94" lon="0.32215">
        <ele>1508.2</ele>
        <time>2022-09-25T07:42:23Z</time>
      </trkpt>
      <trkpt lat="42.93995" lon="0.32212">
        <ele>1508.8</ele>
        <time>2022-09-25T07:42:26Z</time>
      </trkpt>
      <trkpt lat="42.93993" lon="0.32212">
        <ele>1509</ele>
        <time>2022-09-25T07:42:27Z</time>
      </trkpt>
      <trkpt lat="42.9399" lon="0.32212">
        <ele>1509.2</ele>
        <time>2022-09-25T07:42:28Z</time>
      </trkpt>
      <trkpt lat="42.93982" lon="0.32215">
        <ele>1510</ele>
        <time>2022-09-25T07:42:32Z</time>
      </trkpt>
      <trkpt lat="42.93978" lon="0.32217">
        <ele>1510.4</ele>
        <time>2022-09-25T07:42:34Z</time>
      </trkpt>
      <trkpt lat="42.93974" lon="0.32218">
        <ele>1510.8</ele>
        <time>2022-09-25T07:42:36Z</time>
      </trkpt>
      <trkpt lat="42.9397" lon="0.32219">
        <ele>1511</ele>
        <time>2022-09-25T07:42:38Z</time>
      </trkpt>
      <trkpt lat="42.93969" lon="0.3222">
        <ele>1511.2</ele>
        <time>2022-09-25T07:42:39Z</time>
      </trkpt>
      <trkpt lat="42.93965" lon="0.32221">
        <ele>1512</ele>
        <time>2022-09-25T07:42:41Z</time>
      </trkpt>
      <trkpt lat="42.93963" lon="0.32219">
        <ele>1512.2</ele>
        <time>2022-09-25T07:42:42Z</time>
      </trkpt>
      <trkpt lat="42.9396" lon="0.3222">
        <ele>1512.4</ele>
        <time>2022-09-25T07:42:44Z</time>
      </trkpt>
      <trkpt lat="42.93955" lon="0.32221">
        <ele>1513</ele>
        <time>2022-09-25T07:42:47Z</time>
      </trkpt>
      <trkpt lat="42.93954" lon="0.32222">
        <ele>1513.2</ele>
        <time>2022-09-25T07:42:48Z</time>
      </trkpt>
      <trkpt lat="42.93951" lon="0.32221">
        <ele>1513.4</ele>
        <time>2022-09-25T07:42:50Z</time>
      </trkpt>
      <trkpt lat="42.9395" lon="0.32221">
        <ele>1513.6</ele>
        <time>2022-09-25T07:42:51Z</time>
      </trkpt>
      <trkpt lat="42.93944" lon="0.32222">
        <ele>1514</ele>
        <time>2022-09-25T07:42:55Z</time>
      </trkpt>
      <trkpt lat="42.9394" lon="0.32221">
        <ele>1514.4</ele>
        <time>2022-09-25T07:42:57Z</time>
      </trkpt>
      <trkpt lat="42.93937" lon="0.3222">
        <ele>1514.6</ele>
        <time>2022-09-25T07:42:58Z</time>
      </trkpt>
      <trkpt lat="42.93929" lon="0.32218">
        <ele>1515.4</ele>
        <time>2022-09-25T07:43:03Z</time>
      </trkpt>
      <trkpt lat="42.93927" lon="0.32218">
        <ele>1515.6</ele>
        <time>2022-09-25T07:43:04Z</time>
      </trkpt>
      <trkpt lat="42.93925" lon="0.32217">
        <ele>1515.6</ele>
        <time>2022-09-25T07:43:05Z</time>
      </trkpt>
      <trkpt lat="42.93915" lon="0.32215">
        <ele>1516.6</ele>
        <time>2022-09-25T07:43:11Z</time>
      </trkpt>
      <trkpt lat="42.93915" lon="0.32214">
        <ele>1516.8</ele>
        <time>2022-09-25T07:43:12Z</time>
      </trkpt>
      <trkpt lat="42.93914" lon="0.32213">
        <ele>1517.2</ele>
        <time>2022-09-25T07:43:13Z</time>
      </trkpt>
      <trkpt lat="42.9391" lon="0.32212">
        <ele>1517.8</ele>
        <time>2022-09-25T07:43:15Z</time>
      </trkpt>
      <trkpt lat="42.93907" lon="0.32212">
        <ele>1518.4</ele>
        <time>2022-09-25T07:43:17Z</time>
      </trkpt>
      <trkpt lat="42.93901" lon="0.3221">
        <ele>1519.2</ele>
        <time>2022-09-25T07:43:20Z</time>
      </trkpt>
      <trkpt lat="42.93898" lon="0.32207">
        <ele>1519.6</ele>
        <time>2022-09-25T07:43:22Z</time>
      </trkpt>
      <trkpt lat="42.93893" lon="0.32204">
        <ele>1520.2</ele>
        <time>2022-09-25T07:43:25Z</time>
      </trkpt>
      <trkpt lat="42.93886" lon="0.32201">
        <ele>1520.8</ele>
        <time>2022-09-25T07:43:29Z</time>
      </trkpt>
      <trkpt lat="42.93883" lon="0.32199">
        <ele>1521.4</ele>
        <time>2022-09-25T07:43:31Z</time>
      </trkpt>
      <trkpt lat="42.93877" lon="0.32195">
        <ele>1522</ele>
        <time>2022-09-25T07:43:34Z</time>
      </trkpt>
      <trkpt lat="42.93873" lon="0.32193">
        <ele>1522.4</ele>
        <time>2022-09-25T07:43:36Z</time>
      </trkpt>
      <trkpt lat="42.93872" lon="0.32192">
        <ele>1522.6</ele>
        <time>2022-09-25T07:43:37Z</time>
      </trkpt>
      <trkpt lat="42.93865" lon="0.32187">
        <ele>1523.4</ele>
        <time>2022-09-25T07:43:42Z</time>
      </trkpt>
      <trkpt lat="42.9386" lon="0.32184">
        <ele>1524.2</ele>
        <time>2022-09-25T07:43:45Z</time>
      </trkpt>
      <trkpt lat="42.93857" lon="0.32181">
        <ele>1524.6</ele>
        <time>2022-09-25T07:43:47Z</time>
      </trkpt>
      <trkpt lat="42.9385" lon="0.32178">
        <ele>1525.4</ele>
        <time>2022-09-25T07:43:52Z</time>
      </trkpt>
      <trkpt lat="42.93848" lon="0.32177">
        <ele>1525.8</ele>
        <time>2022-09-25T07:43:53Z</time>
      </trkpt>
      <trkpt lat="42.93847" lon="0.32176">
        <ele>1525.8</ele>
        <time>2022-09-25T07:43:54Z</time>
      </trkpt>
      <trkpt lat="42.93844" lon="0.32172">
        <ele>1526.8</ele>
        <time>2022-09-25T07:43:59Z</time>
      </trkpt>
      <trkpt lat="42.93843" lon="0.32171">
        <ele>1526.8</ele>
        <time>2022-09-25T07:44:00Z</time>
      </trkpt>
      <trkpt lat="42.93842" lon="0.32171">
        <ele>1527</ele>
        <time>2022-09-25T07:44:01Z</time>
      </trkpt>
      <trkpt lat="42.93838" lon="0.32168">
        <ele>1527.8</ele>
        <time>2022-09-25T07:44:05Z</time>
      </trkpt>
      <trkpt lat="42.93836" lon="0.32168">
        <ele>1528</ele>
        <time>2022-09-25T07:44:06Z</time>
      </trkpt>
      <trkpt lat="42.9383" lon="0.32165">
        <ele>1528.6</ele>
        <time>2022-09-25T07:44:10Z</time>
      </trkpt>
      <trkpt lat="42.93827" lon="0.32163">
        <ele>1529</ele>
        <time>2022-09-25T07:44:12Z</time>
      </trkpt>
      <trkpt lat="42.93823" lon="0.32162">
        <ele>1530</ele>
        <time>2022-09-25T07:44:16Z</time>
      </trkpt>
      <trkpt lat="42.93821" lon="0.32161">
        <ele>1530.2</ele>
        <time>2022-09-25T07:44:17Z</time>
      </trkpt>
      <trkpt lat="42.93805" lon="0.32148">
        <ele>1531</ele>
        <time>2022-09-25T07:44:24Z</time>
      </trkpt>
      <trkpt lat="42.93804" lon="0.32147">
        <ele>1531.2</ele>
        <time>2022-09-25T07:44:25Z</time>
      </trkpt>
      <trkpt lat="42.93791" lon="0.32138">
        <ele>1531.8</ele>
        <time>2022-09-25T07:44:30Z</time>
      </trkpt>
      <trkpt lat="42.93787" lon="0.32134">
        <ele>1532.2</ele>
        <time>2022-09-25T07:44:33Z</time>
      </trkpt>
      <trkpt lat="42.93778" lon="0.32135">
        <ele>1532.6</ele>
        <time>2022-09-25T07:44:37Z</time>
      </trkpt>
      <trkpt lat="42.93776" lon="0.32136">
        <ele>1532.8</ele>
        <time>2022-09-25T07:44:38Z</time>
      </trkpt>
      <trkpt lat="42.93773" lon="0.32137">
        <ele>1533</ele>
        <time>2022-09-25T07:44:40Z</time>
      </trkpt>
      <trkpt lat="42.93769" lon="0.32135">
        <ele>1533.2</ele>
        <time>2022-09-25T07:44:42Z</time>
      </trkpt>
      <trkpt lat="42.9376" lon="0.32134">
        <ele>1534.2</ele>
        <time>2022-09-25T07:44:48Z</time>
      </trkpt>
      <trkpt lat="42.93759" lon="0.32135">
        <ele>1534.4</ele>
        <time>2022-09-25T07:44:49Z</time>
      </trkpt>
      <trkpt lat="42.93755" lon="0.32136">
        <ele>1535</ele>
        <time>2022-09-25T07:44:52Z</time>
      </trkpt>
      <trkpt lat="42.93755" lon="0.32138">
        <ele>1535.6</ele>
        <time>2022-09-25T07:44:54Z</time>
      </trkpt>
      <trkpt lat="42.93757" lon="0.3214">
        <ele>1536</ele>
        <time>2022-09-25T07:44:56Z</time>
      </trkpt>
      <trkpt lat="42.9376" lon="0.3214">
        <ele>1536.6</ele>
        <time>2022-09-25T07:44:58Z</time>
      </trkpt>
      <trkpt lat="42.93762" lon="0.3214">
        <ele>1536.6</ele>
        <time>2022-09-25T07:44:59Z</time>
      </trkpt>
      <trkpt lat="42.93775" lon="0.32146">
        <ele>1537.2</ele>
        <time>2022-09-25T07:45:07Z</time>
      </trkpt>
      <trkpt lat="42.93781" lon="0.32149">
        <ele>1537.8</ele>
        <time>2022-09-25T07:45:10Z</time>
      </trkpt>
      <trkpt lat="42.93785" lon="0.32154">
        <ele>1538</ele>
        <time>2022-09-25T07:45:12Z</time>
      </trkpt>
      <trkpt lat="42.93788" lon="0.32157">
        <ele>1538</ele>
        <time>2022-09-25T07:45:14Z</time>
      </trkpt>
      <trkpt lat="42.93789" lon="0.32159">
        <ele>1538.2</ele>
        <time>2022-09-25T07:45:15Z</time>
      </trkpt>
      <trkpt lat="42.93791" lon="0.32161">
        <ele>1538.2</ele>
        <time>2022-09-25T07:45:16Z</time>
      </trkpt>
      <trkpt lat="42.93795" lon="0.32166">
        <ele>1538.4</ele>
        <time>2022-09-25T07:45:19Z</time>
      </trkpt>
      <trkpt lat="42.93805" lon="0.3217">
        <ele>1539.2</ele>
        <time>2022-09-25T07:45:24Z</time>
      </trkpt>
      <trkpt lat="42.93818" lon="0.32181">
        <ele>1540</ele>
        <time>2022-09-25T07:45:30Z</time>
      </trkpt>
      <trkpt lat="42.93819" lon="0.32183">
        <ele>1540.2</ele>
        <time>2022-09-25T07:45:31Z</time>
      </trkpt>
      <trkpt lat="42.93826" lon="0.32191">
        <ele>1541.2</ele>
        <time>2022-09-25T07:45:37Z</time>
      </trkpt>
      <trkpt lat="42.93826" lon="0.32192">
        <ele>1541.4</ele>
        <time>2022-09-25T07:45:40Z</time>
      </trkpt>
      <trkpt lat="42.93829" lon="0.32195">
        <ele>1541.2</ele>
        <time>2022-09-25T07:45:59Z</time>
      </trkpt>
      <trkpt lat="42.9383" lon="0.32197">
        <ele>1541.2</ele>
        <time>2022-09-25T07:46:00Z</time>
      </trkpt>
      <trkpt lat="42.93841" lon="0.32212">
        <ele>1541.2</ele>
        <time>2022-09-25T07:46:07Z</time>
      </trkpt>
      <trkpt lat="42.93844" lon="0.32216">
        <ele>1541.2</ele>
        <time>2022-09-25T07:46:09Z</time>
      </trkpt>
      <trkpt lat="42.93847" lon="0.3222">
        <ele>1541.4</ele>
        <time>2022-09-25T07:46:12Z</time>
      </trkpt>
      <trkpt lat="42.9385" lon="0.32222">
        <ele>1541.8</ele>
        <time>2022-09-25T07:46:14Z</time>
      </trkpt>
      <trkpt lat="42.93851" lon="0.32225">
        <ele>1542.2</ele>
        <time>2022-09-25T07:46:16Z</time>
      </trkpt>
      <trkpt lat="42.93852" lon="0.32226">
        <ele>1542.4</ele>
        <time>2022-09-25T07:46:17Z</time>
      </trkpt>
      <trkpt lat="42.93856" lon="0.32234">
        <ele>1543.4</ele>
        <time>2022-09-25T07:46:21Z</time>
      </trkpt>
      <trkpt lat="42.93861" lon="0.3224">
        <ele>1544.2</ele>
        <time>2022-09-25T07:46:24Z</time>
      </trkpt>
      <trkpt lat="42.93863" lon="0.32242">
        <ele>1544.4</ele>
        <time>2022-09-25T07:46:25Z</time>
      </trkpt>
      <trkpt lat="42.93871" lon="0.3225">
        <ele>1545.4</ele>
        <time>2022-09-25T07:46:30Z</time>
      </trkpt>
      <trkpt lat="42.93872" lon="0.32253">
        <ele>1545.6</ele>
        <time>2022-09-25T07:46:31Z</time>
      </trkpt>
      <trkpt lat="42.93874" lon="0.32255">
        <ele>1545.8</ele>
        <time>2022-09-25T07:46:32Z</time>
      </trkpt>
      <trkpt lat="42.93881" lon="0.32262">
        <ele>1546</ele>
        <time>2022-09-25T07:46:36Z</time>
      </trkpt>
      <trkpt lat="42.93886" lon="0.32264">
        <ele>1546.6</ele>
        <time>2022-09-25T07:46:39Z</time>
      </trkpt>
      <trkpt lat="42.93894" lon="0.32269">
        <ele>1547</ele>
        <time>2022-09-25T07:46:42Z</time>
      </trkpt>
      <trkpt lat="42.93905" lon="0.3228">
        <ele>1547.6</ele>
        <time>2022-09-25T07:46:47Z</time>
      </trkpt>
      <trkpt lat="42.93907" lon="0.32281">
        <ele>1547.6</ele>
        <time>2022-09-25T07:46:48Z</time>
      </trkpt>
      <trkpt lat="42.9391" lon="0.32283">
        <ele>1548.4</ele>
        <time>2022-09-25T07:46:51Z</time>
      </trkpt>
      <trkpt lat="42.93913" lon="0.32285">
        <ele>1548.6</ele>
        <time>2022-09-25T07:46:53Z</time>
      </trkpt>
      <trkpt lat="42.93916" lon="0.32289">
        <ele>1548.8</ele>
        <time>2022-09-25T07:46:55Z</time>
      </trkpt>
      <trkpt lat="42.93924" lon="0.32295">
        <ele>1549.6</ele>
        <time>2022-09-25T07:46:59Z</time>
      </trkpt>
      <trkpt lat="42.93927" lon="0.32297">
        <ele>1550</ele>
        <time>2022-09-25T07:47:01Z</time>
      </trkpt>
      <trkpt lat="42.93931" lon="0.32298">
        <ele>1550.6</ele>
        <time>2022-09-25T07:47:03Z</time>
      </trkpt>
      <trkpt lat="42.93934" lon="0.32301">
        <ele>1551</ele>
        <time>2022-09-25T07:47:05Z</time>
      </trkpt>
      <trkpt lat="42.93938" lon="0.32306">
        <ele>1552</ele>
        <time>2022-09-25T07:47:08Z</time>
      </trkpt>
      <trkpt lat="42.93938" lon="0.32308">
        <ele>1552.2</ele>
        <time>2022-09-25T07:47:09Z</time>
      </trkpt>
      <trkpt lat="42.93938" lon="0.3231">
        <ele>1552.4</ele>
        <time>2022-09-25T07:47:10Z</time>
      </trkpt>
      <trkpt lat="42.93941" lon="0.32313">
        <ele>1553</ele>
        <time>2022-09-25T07:47:13Z</time>
      </trkpt>
      <trkpt lat="42.93943" lon="0.32314">
        <ele>1553.4</ele>
        <time>2022-09-25T07:47:14Z</time>
      </trkpt>
      <trkpt lat="42.93945" lon="0.32315">
        <ele>1553.6</ele>
        <time>2022-09-25T07:47:15Z</time>
      </trkpt>
      <trkpt lat="42.9395" lon="0.32318">
        <ele>1554.4</ele>
        <time>2022-09-25T07:47:18Z</time>
      </trkpt>
      <trkpt lat="42.93958" lon="0.32325">
        <ele>1555</ele>
        <time>2022-09-25T07:47:23Z</time>
      </trkpt>
      <trkpt lat="42.93963" lon="0.3233">
        <ele>1555.6</ele>
        <time>2022-09-25T07:47:26Z</time>
      </trkpt>
      <trkpt lat="42.93969" lon="0.32336">
        <ele>1556.2</ele>
        <time>2022-09-25T07:47:30Z</time>
      </trkpt>
      <trkpt lat="42.93973" lon="0.3234">
        <ele>1556.6</ele>
        <time>2022-09-25T07:47:32Z</time>
      </trkpt>
      <trkpt lat="42.93981" lon="0.3235">
        <ele>1557.4</ele>
        <time>2022-09-25T07:47:37Z</time>
      </trkpt>
      <trkpt lat="42.93983" lon="0.32353">
        <ele>1557.6</ele>
        <time>2022-09-25T07:47:38Z</time>
      </trkpt>
      <trkpt lat="42.93986" lon="0.32355">
        <ele>1557.8</ele>
        <time>2022-09-25T07:47:39Z</time>
      </trkpt>
      <trkpt lat="42.93992" lon="0.32362">
        <ele>1558.6</ele>
        <time>2022-09-25T07:47:44Z</time>
      </trkpt>
      <trkpt lat="42.93996" lon="0.32365">
        <ele>1559.2</ele>
        <time>2022-09-25T07:47:47Z</time>
      </trkpt>
      <trkpt lat="42.94" lon="0.32368">
        <ele>1559.6</ele>
        <time>2022-09-25T07:47:50Z</time>
      </trkpt>
      <trkpt lat="42.94" lon="0.3237">
        <ele>1560</ele>
        <time>2022-09-25T07:47:51Z</time>
      </trkpt>
      <trkpt lat="42.93999" lon="0.3237">
        <ele>1560</ele>
        <time>2022-09-25T07:47:52Z</time>
      </trkpt>
      <trkpt lat="42.93996" lon="0.32371">
        <ele>1560.4</ele>
        <time>2022-09-25T07:47:54Z</time>
      </trkpt>
      <trkpt lat="42.93995" lon="0.3237">
        <ele>1560.6</ele>
        <time>2022-09-25T07:47:55Z</time>
      </trkpt>
      <trkpt lat="42.9399" lon="0.32369">
        <ele>1561</ele>
        <time>2022-09-25T07:47:58Z</time>
      </trkpt>
      <trkpt lat="42.93984" lon="0.32369">
        <ele>1561.8</ele>
        <time>2022-09-25T07:48:02Z</time>
      </trkpt>
      <trkpt lat="42.93983" lon="0.32369">
        <ele>1562</ele>
        <time>2022-09-25T07:48:03Z</time>
      </trkpt>
      <trkpt lat="42.9398" lon="0.32369">
        <ele>1562.4</ele>
        <time>2022-09-25T07:48:05Z</time>
      </trkpt>
      <trkpt lat="42.93979" lon="0.32369">
        <ele>1562.8</ele>
        <time>2022-09-25T07:48:06Z</time>
      </trkpt>
      <trkpt lat="42.93978" lon="0.3237">
        <ele>1563</ele>
        <time>2022-09-25T07:48:07Z</time>
      </trkpt>
      <trkpt lat="42.93974" lon="0.3237">
        <ele>1564</ele>
        <time>2022-09-25T07:48:10Z</time>
      </trkpt>
      <trkpt lat="42.93972" lon="0.32371">
        <ele>1564.2</ele>
        <time>2022-09-25T07:48:11Z</time>
      </trkpt>
      <trkpt lat="42.93969" lon="0.3237">
        <ele>1564.4</ele>
        <time>2022-09-25T07:48:13Z</time>
      </trkpt>
      <trkpt lat="42.93967" lon="0.32369">
        <ele>1564.8</ele>
        <time>2022-09-25T07:48:15Z</time>
      </trkpt>
      <trkpt lat="42.93964" lon="0.32368">
        <ele>1565.4</ele>
        <time>2022-09-25T07:48:17Z</time>
      </trkpt>
      <trkpt lat="42.9396" lon="0.32369">
        <ele>1566.4</ele>
        <time>2022-09-25T07:48:20Z</time>
      </trkpt>
      <trkpt lat="42.93959" lon="0.32369">
        <ele>1566.6</ele>
        <time>2022-09-25T07:48:21Z</time>
      </trkpt>
      <trkpt lat="42.93955" lon="0.32369">
        <ele>1567.8</ele>
        <time>2022-09-25T07:48:24Z</time>
      </trkpt>
      <trkpt lat="42.93951" lon="0.32368">
        <ele>1569</ele>
        <time>2022-09-25T07:48:28Z</time>
      </trkpt>
      <trkpt lat="42.93948" lon="0.32366">
        <ele>1570</ele>
        <time>2022-09-25T07:48:31Z</time>
      </trkpt>
      <trkpt lat="42.93945" lon="0.32366">
        <ele>1570.8</ele>
        <time>2022-09-25T07:48:34Z</time>
      </trkpt>
      <trkpt lat="42.93942" lon="0.32366">
        <ele>1571.2</ele>
        <time>2022-09-25T07:48:36Z</time>
      </trkpt>
      <trkpt lat="42.93938" lon="0.32367">
        <ele>1572.2</ele>
        <time>2022-09-25T07:48:39Z</time>
      </trkpt>
      <trkpt lat="42.93934" lon="0.32367">
        <ele>1573</ele>
        <time>2022-09-25T07:48:42Z</time>
      </trkpt>
      <trkpt lat="42.93932" lon="0.32367">
        <ele>1573.4</ele>
        <time>2022-09-25T07:48:44Z</time>
      </trkpt>
      <trkpt lat="42.93925" lon="0.32366">
        <ele>1574.4</ele>
        <time>2022-09-25T07:48:49Z</time>
      </trkpt>
      <trkpt lat="42.93924" lon="0.32365">
        <ele>1574.4</ele>
        <time>2022-09-25T07:48:50Z</time>
      </trkpt>
      <trkpt lat="42.93923" lon="0.32365">
        <ele>1574.8</ele>
        <time>2022-09-25T07:48:51Z</time>
      </trkpt>
      <trkpt lat="42.93919" lon="0.32365">
        <ele>1575.6</ele>
        <time>2022-09-25T07:48:54Z</time>
      </trkpt>
      <trkpt lat="42.93914" lon="0.32364">
        <ele>1576.6</ele>
        <time>2022-09-25T07:48:57Z</time>
      </trkpt>
      <trkpt lat="42.93912" lon="0.32363">
        <ele>1576.6</ele>
        <time>2022-09-25T07:48:58Z</time>
      </trkpt>
      <trkpt lat="42.93909" lon="0.32363">
        <ele>1577</ele>
        <time>2022-09-25T07:49:00Z</time>
      </trkpt>
      <trkpt lat="42.93902" lon="0.32361">
        <ele>1578</ele>
        <time>2022-09-25T07:49:04Z</time>
      </trkpt>
      <trkpt lat="42.93893" lon="0.32359">
        <ele>1579</ele>
        <time>2022-09-25T07:49:09Z</time>
      </trkpt>
      <trkpt lat="42.93892" lon="0.32359">
        <ele>1579.2</ele>
        <time>2022-09-25T07:49:10Z</time>
      </trkpt>
      <trkpt lat="42.93889" lon="0.32359">
        <ele>1579.6</ele>
        <time>2022-09-25T07:49:12Z</time>
      </trkpt>
      <trkpt lat="42.93887" lon="0.32357">
        <ele>1579.8</ele>
        <time>2022-09-25T07:49:14Z</time>
      </trkpt>
      <trkpt lat="42.93885" lon="0.32357">
        <ele>1580.2</ele>
        <time>2022-09-25T07:49:16Z</time>
      </trkpt>
      <trkpt lat="42.93883" lon="0.32357">
        <ele>1580.2</ele>
        <time>2022-09-25T07:49:17Z</time>
      </trkpt>
      <trkpt lat="42.93875" lon="0.32352">
        <ele>1581.4</ele>
        <time>2022-09-25T07:49:24Z</time>
      </trkpt>
      <trkpt lat="42.93871" lon="0.32349">
        <ele>1582</ele>
        <time>2022-09-25T07:49:28Z</time>
      </trkpt>
      <trkpt lat="42.93867" lon="0.32347">
        <ele>1582.4</ele>
        <time>2022-09-25T07:49:31Z</time>
      </trkpt>
      <trkpt lat="42.93863" lon="0.32345">
        <ele>1583</ele>
        <time>2022-09-25T07:49:33Z</time>
      </trkpt>
      <trkpt lat="42.93858" lon="0.32341">
        <ele>1583.4</ele>
        <time>2022-09-25T07:49:36Z</time>
      </trkpt>
      <trkpt lat="42.93856" lon="0.32339">
        <ele>1583.8</ele>
        <time>2022-09-25T07:49:37Z</time>
      </trkpt>
      <trkpt lat="42.9385" lon="0.32335">
        <ele>1584.4</ele>
        <time>2022-09-25T07:49:41Z</time>
      </trkpt>
      <trkpt lat="42.93849" lon="0.32334">
        <ele>1584.4</ele>
        <time>2022-09-25T07:49:42Z</time>
      </trkpt>
      <trkpt lat="42.93847" lon="0.32332">
        <ele>1584.8</ele>
        <time>2022-09-25T07:49:43Z</time>
      </trkpt>
      <trkpt lat="42.93837" lon="0.32328">
        <ele>1585.6</ele>
        <time>2022-09-25T07:49:49Z</time>
      </trkpt>
      <trkpt lat="42.93835" lon="0.32326">
        <ele>1586.2</ele>
        <time>2022-09-25T07:49:52Z</time>
      </trkpt>
      <trkpt lat="42.93833" lon="0.32326">
        <ele>1586.4</ele>
        <time>2022-09-25T07:49:53Z</time>
      </trkpt>
      <trkpt lat="42.9383" lon="0.32322">
        <ele>1586.8</ele>
        <time>2022-09-25T07:49:54Z</time>
      </trkpt>
      <trkpt lat="42.93826" lon="0.32318">
        <ele>1587.2</ele>
        <time>2022-09-25T07:49:57Z</time>
      </trkpt>
      <trkpt lat="42.93824" lon="0.32318">
        <ele>1587.8</ele>
        <time>2022-09-25T07:49:59Z</time>
      </trkpt>
      <trkpt lat="42.93817" lon="0.32313">
        <ele>1588.4</ele>
        <time>2022-09-25T07:50:03Z</time>
      </trkpt>
      <trkpt lat="42.93815" lon="0.3231">
        <ele>1588.8</ele>
        <time>2022-09-25T07:50:05Z</time>
      </trkpt>
      <trkpt lat="42.93808" lon="0.32303">
        <ele>1590</ele>
        <time>2022-09-25T07:50:12Z</time>
      </trkpt>
      <trkpt lat="42.93806" lon="0.32302">
        <ele>1590.2</ele>
        <time>2022-09-25T07:50:13Z</time>
      </trkpt>
      <trkpt lat="42.93804" lon="0.323">
        <ele>1590.2</ele>
        <time>2022-09-25T07:50:15Z</time>
      </trkpt>
      <trkpt lat="42.938" lon="0.32299">
        <ele>1590.8</ele>
        <time>2022-09-25T07:50:18Z</time>
      </trkpt>
      <trkpt lat="42.93798" lon="0.32297">
        <ele>1591.2</ele>
        <time>2022-09-25T07:50:20Z</time>
      </trkpt>
      <trkpt lat="42.9379" lon="0.32295">
        <ele>1592.2</ele>
        <time>2022-09-25T07:50:26Z</time>
      </trkpt>
      <trkpt lat="42.93788" lon="0.32294">
        <ele>1592.4</ele>
        <time>2022-09-25T07:50:28Z</time>
      </trkpt>
      <trkpt lat="42.93778" lon="0.32289">
        <ele>1593.6</ele>
        <time>2022-09-25T07:50:34Z</time>
      </trkpt>
      <trkpt lat="42.93775" lon="0.32286">
        <ele>1593.8</ele>
        <time>2022-09-25T07:50:36Z</time>
      </trkpt>
      <trkpt lat="42.93767" lon="0.32281">
        <ele>1594.6</ele>
        <time>2022-09-25T07:50:42Z</time>
      </trkpt>
      <trkpt lat="42.93756" lon="0.32274">
        <ele>1595.6</ele>
        <time>2022-09-25T07:50:48Z</time>
      </trkpt>
      <trkpt lat="42.93754" lon="0.32272">
        <ele>1595.6</ele>
        <time>2022-09-25T07:50:49Z</time>
      </trkpt>
      <trkpt lat="42.93742" lon="0.32268">
        <ele>1596</ele>
        <time>2022-09-25T07:50:54Z</time>
      </trkpt>
      <trkpt lat="42.93726" lon="0.32267">
        <ele>1596.6</ele>
        <time>2022-09-25T07:51:01Z</time>
      </trkpt>
      <trkpt lat="42.93712" lon="0.32271">
        <ele>1597</ele>
        <time>2022-09-25T07:51:06Z</time>
      </trkpt>
      <trkpt lat="42.93707" lon="0.32272">
        <ele>1597.2</ele>
        <time>2022-09-25T07:51:08Z</time>
      </trkpt>
      <trkpt lat="42.93691" lon="0.32274">
        <ele>1597.6</ele>
        <time>2022-09-25T07:51:14Z</time>
      </trkpt>
      <trkpt lat="42.93685" lon="0.32274">
        <ele>1597.6</ele>
        <time>2022-09-25T07:51:16Z</time>
      </trkpt>
      <trkpt lat="42.93679" lon="0.32277">
        <ele>1597.8</ele>
        <time>2022-09-25T07:51:18Z</time>
      </trkpt>
      <trkpt lat="42.93674" lon="0.3228">
        <ele>1598</ele>
        <time>2022-09-25T07:51:20Z</time>
      </trkpt>
      <trkpt lat="42.93671" lon="0.3228">
        <ele>1598</ele>
        <time>2022-09-25T07:51:21Z</time>
      </trkpt>
      <trkpt lat="42.93665" lon="0.32281">
        <ele>1598</ele>
        <time>2022-09-25T07:51:23Z</time>
      </trkpt>
      <trkpt lat="42.93646" lon="0.32283">
        <ele>1598</ele>
        <time>2022-09-25T07:51:29Z</time>
      </trkpt>
      <trkpt lat="42.93631" lon="0.32287">
        <ele>1598.2</ele>
        <time>2022-09-25T07:51:34Z</time>
      </trkpt>
      <trkpt lat="42.93614" lon="0.32288">
        <ele>1598.4</ele>
        <time>2022-09-25T07:51:39Z</time>
      </trkpt>
      <trkpt lat="42.93602" lon="0.32287">
        <ele>1598.4</ele>
        <time>2022-09-25T07:51:44Z</time>
      </trkpt>
      <trkpt lat="42.93591" lon="0.32281">
        <ele>1599</ele>
        <time>2022-09-25T07:51:48Z</time>
      </trkpt>
      <trkpt lat="42.93588" lon="0.32279">
        <ele>1599.2</ele>
        <time>2022-09-25T07:51:49Z</time>
      </trkpt>
      <trkpt lat="42.93583" lon="0.32275">
        <ele>1599.4</ele>
        <time>2022-09-25T07:51:51Z</time>
      </trkpt>
      <trkpt lat="42.93571" lon="0.32271">
        <ele>1600</ele>
        <time>2022-09-25T07:51:57Z</time>
      </trkpt>
      <trkpt lat="42.9357" lon="0.32271">
        <ele>1600.2</ele>
        <time>2022-09-25T07:51:58Z</time>
      </trkpt>
      <trkpt lat="42.93566" lon="0.32271">
        <ele>1600.4</ele>
        <time>2022-09-25T07:52:00Z</time>
      </trkpt>
      <trkpt lat="42.93563" lon="0.32268">
        <ele>1601.2</ele>
        <time>2022-09-25T07:52:02Z</time>
      </trkpt>
      <trkpt lat="42.93551" lon="0.32261">
        <ele>1602</ele>
        <time>2022-09-25T07:52:07Z</time>
      </trkpt>
      <trkpt lat="42.93548" lon="0.32259">
        <ele>1602.2</ele>
        <time>2022-09-25T07:52:08Z</time>
      </trkpt>
      <trkpt lat="42.93541" lon="0.32254">
        <ele>1603</ele>
        <time>2022-09-25T07:52:12Z</time>
      </trkpt>
      <trkpt lat="42.93539" lon="0.32252">
        <ele>1603</ele>
        <time>2022-09-25T07:52:13Z</time>
      </trkpt>
      <trkpt lat="42.93525" lon="0.32242">
        <ele>1603.4</ele>
        <time>2022-09-25T07:52:18Z</time>
      </trkpt>
      <trkpt lat="42.93522" lon="0.32238">
        <ele>1603.4</ele>
        <time>2022-09-25T07:52:19Z</time>
      </trkpt>
      <trkpt lat="42.93512" lon="0.3223">
        <ele>1603.6</ele>
        <time>2022-09-25T07:52:23Z</time>
      </trkpt>
      <trkpt lat="42.93498" lon="0.3222">
        <ele>1603.6</ele>
        <time>2022-09-25T07:52:27Z</time>
      </trkpt>
      <trkpt lat="42.93486" lon="0.32219">
        <ele>1603.6</ele>
        <time>2022-09-25T07:52:32Z</time>
      </trkpt>
      <trkpt lat="42.93477" lon="0.32215">
        <ele>1604.2</ele>
        <time>2022-09-25T07:52:36Z</time>
      </trkpt>
      <trkpt lat="42.93476" lon="0.32215">
        <ele>1604.4</ele>
        <time>2022-09-25T07:52:37Z</time>
      </trkpt>
      <trkpt lat="42.93472" lon="0.32212">
        <ele>1604.8</ele>
        <time>2022-09-25T07:52:39Z</time>
      </trkpt>
      <trkpt lat="42.93468" lon="0.3221">
        <ele>1605.4</ele>
        <time>2022-09-25T07:52:42Z</time>
      </trkpt>
      <trkpt lat="42.93467" lon="0.32209">
        <ele>1605.8</ele>
        <time>2022-09-25T07:52:43Z</time>
      </trkpt>
      <trkpt lat="42.93455" lon="0.322">
        <ele>1606.8</ele>
        <time>2022-09-25T07:52:49Z</time>
      </trkpt>
      <trkpt lat="42.93452" lon="0.32198">
        <ele>1607</ele>
        <time>2022-09-25T07:52:50Z</time>
      </trkpt>
      <trkpt lat="42.9344" lon="0.32187">
        <ele>1607.8</ele>
        <time>2022-09-25T07:52:55Z</time>
      </trkpt>
      <trkpt lat="42.93438" lon="0.32185">
        <ele>1608</ele>
        <time>2022-09-25T07:52:56Z</time>
      </trkpt>
      <trkpt lat="42.93426" lon="0.32177">
        <ele>1608.8</ele>
        <time>2022-09-25T07:53:02Z</time>
      </trkpt>
      <trkpt lat="42.93419" lon="0.3217">
        <ele>1609</ele>
        <time>2022-09-25T07:53:05Z</time>
      </trkpt>
      <trkpt lat="42.93414" lon="0.32167">
        <ele>1609</ele>
        <time>2022-09-25T07:53:08Z</time>
      </trkpt>
      <trkpt lat="42.93412" lon="0.32166">
        <ele>1609.2</ele>
        <time>2022-09-25T07:53:09Z</time>
      </trkpt>
      <trkpt lat="42.93404" lon="0.32157">
        <ele>1609.4</ele>
        <time>2022-09-25T07:53:13Z</time>
      </trkpt>
      <trkpt lat="42.93395" lon="0.32147">
        <ele>1610</ele>
        <time>2022-09-25T07:53:18Z</time>
      </trkpt>
      <trkpt lat="42.93393" lon="0.32144">
        <ele>1610</ele>
        <time>2022-09-25T07:53:19Z</time>
      </trkpt>
      <trkpt lat="42.9339" lon="0.32136">
        <ele>1610</ele>
        <time>2022-09-25T07:53:21Z</time>
      </trkpt>
      <trkpt lat="42.93383" lon="0.32126">
        <ele>1610</ele>
        <time>2022-09-25T07:53:23Z</time>
      </trkpt>
      <trkpt lat="42.93378" lon="0.3212">
        <ele>1610</ele>
        <time>2022-09-25T07:53:24Z</time>
      </trkpt>
      <trkpt lat="42.93373" lon="0.32115">
        <ele>1609.8</ele>
        <time>2022-09-25T07:53:25Z</time>
      </trkpt>
      <trkpt lat="42.93362" lon="0.32102">
        <ele>1608.8</ele>
        <time>2022-09-25T07:53:28Z</time>
      </trkpt>
      <trkpt lat="42.93344" lon="0.32085">
        <ele>1608.4</ele>
        <time>2022-09-25T07:53:34Z</time>
      </trkpt>
      <trkpt lat="42.93331" lon="0.32069">
        <ele>1608.4</ele>
        <time>2022-09-25T07:53:39Z</time>
      </trkpt>
      <trkpt lat="42.93312" lon="0.32039">
        <ele>1608.6</ele>
        <time>2022-09-25T07:53:45Z</time>
      </trkpt>
      <trkpt lat="42.93301" lon="0.32016">
        <ele>1608.2</ele>
        <time>2022-09-25T07:53:50Z</time>
      </trkpt>
      <trkpt lat="42.93295" lon="0.32001">
        <ele>1607.8</ele>
        <time>2022-09-25T07:53:53Z</time>
      </trkpt>
      <trkpt lat="42.93287" lon="0.31981">
        <ele>1607.4</ele>
        <time>2022-09-25T07:53:57Z</time>
      </trkpt>
      <trkpt lat="42.9328" lon="0.31947">
        <ele>1606.4</ele>
        <time>2022-09-25T07:54:03Z</time>
      </trkpt>
      <trkpt lat="42.93275" lon="0.31925">
        <ele>1605.2</ele>
        <time>2022-09-25T07:54:07Z</time>
      </trkpt>
      <trkpt lat="42.93274" lon="0.31921">
        <ele>1604.2</ele>
        <time>2022-09-25T07:54:08Z</time>
      </trkpt>
      <trkpt lat="42.93273" lon="0.31918">
        <ele>1604</ele>
        <time>2022-09-25T07:54:09Z</time>
      </trkpt>
      <trkpt lat="42.93269" lon="0.31905">
        <ele>1602.6</ele>
        <time>2022-09-25T07:54:12Z</time>
      </trkpt>
      <trkpt lat="42.93268" lon="0.31899">
        <ele>1602.4</ele>
        <time>2022-09-25T07:54:13Z</time>
      </trkpt>
      <trkpt lat="42.93263" lon="0.31885">
        <ele>1601.8</ele>
        <time>2022-09-25T07:54:16Z</time>
      </trkpt>
      <trkpt lat="42.9326" lon="0.31878">
        <ele>1601.6</ele>
        <time>2022-09-25T07:54:17Z</time>
      </trkpt>
      <trkpt lat="42.93258" lon="0.31874">
        <ele>1601.4</ele>
        <time>2022-09-25T07:54:18Z</time>
      </trkpt>
      <trkpt lat="42.93248" lon="0.31863">
        <ele>1601.2</ele>
        <time>2022-09-25T07:54:22Z</time>
      </trkpt>
      <trkpt lat="42.93229" lon="0.31859">
        <ele>1600.8</ele>
        <time>2022-09-25T07:54:28Z</time>
      </trkpt>
      <trkpt lat="42.93224" lon="0.31862">
        <ele>1600.8</ele>
        <time>2022-09-25T07:54:30Z</time>
      </trkpt>
      <trkpt lat="42.93221" lon="0.31866">
        <ele>1601</ele>
        <time>2022-09-25T07:54:32Z</time>
      </trkpt>
      <trkpt lat="42.93216" lon="0.3187">
        <ele>1601.4</ele>
        <time>2022-09-25T07:54:35Z</time>
      </trkpt>
      <trkpt lat="42.9321" lon="0.31872">
        <ele>1602</ele>
        <time>2022-09-25T07:54:38Z</time>
      </trkpt>
      <trkpt lat="42.93192" lon="0.31879">
        <ele>1602.6</ele>
        <time>2022-09-25T07:54:44Z</time>
      </trkpt>
      <trkpt lat="42.93187" lon="0.31881">
        <ele>1602.6</ele>
        <time>2022-09-25T07:54:45Z</time>
      </trkpt>
      <trkpt lat="42.93177" lon="0.31884">
        <ele>1602.6</ele>
        <time>2022-09-25T07:54:47Z</time>
      </trkpt>
      <trkpt lat="42.93173" lon="0.31885">
        <ele>1602.6</ele>
        <time>2022-09-25T07:54:48Z</time>
      </trkpt>
      <trkpt lat="42.93154" lon="0.3189">
        <ele>1601.2</ele>
        <time>2022-09-25T07:54:51Z</time>
      </trkpt>
      <trkpt lat="42.93143" lon="0.31894">
        <ele>1599.8</ele>
        <time>2022-09-25T07:54:53Z</time>
      </trkpt>
      <trkpt lat="42.93137" lon="0.31896">
        <ele>1599.6</ele>
        <time>2022-09-25T07:54:54Z</time>
      </trkpt>
      <trkpt lat="42.93127" lon="0.31899">
        <ele>1598.8</ele>
        <time>2022-09-25T07:54:56Z</time>
      </trkpt>
      <trkpt lat="42.93122" lon="0.319">
        <ele>1598.4</ele>
        <time>2022-09-25T07:54:57Z</time>
      </trkpt>
      <trkpt lat="42.93111" lon="0.31901">
        <ele>1597.2</ele>
        <time>2022-09-25T07:54:59Z</time>
      </trkpt>
      <trkpt lat="42.93092" lon="0.31902">
        <ele>1596</ele>
        <time>2022-09-25T07:55:02Z</time>
      </trkpt>
      <trkpt lat="42.93075" lon="0.31906">
        <ele>1594.8</ele>
        <time>2022-09-25T07:55:05Z</time>
      </trkpt>
      <trkpt lat="42.93069" lon="0.31907">
        <ele>1594.6</ele>
        <time>2022-09-25T07:55:06Z</time>
      </trkpt>
      <trkpt lat="42.93064" lon="0.31907">
        <ele>1594.4</ele>
        <time>2022-09-25T07:55:07Z</time>
      </trkpt>
      <trkpt lat="42.93059" lon="0.31906">
        <ele>1593</ele>
        <time>2022-09-25T07:55:08Z</time>
      </trkpt>
      <trkpt lat="42.93043" lon="0.31903">
        <ele>1591.8</ele>
        <time>2022-09-25T07:55:11Z</time>
      </trkpt>
      <trkpt lat="42.93035" lon="0.31899">
        <ele>1590.8</ele>
        <time>2022-09-25T07:55:13Z</time>
      </trkpt>
      <trkpt lat="42.93012" lon="0.31886">
        <ele>1589.8</ele>
        <time>2022-09-25T07:55:20Z</time>
      </trkpt>
      <trkpt lat="42.93006" lon="0.31882">
        <ele>1589.6</ele>
        <time>2022-09-25T07:55:22Z</time>
      </trkpt>
      <trkpt lat="42.92994" lon="0.31873">
        <ele>1590</ele>
        <time>2022-09-25T07:55:27Z</time>
      </trkpt>
      <trkpt lat="42.92986" lon="0.31867">
        <ele>1590.8</ele>
        <time>2022-09-25T07:55:32Z</time>
      </trkpt>
      <trkpt lat="42.92985" lon="0.31866">
        <ele>1591.2</ele>
        <time>2022-09-25T07:55:33Z</time>
      </trkpt>
      <trkpt lat="42.9298" lon="0.31863">
        <ele>1592</ele>
        <time>2022-09-25T07:55:36Z</time>
      </trkpt>
      <trkpt lat="42.92972" lon="0.31858">
        <ele>1593.2</ele>
        <time>2022-09-25T07:55:41Z</time>
      </trkpt>
      <trkpt lat="42.92962" lon="0.31849">
        <ele>1594.2</ele>
        <time>2022-09-25T07:55:46Z</time>
      </trkpt>
      <trkpt lat="42.92952" lon="0.31841">
        <ele>1595</ele>
        <time>2022-09-25T07:55:50Z</time>
      </trkpt>
      <trkpt lat="42.92939" lon="0.3183">
        <ele>1595.4</ele>
        <time>2022-09-25T07:55:55Z</time>
      </trkpt>
      <trkpt lat="42.92936" lon="0.31826">
        <ele>1595.4</ele>
        <time>2022-09-25T07:55:56Z</time>
      </trkpt>
      <trkpt lat="42.92917" lon="0.31814">
        <ele>1596</ele>
        <time>2022-09-25T07:56:03Z</time>
      </trkpt>
      <trkpt lat="42.92902" lon="0.31806">
        <ele>1596</ele>
        <time>2022-09-25T07:56:07Z</time>
      </trkpt>
      <trkpt lat="42.92899" lon="0.31801">
        <ele>1596</ele>
        <time>2022-09-25T07:56:08Z</time>
      </trkpt>
      <trkpt lat="42.92891" lon="0.31778">
        <ele>1595.8</ele>
        <time>2022-09-25T07:56:12Z</time>
      </trkpt>
      <trkpt lat="42.92882" lon="0.31752">
        <ele>1595.4</ele>
        <time>2022-09-25T07:56:16Z</time>
      </trkpt>
      <trkpt lat="42.92879" lon="0.31745">
        <ele>1595.2</ele>
        <time>2022-09-25T07:56:17Z</time>
      </trkpt>
      <trkpt lat="42.92873" lon="0.31731">
        <ele>1595</ele>
        <time>2022-09-25T07:56:19Z</time>
      </trkpt>
      <trkpt lat="42.92867" lon="0.31724">
        <ele>1594.6</ele>
        <time>2022-09-25T07:56:21Z</time>
      </trkpt>
      <trkpt lat="42.92865" lon="0.31723">
        <ele>1594</ele>
        <time>2022-09-25T07:56:22Z</time>
      </trkpt>
      <trkpt lat="42.92859" lon="0.31722">
        <ele>1593.6</ele>
        <time>2022-09-25T07:56:25Z</time>
      </trkpt>
      <trkpt lat="42.92844" lon="0.3172">
        <ele>1594</ele>
        <time>2022-09-25T07:56:31Z</time>
      </trkpt>
      <trkpt lat="42.92835" lon="0.31723">
        <ele>1594.6</ele>
        <time>2022-09-25T07:56:35Z</time>
      </trkpt>
      <trkpt lat="42.92832" lon="0.31723">
        <ele>1594.6</ele>
        <time>2022-09-25T07:56:36Z</time>
      </trkpt>
      <trkpt lat="42.92816" lon="0.31721">
        <ele>1595</ele>
        <time>2022-09-25T07:56:41Z</time>
      </trkpt>
      <trkpt lat="42.92804" lon="0.3172">
        <ele>1595.2</ele>
        <time>2022-09-25T07:56:45Z</time>
      </trkpt>
      <trkpt lat="42.92794" lon="0.3172">
        <ele>1595.2</ele>
        <time>2022-09-25T07:56:48Z</time>
      </trkpt>
      <trkpt lat="42.92762" lon="0.31714">
        <ele>1595.4</ele>
        <time>2022-09-25T07:56:57Z</time>
      </trkpt>
      <trkpt lat="42.92738" lon="0.31714">
        <ele>1595.4</ele>
        <time>2022-09-25T07:57:04Z</time>
      </trkpt>
      <trkpt lat="42.92724" lon="0.31715">
        <ele>1596.2</ele>
        <time>2022-09-25T07:57:10Z</time>
      </trkpt>
      <trkpt lat="42.92713" lon="0.31712">
        <ele>1597.2</ele>
        <time>2022-09-25T07:57:17Z</time>
      </trkpt>
      <trkpt lat="42.92712" lon="0.31712">
        <ele>1597.4</ele>
        <time>2022-09-25T07:57:18Z</time>
      </trkpt>
      <trkpt lat="42.92704" lon="0.3171">
        <ele>1597.8</ele>
        <time>2022-09-25T07:57:23Z</time>
      </trkpt>
      <trkpt lat="42.92693" lon="0.31702">
        <ele>1598.4</ele>
        <time>2022-09-25T07:57:31Z</time>
      </trkpt>
      <trkpt lat="42.92686" lon="0.31696">
        <ele>1598.6</ele>
        <time>2022-09-25T07:57:37Z</time>
      </trkpt>
      <trkpt lat="42.92685" lon="0.31693">
        <ele>1598.8</ele>
        <time>2022-09-25T07:57:39Z</time>
      </trkpt>
      <trkpt lat="42.92684" lon="0.31692">
        <ele>1598.8</ele>
        <time>2022-09-25T07:57:40Z</time>
      </trkpt>
      <trkpt lat="42.92682" lon="0.31691">
        <ele>1599</ele>
        <time>2022-09-25T07:57:45Z</time>
      </trkpt>
      <trkpt lat="42.92682" lon="0.31689">
        <ele>1599.6</ele>
        <time>2022-09-25T07:57:54Z</time>
      </trkpt>
      <trkpt lat="42.92682" lon="0.31688">
        <ele>1599.8</ele>
        <time>2022-09-25T07:57:57Z</time>
      </trkpt>
      <trkpt lat="42.92682" lon="0.31688">
        <ele>1600.2</ele>
        <time>2022-09-25T07:58:04Z</time>
      </trkpt>
      <trkpt lat="42.92681" lon="0.31687">
        <ele>1600.8</ele>
        <time>2022-09-25T07:58:26Z</time>
      </trkpt>
      <trkpt lat="42.92681" lon="0.31687">
        <ele>1601</ele>
        <time>2022-09-25T07:58:28Z</time>
      </trkpt>
      <trkpt lat="42.92678" lon="0.31686">
        <ele>1601.6</ele>
        <time>2022-09-25T07:58:41Z</time>
      </trkpt>
      <trkpt lat="42.92672" lon="0.31678">
        <ele>1601.2</ele>
        <time>2022-09-25T07:58:49Z</time>
      </trkpt>
      <trkpt lat="42.92664" lon="0.3167">
        <ele>1600.8</ele>
        <time>2022-09-25T07:58:55Z</time>
      </trkpt>
      <trkpt lat="42.92655" lon="0.3166">
        <ele>1600.8</ele>
        <time>2022-09-25T07:59:02Z</time>
      </trkpt>
      <trkpt lat="42.92654" lon="0.31657">
        <ele>1600.4</ele>
        <time>2022-09-25T07:59:10Z</time>
      </trkpt>
      <trkpt lat="42.9265" lon="0.31652">
        <ele>1600</ele>
        <time>2022-09-25T07:59:15Z</time>
      </trkpt>
      <trkpt lat="42.92646" lon="0.31647">
        <ele>1600</ele>
        <time>2022-09-25T07:59:17Z</time>
      </trkpt>
      <trkpt lat="42.92643" lon="0.31644">
        <ele>1600</ele>
        <time>2022-09-25T07:59:19Z</time>
      </trkpt>
      <trkpt lat="42.92639" lon="0.31639">
        <ele>1600</ele>
        <time>2022-09-25T07:59:22Z</time>
      </trkpt>
      <trkpt lat="42.92628" lon="0.31628">
        <ele>1601</ele>
        <time>2022-09-25T07:59:28Z</time>
      </trkpt>
      <trkpt lat="42.92625" lon="0.31625">
        <ele>1601.4</ele>
        <time>2022-09-25T07:59:30Z</time>
      </trkpt>
      <trkpt lat="42.92623" lon="0.31624">
        <ele>1601.4</ele>
        <time>2022-09-25T07:59:31Z</time>
      </trkpt>
      <trkpt lat="42.9261" lon="0.31612">
        <ele>1602.2</ele>
        <time>2022-09-25T07:59:39Z</time>
      </trkpt>
      <trkpt lat="42.92608" lon="0.3161">
        <ele>1602.4</ele>
        <time>2022-09-25T07:59:40Z</time>
      </trkpt>
      <trkpt lat="42.92595" lon="0.31596">
        <ele>1603</ele>
        <time>2022-09-25T07:59:48Z</time>
      </trkpt>
      <trkpt lat="42.92586" lon="0.31588">
        <ele>1603.4</ele>
        <time>2022-09-25T07:59:54Z</time>
      </trkpt>
      <trkpt lat="42.92585" lon="0.31586">
        <ele>1603.6</ele>
        <time>2022-09-25T07:59:55Z</time>
      </trkpt>
      <trkpt lat="42.92577" lon="0.31581">
        <ele>1604.4</ele>
        <time>2022-09-25T08:00:00Z</time>
      </trkpt>
      <trkpt lat="42.92576" lon="0.31579">
        <ele>1604.6</ele>
        <time>2022-09-25T08:00:01Z</time>
      </trkpt>
      <trkpt lat="42.92571" lon="0.31575">
        <ele>1605.6</ele>
        <time>2022-09-25T08:00:07Z</time>
      </trkpt>
      <trkpt lat="42.92569" lon="0.31573">
        <ele>1606.4</ele>
        <time>2022-09-25T08:00:18Z</time>
      </trkpt>
      <trkpt lat="42.92569" lon="0.31573">
        <ele>1606.6</ele>
        <time>2022-09-25T08:00:24Z</time>
      </trkpt>
      <trkpt lat="42.92566" lon="0.31572">
        <ele>1607</ele>
        <time>2022-09-25T08:01:28Z</time>
      </trkpt>
      <trkpt lat="42.92561" lon="0.31567">
        <ele>1607.4</ele>
        <time>2022-09-25T08:02:30Z</time>
      </trkpt>
      <trkpt lat="42.92549" lon="0.3155">
        <ele>1608.2</ele>
        <time>2022-09-25T08:02:38Z</time>
      </trkpt>
      <trkpt lat="42.92548" lon="0.31549">
        <ele>1608.4</ele>
        <time>2022-09-25T08:02:39Z</time>
      </trkpt>
      <trkpt lat="42.92539" lon="0.31537">
        <ele>1609.2</ele>
        <time>2022-09-25T08:02:45Z</time>
      </trkpt>
      <trkpt lat="42.92532" lon="0.31525">
        <ele>1610</ele>
        <time>2022-09-25T08:02:51Z</time>
      </trkpt>
      <trkpt lat="42.92527" lon="0.31516">
        <ele>1610.4</ele>
        <time>2022-09-25T08:02:55Z</time>
      </trkpt>
      <trkpt lat="42.9252" lon="0.31505">
        <ele>1611</ele>
        <time>2022-09-25T08:03:00Z</time>
      </trkpt>
      <trkpt lat="42.92514" lon="0.31498">
        <ele>1611.6</ele>
        <time>2022-09-25T08:03:04Z</time>
      </trkpt>
      <trkpt lat="42.92505" lon="0.31488">
        <ele>1613</ele>
        <time>2022-09-25T08:03:10Z</time>
      </trkpt>
      <trkpt lat="42.92496" lon="0.31478">
        <ele>1614.2</ele>
        <time>2022-09-25T08:03:16Z</time>
      </trkpt>
      <trkpt lat="42.92492" lon="0.31473">
        <ele>1614.8</ele>
        <time>2022-09-25T08:03:19Z</time>
      </trkpt>
      <trkpt lat="42.92491" lon="0.31471">
        <ele>1615.2</ele>
        <time>2022-09-25T08:03:20Z</time>
      </trkpt>
      <trkpt lat="42.92481" lon="0.31461">
        <ele>1616.4</ele>
        <time>2022-09-25T08:03:26Z</time>
      </trkpt>
      <trkpt lat="42.92479" lon="0.31458">
        <ele>1616.8</ele>
        <time>2022-09-25T08:03:28Z</time>
      </trkpt>
      <trkpt lat="42.92475" lon="0.31453">
        <ele>1617.6</ele>
        <time>2022-09-25T08:03:31Z</time>
      </trkpt>
      <trkpt lat="42.92469" lon="0.31445">
        <ele>1618.4</ele>
        <time>2022-09-25T08:03:35Z</time>
      </trkpt>
      <trkpt lat="42.92466" lon="0.31441">
        <ele>1618.8</ele>
        <time>2022-09-25T08:03:37Z</time>
      </trkpt>
      <trkpt lat="42.92457" lon="0.31432">
        <ele>1620.2</ele>
        <time>2022-09-25T08:03:43Z</time>
      </trkpt>
      <trkpt lat="42.92451" lon="0.31426">
        <ele>1621.2</ele>
        <time>2022-09-25T08:03:47Z</time>
      </trkpt>
      <trkpt lat="42.92444" lon="0.31421">
        <ele>1622.2</ele>
        <time>2022-09-25T08:03:51Z</time>
      </trkpt>
      <trkpt lat="42.92439" lon="0.31417">
        <ele>1622.2</ele>
        <time>2022-09-25T08:03:54Z</time>
      </trkpt>
      <trkpt lat="42.92426" lon="0.31408">
        <ele>1623.2</ele>
        <time>2022-09-25T08:04:01Z</time>
      </trkpt>
      <trkpt lat="42.92424" lon="0.31406">
        <ele>1623.4</ele>
        <time>2022-09-25T08:04:02Z</time>
      </trkpt>
      <trkpt lat="42.92411" lon="0.31393">
        <ele>1624.4</ele>
        <time>2022-09-25T08:04:10Z</time>
      </trkpt>
      <trkpt lat="42.92405" lon="0.31387">
        <ele>1624.6</ele>
        <time>2022-09-25T08:04:14Z</time>
      </trkpt>
      <trkpt lat="42.92401" lon="0.3138">
        <ele>1625</ele>
        <time>2022-09-25T08:04:19Z</time>
      </trkpt>
      <trkpt lat="42.92399" lon="0.3138">
        <ele>1625.4</ele>
        <time>2022-09-25T08:04:26Z</time>
      </trkpt>
      <trkpt lat="42.92399" lon="0.3138">
        <ele>1625.8</ele>
        <time>2022-09-25T08:04:29Z</time>
      </trkpt>
      <trkpt lat="42.92399" lon="0.3138">
        <ele>1625.8</ele>
        <time>2022-09-25T08:04:30Z</time>
      </trkpt>
      <trkpt lat="42.92396" lon="0.31378">
        <ele>1626.6</ele>
        <time>2022-09-25T08:04:46Z</time>
      </trkpt>
      <trkpt lat="42.92393" lon="0.31376">
        <ele>1626.8</ele>
        <time>2022-09-25T08:04:47Z</time>
      </trkpt>
      <trkpt lat="42.92373" lon="0.31359">
        <ele>1627.8</ele>
        <time>2022-09-25T08:04:57Z</time>
      </trkpt>
      <trkpt lat="42.92362" lon="0.31348">
        <ele>1628.8</ele>
        <time>2022-09-25T08:05:04Z</time>
      </trkpt>
      <trkpt lat="42.92359" lon="0.31344">
        <ele>1629</ele>
        <time>2022-09-25T08:05:06Z</time>
      </trkpt>
      <trkpt lat="42.92357" lon="0.31337">
        <ele>1629.2</ele>
        <time>2022-09-25T08:05:11Z</time>
      </trkpt>
      <trkpt lat="42.92356" lon="0.31334">
        <ele>1628.8</ele>
        <time>2022-09-25T08:05:19Z</time>
      </trkpt>
      <trkpt lat="42.92356" lon="0.31332">
        <ele>1627.8</ele>
        <time>2022-09-25T08:05:26Z</time>
      </trkpt>
      <trkpt lat="42.92354" lon="0.3133">
        <ele>1627.8</ele>
        <time>2022-09-25T08:05:47Z</time>
      </trkpt>
      <trkpt lat="42.92349" lon="0.31325">
        <ele>1628</ele>
        <time>2022-09-25T08:05:50Z</time>
      </trkpt>
      <trkpt lat="42.92347" lon="0.31322">
        <ele>1627.8</ele>
        <time>2022-09-25T08:05:55Z</time>
      </trkpt>
      <trkpt lat="42.92342" lon="0.3132">
        <ele>1627.8</ele>
        <time>2022-09-25T08:06:00Z</time>
      </trkpt>
      <trkpt lat="42.92339" lon="0.31317">
        <ele>1628.2</ele>
        <time>2022-09-25T08:06:06Z</time>
      </trkpt>
      <trkpt lat="42.92336" lon="0.31315">
        <ele>1629</ele>
        <time>2022-09-25T08:06:12Z</time>
      </trkpt>
      <trkpt lat="42.92336" lon="0.31315">
        <ele>1629</ele>
        <time>2022-09-25T08:06:14Z</time>
      </trkpt>
      <trkpt lat="42.92335" lon="0.31314">
        <ele>1630</ele>
        <time>2022-09-25T08:06:21Z</time>
      </trkpt>
      <trkpt lat="42.92334" lon="0.31313">
        <ele>1630.4</ele>
        <time>2022-09-25T08:06:29Z</time>
      </trkpt>
      <trkpt lat="42.92332" lon="0.31311">
        <ele>1630.4</ele>
        <time>2022-09-25T08:06:30Z</time>
      </trkpt>
      <trkpt lat="42.92319" lon="0.313">
        <ele>1630.6</ele>
        <time>2022-09-25T08:06:37Z</time>
      </trkpt>
      <trkpt lat="42.92304" lon="0.31279">
        <ele>1630.8</ele>
        <time>2022-09-25T08:06:45Z</time>
      </trkpt>
      <trkpt lat="42.92297" lon="0.31269">
        <ele>1630.8</ele>
        <time>2022-09-25T08:06:50Z</time>
      </trkpt>
      <trkpt lat="42.92292" lon="0.31262">
        <ele>1630.2</ele>
        <time>2022-09-25T08:06:56Z</time>
      </trkpt>
      <trkpt lat="42.9229" lon="0.3126">
        <ele>1630</ele>
        <time>2022-09-25T08:06:58Z</time>
      </trkpt>
      <trkpt lat="42.92284" lon="0.31258">
        <ele>1630</ele>
        <time>2022-09-25T08:07:02Z</time>
      </trkpt>
      <trkpt lat="42.92269" lon="0.31248">
        <ele>1630.4</ele>
        <time>2022-09-25T08:07:09Z</time>
      </trkpt>
      <trkpt lat="42.92253" lon="0.31239">
        <ele>1631</ele>
        <time>2022-09-25T08:07:17Z</time>
      </trkpt>
      <trkpt lat="42.9225" lon="0.31236">
        <ele>1631.2</ele>
        <time>2022-09-25T08:07:19Z</time>
      </trkpt>
      <trkpt lat="42.92238" lon="0.31225">
        <ele>1632.2</ele>
        <time>2022-09-25T08:07:26Z</time>
      </trkpt>
      <trkpt lat="42.92235" lon="0.31222">
        <ele>1632.2</ele>
        <time>2022-09-25T08:07:27Z</time>
      </trkpt>
      <trkpt lat="42.92218" lon="0.31205">
        <ele>1632</ele>
        <time>2022-09-25T08:07:33Z</time>
      </trkpt>
      <trkpt lat="42.92205" lon="0.3119">
        <ele>1631.4</ele>
        <time>2022-09-25T08:07:39Z</time>
      </trkpt>
      <trkpt lat="42.92195" lon="0.31181">
        <ele>1631.6</ele>
        <time>2022-09-25T08:07:46Z</time>
      </trkpt>
      <trkpt lat="42.92194" lon="0.31181">
        <ele>1631.8</ele>
        <time>2022-09-25T08:07:52Z</time>
      </trkpt>
      <trkpt lat="42.92193" lon="0.31181">
        <ele>1632.4</ele>
        <time>2022-09-25T08:08:01Z</time>
      </trkpt>
      <trkpt lat="42.92189" lon="0.31176">
        <ele>1632.2</ele>
        <time>2022-09-25T08:08:28Z</time>
      </trkpt>
      <trkpt lat="42.92182" lon="0.31168">
        <ele>1632.2</ele>
        <time>2022-09-25T08:08:37Z</time>
      </trkpt>
      <trkpt lat="42.92166" lon="0.31147">
        <ele>1632.2</ele>
        <time>2022-09-25T08:08:45Z</time>
      </trkpt>
      <trkpt lat="42.92156" lon="0.31127">
        <ele>1632.2</ele>
        <time>2022-09-25T08:08:52Z</time>
      </trkpt>
      <trkpt lat="42.92148" lon="0.31105">
        <ele>1632.2</ele>
        <time>2022-09-25T08:08:59Z</time>
      </trkpt>
      <trkpt lat="42.92143" lon="0.31083">
        <ele>1632.6</ele>
        <time>2022-09-25T08:09:05Z</time>
      </trkpt>
      <trkpt lat="42.9214" lon="0.31055">
        <ele>1632.6</ele>
        <time>2022-09-25T08:09:12Z</time>
      </trkpt>
      <trkpt lat="42.9214" lon="0.3103">
        <ele>1632.4</ele>
        <time>2022-09-25T08:09:20Z</time>
      </trkpt>
      <trkpt lat="42.92141" lon="0.31005">
        <ele>1633</ele>
        <time>2022-09-25T08:09:28Z</time>
      </trkpt>
      <trkpt lat="42.92138" lon="0.30979">
        <ele>1632.6</ele>
        <time>2022-09-25T08:09:36Z</time>
      </trkpt>
      <trkpt lat="42.92138" lon="0.30951">
        <ele>1632.8</ele>
        <time>2022-09-25T08:09:45Z</time>
      </trkpt>
      <trkpt lat="42.92139" lon="0.30926">
        <ele>1632.6</ele>
        <time>2022-09-25T08:09:53Z</time>
      </trkpt>
      <trkpt lat="42.92142" lon="0.30895">
        <ele>1631.8</ele>
        <time>2022-09-25T08:10:02Z</time>
      </trkpt>
      <trkpt lat="42.92142" lon="0.30884">
        <ele>1630.6</ele>
        <time>2022-09-25T08:10:05Z</time>
      </trkpt>
      <trkpt lat="42.92142" lon="0.30877">
        <ele>1629.4</ele>
        <time>2022-09-25T08:10:07Z</time>
      </trkpt>
      <trkpt lat="42.92142" lon="0.30864">
        <ele>1628.4</ele>
        <time>2022-09-25T08:10:11Z</time>
      </trkpt>
      <trkpt lat="42.92141" lon="0.30852">
        <ele>1627.2</ele>
        <time>2022-09-25T08:10:16Z</time>
      </trkpt>
      <trkpt lat="42.9214" lon="0.3084">
        <ele>1626</ele>
        <time>2022-09-25T08:10:20Z</time>
      </trkpt>
      <trkpt lat="42.9214" lon="0.30832">
        <ele>1625.6</ele>
        <time>2022-09-25T08:10:22Z</time>
      </trkpt>
      <trkpt lat="42.92139" lon="0.30824">
        <ele>1625</ele>
        <time>2022-09-25T08:10:24Z</time>
      </trkpt>
      <trkpt lat="42.92135" lon="0.30812">
        <ele>1624</ele>
        <time>2022-09-25T08:10:27Z</time>
      </trkpt>
      <trkpt lat="42.92133" lon="0.30808">
        <ele>1623.8</ele>
        <time>2022-09-25T08:10:28Z</time>
      </trkpt>
      <trkpt lat="42.92127" lon="0.30789">
        <ele>1623.2</ele>
        <time>2022-09-25T08:10:35Z</time>
      </trkpt>
      <trkpt lat="42.92126" lon="0.30789">
        <ele>1623.2</ele>
        <time>2022-09-25T08:10:39Z</time>
      </trkpt>
      <trkpt lat="42.92126" lon="0.30788">
        <ele>1622.8</ele>
        <time>2022-09-25T08:10:55Z</time>
      </trkpt>
      <trkpt lat="42.92125" lon="0.30785">
        <ele>1623</ele>
        <time>2022-09-25T08:10:57Z</time>
      </trkpt>
      <trkpt lat="42.92124" lon="0.30783">
        <ele>1623</ele>
        <time>2022-09-25T08:10:58Z</time>
      </trkpt>
      <trkpt lat="42.92119" lon="0.30768">
        <ele>1623</ele>
        <time>2022-09-25T08:11:04Z</time>
      </trkpt>
      <trkpt lat="42.92117" lon="0.30765">
        <ele>1623</ele>
        <time>2022-09-25T08:11:05Z</time>
      </trkpt>
      <trkpt lat="42.92111" lon="0.30752">
        <ele>1622.6</ele>
        <time>2022-09-25T08:11:10Z</time>
      </trkpt>
      <trkpt lat="42.9211" lon="0.30751">
        <ele>1622.4</ele>
        <time>2022-09-25T08:11:11Z</time>
      </trkpt>
      <trkpt lat="42.92102" lon="0.30735">
        <ele>1622</ele>
        <time>2022-09-25T08:11:17Z</time>
      </trkpt>
      <trkpt lat="42.92101" lon="0.30732">
        <ele>1621.8</ele>
        <time>2022-09-25T08:11:18Z</time>
      </trkpt>
      <trkpt lat="42.92093" lon="0.3072">
        <ele>1621.4</ele>
        <time>2022-09-25T08:11:23Z</time>
      </trkpt>
      <trkpt lat="42.92082" lon="0.30706">
        <ele>1621.4</ele>
        <time>2022-09-25T08:11:30Z</time>
      </trkpt>
      <trkpt lat="42.92073" lon="0.30696">
        <ele>1621.6</ele>
        <time>2022-09-25T08:11:36Z</time>
      </trkpt>
      <trkpt lat="42.92073" lon="0.30694">
        <ele>1621.6</ele>
        <time>2022-09-25T08:11:37Z</time>
      </trkpt>
      <trkpt lat="42.92064" lon="0.30684">
        <ele>1622</ele>
        <time>2022-09-25T08:11:42Z</time>
      </trkpt>
      <trkpt lat="42.9205" lon="0.30667">
        <ele>1622</ele>
        <time>2022-09-25T08:11:50Z</time>
      </trkpt>
      <trkpt lat="42.92038" lon="0.30658">
        <ele>1621.6</ele>
        <time>2022-09-25T08:11:56Z</time>
      </trkpt>
      <trkpt lat="42.92026" lon="0.30646">
        <ele>1621.4</ele>
        <time>2022-09-25T08:12:03Z</time>
      </trkpt>
      <trkpt lat="42.92004" lon="0.30629">
        <ele>1622</ele>
        <time>2022-09-25T08:12:13Z</time>
      </trkpt>
      <trkpt lat="42.91989" lon="0.30618">
        <ele>1622</ele>
        <time>2022-09-25T08:12:20Z</time>
      </trkpt>
      <trkpt lat="42.91971" lon="0.30604">
        <ele>1622</ele>
        <time>2022-09-25T08:12:28Z</time>
      </trkpt>
      <trkpt lat="42.91953" lon="0.30603">
        <ele>1621.6</ele>
        <time>2022-09-25T08:12:34Z</time>
      </trkpt>
      <trkpt lat="42.91935" lon="0.30604">
        <ele>1621.2</ele>
        <time>2022-09-25T08:12:40Z</time>
      </trkpt>
      <trkpt lat="42.91932" lon="0.30605">
        <ele>1621</ele>
        <time>2022-09-25T08:12:41Z</time>
      </trkpt>
      <trkpt lat="42.91923" lon="0.30607">
        <ele>1620.8</ele>
        <time>2022-09-25T08:12:45Z</time>
      </trkpt>
      <trkpt lat="42.91903" lon="0.30611">
        <ele>1621</ele>
        <time>2022-09-25T08:12:53Z</time>
      </trkpt>
      <trkpt lat="42.91881" lon="0.30619">
        <ele>1621.2</ele>
        <time>2022-09-25T08:13:02Z</time>
      </trkpt>
      <trkpt lat="42.91864" lon="0.30624">
        <ele>1621.6</ele>
        <time>2022-09-25T08:13:09Z</time>
      </trkpt>
      <trkpt lat="42.91843" lon="0.30632">
        <ele>1621.6</ele>
        <time>2022-09-25T08:13:17Z</time>
      </trkpt>
      <trkpt lat="42.91822" lon="0.3064">
        <ele>1621.2</ele>
        <time>2022-09-25T08:13:25Z</time>
      </trkpt>
      <trkpt lat="42.91802" lon="0.30644">
        <ele>1621</ele>
        <time>2022-09-25T08:13:32Z</time>
      </trkpt>
      <trkpt lat="42.91785" lon="0.30648">
        <ele>1620.2</ele>
        <time>2022-09-25T08:13:38Z</time>
      </trkpt>
      <trkpt lat="42.91783" lon="0.30648">
        <ele>1620</ele>
        <time>2022-09-25T08:13:39Z</time>
      </trkpt>
      <trkpt lat="42.91772" lon="0.30649">
        <ele>1619.4</ele>
        <time>2022-09-25T08:13:43Z</time>
      </trkpt>
      <trkpt lat="42.91763" lon="0.30653">
        <ele>1619</ele>
        <time>2022-09-25T08:13:46Z</time>
      </trkpt>
      <trkpt lat="42.91755" lon="0.30659">
        <ele>1618</ele>
        <time>2022-09-25T08:13:49Z</time>
      </trkpt>
      <trkpt lat="42.9175" lon="0.30663">
        <ele>1617.8</ele>
        <time>2022-09-25T08:13:51Z</time>
      </trkpt>
      <trkpt lat="42.9173" lon="0.3067">
        <ele>1617</ele>
        <time>2022-09-25T08:13:57Z</time>
      </trkpt>
      <trkpt lat="42.91725" lon="0.30674">
        <ele>1616.8</ele>
        <time>2022-09-25T08:13:59Z</time>
      </trkpt>
      <trkpt lat="42.91716" lon="0.30678">
        <ele>1616.2</ele>
        <time>2022-09-25T08:14:03Z</time>
      </trkpt>
      <trkpt lat="42.91703" lon="0.30685">
        <ele>1616</ele>
        <time>2022-09-25T08:14:08Z</time>
      </trkpt>
      <trkpt lat="42.917" lon="0.30687">
        <ele>1615.8</ele>
        <time>2022-09-25T08:14:12Z</time>
      </trkpt>
      <trkpt lat="42.917" lon="0.30687">
        <ele>1615.8</ele>
        <time>2022-09-25T08:14:13Z</time>
      </trkpt>
      <trkpt lat="42.91698" lon="0.30689">
        <ele>1614.8</ele>
        <time>2022-09-25T08:14:19Z</time>
      </trkpt>
      <trkpt lat="42.91694" lon="0.30693">
        <ele>1614.8</ele>
        <time>2022-09-25T08:14:21Z</time>
      </trkpt>
      <trkpt lat="42.91692" lon="0.30695">
        <ele>1614.8</ele>
        <time>2022-09-25T08:14:22Z</time>
      </trkpt>
      <trkpt lat="42.91682" lon="0.30705">
        <ele>1614.6</ele>
        <time>2022-09-25T08:14:27Z</time>
      </trkpt>
      <trkpt lat="42.91665" lon="0.30722">
        <ele>1615</ele>
        <time>2022-09-25T08:14:35Z</time>
      </trkpt>
      <trkpt lat="42.91654" lon="0.30739">
        <ele>1615.2</ele>
        <time>2022-09-25T08:14:42Z</time>
      </trkpt>
      <trkpt lat="42.91642" lon="0.30759">
        <ele>1615.2</ele>
        <time>2022-09-25T08:14:49Z</time>
      </trkpt>
      <trkpt lat="42.91633" lon="0.3078">
        <ele>1615.2</ele>
        <time>2022-09-25T08:14:56Z</time>
      </trkpt>
      <trkpt lat="42.9163" lon="0.30805">
        <ele>1615.2</ele>
        <time>2022-09-25T08:15:04Z</time>
      </trkpt>
      <trkpt lat="42.91631" lon="0.30835">
        <ele>1615.6</ele>
        <time>2022-09-25T08:15:13Z</time>
      </trkpt>
      <trkpt lat="42.91631" lon="0.30872">
        <ele>1615.4</ele>
        <time>2022-09-25T08:15:23Z</time>
      </trkpt>
      <trkpt lat="42.91634" lon="0.30899">
        <ele>1614.4</ele>
        <time>2022-09-25T08:15:29Z</time>
      </trkpt>
      <trkpt lat="42.91635" lon="0.30907">
        <ele>1613.8</ele>
        <time>2022-09-25T08:15:31Z</time>
      </trkpt>
      <trkpt lat="42.91636" lon="0.30928">
        <ele>1612.8</ele>
        <time>2022-09-25T08:15:37Z</time>
      </trkpt>
      <trkpt lat="42.91635" lon="0.30931">
        <ele>1612.8</ele>
        <time>2022-09-25T08:15:38Z</time>
      </trkpt>
      <trkpt lat="42.91634" lon="0.30945">
        <ele>1612.4</ele>
        <time>2022-09-25T08:15:43Z</time>
      </trkpt>
      <trkpt lat="42.91634" lon="0.30951">
        <ele>1611.8</ele>
        <time>2022-09-25T08:15:45Z</time>
      </trkpt>
      <trkpt lat="42.91634" lon="0.30957">
        <ele>1610.4</ele>
        <time>2022-09-25T08:15:48Z</time>
      </trkpt>
      <trkpt lat="42.91633" lon="0.30958">
        <ele>1610.2</ele>
        <time>2022-09-25T08:15:49Z</time>
      </trkpt>
      <trkpt lat="42.9163" lon="0.30961">
        <ele>1609.2</ele>
        <time>2022-09-25T08:15:52Z</time>
      </trkpt>
      <trkpt lat="42.91626" lon="0.30964">
        <ele>1608.2</ele>
        <time>2022-09-25T08:15:58Z</time>
      </trkpt>
      <trkpt lat="42.91615" lon="0.30972">
        <ele>1608.2</ele>
        <time>2022-09-25T08:16:04Z</time>
      </trkpt>
      <trkpt lat="42.91601" lon="0.30988">
        <ele>1608.2</ele>
        <time>2022-09-25T08:16:11Z</time>
      </trkpt>
      <trkpt lat="42.91592" lon="0.31008">
        <ele>1607.8</ele>
        <time>2022-09-25T08:16:18Z</time>
      </trkpt>
      <trkpt lat="42.91582" lon="0.31022">
        <ele>1607.2</ele>
        <time>2022-09-25T08:16:23Z</time>
      </trkpt>
      <trkpt lat="42.91578" lon="0.31022">
        <ele>1607.2</ele>
        <time>2022-09-25T08:16:24Z</time>
      </trkpt>
      <trkpt lat="42.91568" lon="0.31022">
        <ele>1606.8</ele>
        <time>2022-09-25T08:16:28Z</time>
      </trkpt>
      <trkpt lat="42.91562" lon="0.31024">
        <ele>1606.6</ele>
        <time>2022-09-25T08:16:31Z</time>
      </trkpt>
      <trkpt lat="42.91555" lon="0.31025">
        <ele>1606.6</ele>
        <time>2022-09-25T08:16:34Z</time>
      </trkpt>
      <trkpt lat="42.91533" lon="0.31032">
        <ele>1606.6</ele>
        <time>2022-09-25T08:16:43Z</time>
      </trkpt>
      <trkpt lat="42.91515" lon="0.31034">
        <ele>1606.2</ele>
        <time>2022-09-25T08:16:51Z</time>
      </trkpt>
      <trkpt lat="42.91507" lon="0.31035">
        <ele>1606.2</ele>
        <time>2022-09-25T08:16:54Z</time>
      </trkpt>
      <trkpt lat="42.91498" lon="0.31037">
        <ele>1606</ele>
        <time>2022-09-25T08:16:58Z</time>
      </trkpt>
      <trkpt lat="42.91488" lon="0.31038">
        <ele>1605.8</ele>
        <time>2022-09-25T08:17:03Z</time>
      </trkpt>
      <trkpt lat="42.91467" lon="0.31038">
        <ele>1605.6</ele>
        <time>2022-09-25T08:17:10Z</time>
      </trkpt>
      <trkpt lat="42.91453" lon="0.31036">
        <ele>1605.2</ele>
        <time>2022-09-25T08:17:15Z</time>
      </trkpt>
      <trkpt lat="42.91444" lon="0.31035">
        <ele>1605</ele>
        <time>2022-09-25T08:17:19Z</time>
      </trkpt>
      <trkpt lat="42.91424" lon="0.3103">
        <ele>1604.8</ele>
        <time>2022-09-25T08:17:27Z</time>
      </trkpt>
      <trkpt lat="42.91415" lon="0.31023">
        <ele>1604.2</ele>
        <time>2022-09-25T08:17:32Z</time>
      </trkpt>
      <trkpt lat="42.91413" lon="0.31022">
        <ele>1603.8</ele>
        <time>2022-09-25T08:17:34Z</time>
      </trkpt>
      <trkpt lat="42.91403" lon="0.31018">
        <ele>1603</ele>
        <time>2022-09-25T08:17:39Z</time>
      </trkpt>
      <trkpt lat="42.914" lon="0.31016">
        <ele>1602.4</ele>
        <time>2022-09-25T08:17:41Z</time>
      </trkpt>
      <trkpt lat="42.91395" lon="0.31011">
        <ele>1602</ele>
        <time>2022-09-25T08:17:45Z</time>
      </trkpt>
      <trkpt lat="42.91393" lon="0.31009">
        <ele>1601.6</ele>
        <time>2022-09-25T08:17:46Z</time>
      </trkpt>
      <trkpt lat="42.91391" lon="0.31007">
        <ele>1601.4</ele>
        <time>2022-09-25T08:17:48Z</time>
      </trkpt>
      <trkpt lat="42.91388" lon="0.31005">
        <ele>1600.8</ele>
        <time>2022-09-25T08:17:50Z</time>
      </trkpt>
      <trkpt lat="42.91386" lon="0.31003">
        <ele>1600.6</ele>
        <time>2022-09-25T08:17:51Z</time>
      </trkpt>
      <trkpt lat="42.91378" lon="0.30997">
        <ele>1599.4</ele>
        <time>2022-09-25T08:17:54Z</time>
      </trkpt>
      <trkpt lat="42.91374" lon="0.30994">
        <ele>1599.4</ele>
        <time>2022-09-25T08:17:55Z</time>
      </trkpt>
      <trkpt lat="42.91361" lon="0.30984">
        <ele>1598.2</ele>
        <time>2022-09-25T08:17:59Z</time>
      </trkpt>
      <trkpt lat="42.91356" lon="0.30978">
        <ele>1597.8</ele>
        <time>2022-09-25T08:18:01Z</time>
      </trkpt>
      <trkpt lat="42.91351" lon="0.30972">
        <ele>1597.2</ele>
        <time>2022-09-25T08:18:03Z</time>
      </trkpt>
      <trkpt lat="42.91347" lon="0.30966">
        <ele>1596.8</ele>
        <time>2022-09-25T08:18:06Z</time>
      </trkpt>
      <trkpt lat="42.91339" lon="0.30955">
        <ele>1596.8</ele>
        <time>2022-09-25T08:18:13Z</time>
      </trkpt>
      <trkpt lat="42.91336" lon="0.30951">
        <ele>1596.2</ele>
        <time>2022-09-25T08:18:18Z</time>
      </trkpt>
      <trkpt lat="42.91336" lon="0.30951">
        <ele>1596.4</ele>
        <time>2022-09-25T08:18:19Z</time>
      </trkpt>
      <trkpt lat="42.91331" lon="0.30944">
        <ele>1595.6</ele>
        <time>2022-09-25T08:18:23Z</time>
      </trkpt>
      <trkpt lat="42.91328" lon="0.30939">
        <ele>1595.4</ele>
        <time>2022-09-25T08:18:25Z</time>
      </trkpt>
      <trkpt lat="42.91325" lon="0.30932">
        <ele>1595</ele>
        <time>2022-09-25T08:18:29Z</time>
      </trkpt>
      <trkpt lat="42.91318" lon="0.3092">
        <ele>1594.8</ele>
        <time>2022-09-25T08:18:34Z</time>
      </trkpt>
      <trkpt lat="42.91317" lon="0.30918">
        <ele>1594.8</ele>
        <time>2022-09-25T08:18:35Z</time>
      </trkpt>
      <trkpt lat="42.91308" lon="0.309">
        <ele>1594.8</ele>
        <time>2022-09-25T08:18:43Z</time>
      </trkpt>
      <trkpt lat="42.91304" lon="0.30885">
        <ele>1596.4</ele>
        <time>2022-09-25T08:18:50Z</time>
      </trkpt>
      <trkpt lat="42.91303" lon="0.30884">
        <ele>1596.6</ele>
        <time>2022-09-25T08:18:51Z</time>
      </trkpt>
      <trkpt lat="42.91303" lon="0.30876">
        <ele>1598</ele>
        <time>2022-09-25T08:18:55Z</time>
      </trkpt>
      <trkpt lat="42.91302" lon="0.30874">
        <ele>1598</ele>
        <time>2022-09-25T08:18:56Z</time>
      </trkpt>
      <trkpt lat="42.91302" lon="0.30872">
        <ele>1598.4</ele>
        <time>2022-09-25T08:18:57Z</time>
      </trkpt>
      <trkpt lat="42.91301" lon="0.30863">
        <ele>1599.4</ele>
        <time>2022-09-25T08:19:01Z</time>
      </trkpt>
      <trkpt lat="42.91301" lon="0.30855">
        <ele>1600.2</ele>
        <time>2022-09-25T08:19:05Z</time>
      </trkpt>
      <trkpt lat="42.91301" lon="0.3085">
        <ele>1600.4</ele>
        <time>2022-09-25T08:19:07Z</time>
      </trkpt>
      <trkpt lat="42.91301" lon="0.30836">
        <ele>1601</ele>
        <time>2022-09-25T08:19:13Z</time>
      </trkpt>
      <trkpt lat="42.91298" lon="0.30825">
        <ele>1601.4</ele>
        <time>2022-09-25T08:19:19Z</time>
      </trkpt>
      <trkpt lat="42.91296" lon="0.30818">
        <ele>1602</ele>
        <time>2022-09-25T08:19:23Z</time>
      </trkpt>
      <trkpt lat="42.91294" lon="0.30812">
        <ele>1602.6</ele>
        <time>2022-09-25T08:19:26Z</time>
      </trkpt>
      <trkpt lat="42.91293" lon="0.30806">
        <ele>1603.2</ele>
        <time>2022-09-25T08:19:29Z</time>
      </trkpt>
      <trkpt lat="42.9129" lon="0.30798">
        <ele>1603.8</ele>
        <time>2022-09-25T08:19:33Z</time>
      </trkpt>
      <trkpt lat="42.91288" lon="0.30789">
        <ele>1604.4</ele>
        <time>2022-09-25T08:19:38Z</time>
      </trkpt>
      <trkpt lat="42.91287" lon="0.30785">
        <ele>1604.6</ele>
        <time>2022-09-25T08:19:40Z</time>
      </trkpt>
      <trkpt lat="42.91284" lon="0.30782">
        <ele>1604.8</ele>
        <time>2022-09-25T08:19:43Z</time>
      </trkpt>
      <trkpt lat="42.91283" lon="0.3078">
        <ele>1604.8</ele>
        <time>2022-09-25T08:19:44Z</time>
      </trkpt>
      <trkpt lat="42.91274" lon="0.30764">
        <ele>1604.8</ele>
        <time>2022-09-25T08:19:53Z</time>
      </trkpt>
      <trkpt lat="42.91261" lon="0.30746">
        <ele>1604.4</ele>
        <time>2022-09-25T08:20:02Z</time>
      </trkpt>
      <trkpt lat="42.91247" lon="0.3073">
        <ele>1604</ele>
        <time>2022-09-25T08:20:11Z</time>
      </trkpt>
      <trkpt lat="42.91243" lon="0.30726">
        <ele>1604</ele>
        <time>2022-09-25T08:20:14Z</time>
      </trkpt>
      <trkpt lat="42.91242" lon="0.30724">
        <ele>1604</ele>
        <time>2022-09-25T08:20:15Z</time>
      </trkpt>
      <trkpt lat="42.9124" lon="0.30721">
        <ele>1604.2</ele>
        <time>2022-09-25T08:20:17Z</time>
      </trkpt>
      <trkpt lat="42.91234" lon="0.30708">
        <ele>1605.4</ele>
        <time>2022-09-25T08:20:25Z</time>
      </trkpt>
      <trkpt lat="42.9123" lon="0.30695">
        <ele>1605.8</ele>
        <time>2022-09-25T08:20:32Z</time>
      </trkpt>
      <trkpt lat="42.91219" lon="0.30681">
        <ele>1605.8</ele>
        <time>2022-09-25T08:20:42Z</time>
      </trkpt>
      <trkpt lat="42.91219" lon="0.3068">
        <ele>1606.2</ele>
        <time>2022-09-25T08:20:47Z</time>
      </trkpt>
      <trkpt lat="42.91217" lon="0.30677">
        <ele>1606.4</ele>
        <time>2022-09-25T08:20:53Z</time>
      </trkpt>
      <trkpt lat="42.91215" lon="0.30674">
        <ele>1606.4</ele>
        <time>2022-09-25T08:20:55Z</time>
      </trkpt>
      <trkpt lat="42.91205" lon="0.30666">
        <ele>1606.6</ele>
        <time>2022-09-25T08:21:02Z</time>
      </trkpt>
      <trkpt lat="42.91193" lon="0.30662">
        <ele>1607.2</ele>
        <time>2022-09-25T08:21:10Z</time>
      </trkpt>
      <trkpt lat="42.91192" lon="0.30661">
        <ele>1607.2</ele>
        <time>2022-09-25T08:21:11Z</time>
      </trkpt>
      <trkpt lat="42.91177" lon="0.30657">
        <ele>1608</ele>
        <time>2022-09-25T08:21:20Z</time>
      </trkpt>
      <trkpt lat="42.91163" lon="0.30653">
        <ele>1608</ele>
        <time>2022-09-25T08:21:28Z</time>
      </trkpt>
      <trkpt lat="42.91155" lon="0.3065">
        <ele>1608.2</ele>
        <time>2022-09-25T08:21:33Z</time>
      </trkpt>
      <trkpt lat="42.91146" lon="0.30648">
        <ele>1608.4</ele>
        <time>2022-09-25T08:21:38Z</time>
      </trkpt>
      <trkpt lat="42.9113" lon="0.30643">
        <ele>1609.2</ele>
        <time>2022-09-25T08:21:48Z</time>
      </trkpt>
      <trkpt lat="42.91127" lon="0.30641">
        <ele>1609.2</ele>
        <time>2022-09-25T08:21:50Z</time>
      </trkpt>
      <trkpt lat="42.91121" lon="0.30637">
        <ele>1609.4</ele>
        <time>2022-09-25T08:21:55Z</time>
      </trkpt>
      <trkpt lat="42.91106" lon="0.30632">
        <ele>1609.4</ele>
        <time>2022-09-25T08:22:05Z</time>
      </trkpt>
      <trkpt lat="42.91094" lon="0.30628">
        <ele>1609.2</ele>
        <time>2022-09-25T08:22:11Z</time>
      </trkpt>
      <trkpt lat="42.91088" lon="0.30626">
        <ele>1609</ele>
        <time>2022-09-25T08:22:16Z</time>
      </trkpt>
      <trkpt lat="42.91072" lon="0.30625">
        <ele>1608.6</ele>
        <time>2022-09-25T08:22:24Z</time>
      </trkpt>
      <trkpt lat="42.91056" lon="0.30625">
        <ele>1608.4</ele>
        <time>2022-09-25T08:22:32Z</time>
      </trkpt>
      <trkpt lat="42.91053" lon="0.30626">
        <ele>1608.4</ele>
        <time>2022-09-25T08:22:34Z</time>
      </trkpt>
      <trkpt lat="42.91044" lon="0.30627">
        <ele>1608.6</ele>
        <time>2022-09-25T08:22:40Z</time>
      </trkpt>
      <trkpt lat="42.91026" lon="0.30628">
        <ele>1608.6</ele>
        <time>2022-09-25T08:22:49Z</time>
      </trkpt>
      <trkpt lat="42.91016" lon="0.30631">
        <ele>1608.6</ele>
        <time>2022-09-25T08:22:54Z</time>
      </trkpt>
      <trkpt lat="42.90997" lon="0.30637">
        <ele>1608.4</ele>
        <time>2022-09-25T08:23:03Z</time>
      </trkpt>
      <trkpt lat="42.90985" lon="0.30641">
        <ele>1608.6</ele>
        <time>2022-09-25T08:23:09Z</time>
      </trkpt>
      <trkpt lat="42.90973" lon="0.30646">
        <ele>1608.4</ele>
        <time>2022-09-25T08:23:15Z</time>
      </trkpt>
      <trkpt lat="42.90972" lon="0.30647">
        <ele>1608.8</ele>
        <time>2022-09-25T08:23:19Z</time>
      </trkpt>
      <trkpt lat="42.90965" lon="0.30648">
        <ele>1608.8</ele>
        <time>2022-09-25T08:23:23Z</time>
      </trkpt>
      <trkpt lat="42.9095" lon="0.30653">
        <ele>1608.2</ele>
        <time>2022-09-25T08:23:29Z</time>
      </trkpt>
      <trkpt lat="42.90945" lon="0.30654">
        <ele>1608.2</ele>
        <time>2022-09-25T08:23:31Z</time>
      </trkpt>
      <trkpt lat="42.90925" lon="0.3066">
        <ele>1608</ele>
        <time>2022-09-25T08:23:39Z</time>
      </trkpt>
      <trkpt lat="42.90909" lon="0.30665">
        <ele>1607.8</ele>
        <time>2022-09-25T08:23:44Z</time>
      </trkpt>
      <trkpt lat="42.90891" lon="0.30674">
        <ele>1607.2</ele>
        <time>2022-09-25T08:23:50Z</time>
      </trkpt>
      <trkpt lat="42.90864" lon="0.30675">
        <ele>1606.4</ele>
        <time>2022-09-25T08:23:58Z</time>
      </trkpt>
      <trkpt lat="42.9085" lon="0.30674">
        <ele>1606</ele>
        <time>2022-09-25T08:24:02Z</time>
      </trkpt>
      <trkpt lat="42.90847" lon="0.30672">
        <ele>1605.8</ele>
        <time>2022-09-25T08:24:03Z</time>
      </trkpt>
      <trkpt lat="42.90839" lon="0.30667">
        <ele>1605.6</ele>
        <time>2022-09-25T08:24:05Z</time>
      </trkpt>
      <trkpt lat="42.90832" lon="0.30658">
        <ele>1605.4</ele>
        <time>2022-09-25T08:24:07Z</time>
      </trkpt>
      <trkpt lat="42.90825" lon="0.3065">
        <ele>1605.2</ele>
        <time>2022-09-25T08:24:09Z</time>
      </trkpt>
      <trkpt lat="42.90823" lon="0.30646">
        <ele>1604.8</ele>
        <time>2022-09-25T08:24:10Z</time>
      </trkpt>
      <trkpt lat="42.90818" lon="0.30638">
        <ele>1604</ele>
        <time>2022-09-25T08:24:12Z</time>
      </trkpt>
      <trkpt lat="42.90816" lon="0.30635">
        <ele>1603.6</ele>
        <time>2022-09-25T08:24:13Z</time>
      </trkpt>
      <trkpt lat="42.9081" lon="0.30628">
        <ele>1603.2</ele>
        <time>2022-09-25T08:24:16Z</time>
      </trkpt>
      <trkpt lat="42.90808" lon="0.30626">
        <ele>1603.2</ele>
        <time>2022-09-25T08:24:17Z</time>
      </trkpt>
      <trkpt lat="42.908" lon="0.30612">
        <ele>1603.2</ele>
        <time>2022-09-25T08:24:22Z</time>
      </trkpt>
      <trkpt lat="42.90784" lon="0.30588">
        <ele>1603.8</ele>
        <time>2022-09-25T08:24:31Z</time>
      </trkpt>
      <trkpt lat="42.90772" lon="0.30561">
        <ele>1604.6</ele>
        <time>2022-09-25T08:24:39Z</time>
      </trkpt>
      <trkpt lat="42.9076" lon="0.30543">
        <ele>1604.4</ele>
        <time>2022-09-25T08:24:45Z</time>
      </trkpt>
      <trkpt lat="42.90748" lon="0.30537">
        <ele>1603</ele>
        <time>2022-09-25T08:24:50Z</time>
      </trkpt>
      <trkpt lat="42.90745" lon="0.30537">
        <ele>1602.8</ele>
        <time>2022-09-25T08:24:51Z</time>
      </trkpt>
      <trkpt lat="42.90735" lon="0.30538">
        <ele>1601.4</ele>
        <time>2022-09-25T08:24:55Z</time>
      </trkpt>
      <trkpt lat="42.90724" lon="0.30533">
        <ele>1600</ele>
        <time>2022-09-25T08:25:01Z</time>
      </trkpt>
      <trkpt lat="42.90719" lon="0.30533">
        <ele>1598.8</ele>
        <time>2022-09-25T08:25:05Z</time>
      </trkpt>
      <trkpt lat="42.90718" lon="0.30533">
        <ele>1598.4</ele>
        <time>2022-09-25T08:25:07Z</time>
      </trkpt>
      <trkpt lat="42.90718" lon="0.30533">
        <ele>1597.8</ele>
        <time>2022-09-25T08:25:11Z</time>
      </trkpt>
      <trkpt lat="42.90717" lon="0.30532">
        <ele>1597.6</ele>
        <time>2022-09-25T08:25:15Z</time>
      </trkpt>
      <trkpt lat="42.90713" lon="0.3053">
        <ele>1596.8</ele>
        <time>2022-09-25T08:25:21Z</time>
      </trkpt>
      <trkpt lat="42.90712" lon="0.3053">
        <ele>1596.6</ele>
        <time>2022-09-25T08:25:22Z</time>
      </trkpt>
      <trkpt lat="42.90707" lon="0.30532">
        <ele>1595.8</ele>
        <time>2022-09-25T08:25:26Z</time>
      </trkpt>
      <trkpt lat="42.90701" lon="0.30531">
        <ele>1595.4</ele>
        <time>2022-09-25T08:25:29Z</time>
      </trkpt>
      <trkpt lat="42.90691" lon="0.30527">
        <ele>1594.4</ele>
        <time>2022-09-25T08:25:34Z</time>
      </trkpt>
      <trkpt lat="42.90688" lon="0.30527">
        <ele>1593.8</ele>
        <time>2022-09-25T08:25:35Z</time>
      </trkpt>
      <trkpt lat="42.90686" lon="0.30527">
        <ele>1593</ele>
        <time>2022-09-25T08:25:36Z</time>
      </trkpt>
      <trkpt lat="42.9068" lon="0.30527">
        <ele>1590.8</ele>
        <time>2022-09-25T08:25:39Z</time>
      </trkpt>
      <trkpt lat="42.90679" lon="0.30527">
        <ele>1590.4</ele>
        <time>2022-09-25T08:25:40Z</time>
      </trkpt>
      <trkpt lat="42.90678" lon="0.30527">
        <ele>1589.8</ele>
        <time>2022-09-25T08:25:42Z</time>
      </trkpt>
      <trkpt lat="42.90678" lon="0.30527">
        <ele>1589.2</ele>
        <time>2022-09-25T08:25:44Z</time>
      </trkpt>
      <trkpt lat="42.90679" lon="0.30526">
        <ele>1588.6</ele>
        <time>2022-09-25T08:25:47Z</time>
      </trkpt>
      <trkpt lat="42.90677" lon="0.30526">
        <ele>1588.6</ele>
        <time>2022-09-25T08:25:48Z</time>
      </trkpt>
      <trkpt lat="42.90671" lon="0.30522">
        <ele>1588.4</ele>
        <time>2022-09-25T08:25:51Z</time>
      </trkpt>
      <trkpt lat="42.90663" lon="0.3051">
        <ele>1587</ele>
        <time>2022-09-25T08:25:56Z</time>
      </trkpt>
      <trkpt lat="42.9066" lon="0.30505">
        <ele>1585.6</ele>
        <time>2022-09-25T08:25:58Z</time>
      </trkpt>
      <trkpt lat="42.90657" lon="0.30503">
        <ele>1584</ele>
        <time>2022-09-25T08:26:00Z</time>
      </trkpt>
      <trkpt lat="42.90656" lon="0.30503">
        <ele>1583.8</ele>
        <time>2022-09-25T08:26:01Z</time>
      </trkpt>
      <trkpt lat="42.90653" lon="0.30502">
        <ele>1582.8</ele>
        <time>2022-09-25T08:26:03Z</time>
      </trkpt>
      <trkpt lat="42.90646" lon="0.30499">
        <ele>1581.6</ele>
        <time>2022-09-25T08:26:06Z</time>
      </trkpt>
      <trkpt lat="42.90644" lon="0.30498">
        <ele>1581.4</ele>
        <time>2022-09-25T08:26:07Z</time>
      </trkpt>
      <trkpt lat="42.90637" lon="0.30496">
        <ele>1580.4</ele>
        <time>2022-09-25T08:26:10Z</time>
      </trkpt>
      <trkpt lat="42.9063" lon="0.30494">
        <ele>1579.4</ele>
        <time>2022-09-25T08:26:14Z</time>
      </trkpt>
      <trkpt lat="42.90624" lon="0.30491">
        <ele>1577.6</ele>
        <time>2022-09-25T08:26:18Z</time>
      </trkpt>
      <trkpt lat="42.9062" lon="0.30492">
        <ele>1576.8</ele>
        <time>2022-09-25T08:26:20Z</time>
      </trkpt>
      <trkpt lat="42.90618" lon="0.30492">
        <ele>1576.6</ele>
        <time>2022-09-25T08:26:21Z</time>
      </trkpt>
      <trkpt lat="42.90615" lon="0.30491">
        <ele>1576.4</ele>
        <time>2022-09-25T08:26:22Z</time>
      </trkpt>
      <trkpt lat="42.9061" lon="0.30488">
        <ele>1575.6</ele>
        <time>2022-09-25T08:26:24Z</time>
      </trkpt>
      <trkpt lat="42.90607" lon="0.30487">
        <ele>1575.4</ele>
        <time>2022-09-25T08:26:25Z</time>
      </trkpt>
      <trkpt lat="42.90599" lon="0.30486">
        <ele>1574.2</ele>
        <time>2022-09-25T08:26:28Z</time>
      </trkpt>
      <trkpt lat="42.9059" lon="0.30484">
        <ele>1572.6</ele>
        <time>2022-09-25T08:26:31Z</time>
      </trkpt>
      <trkpt lat="42.90587" lon="0.30483">
        <ele>1572.2</ele>
        <time>2022-09-25T08:26:32Z</time>
      </trkpt>
      <trkpt lat="42.90585" lon="0.30482">
        <ele>1571.4</ele>
        <time>2022-09-25T08:26:33Z</time>
      </trkpt>
      <trkpt lat="42.90582" lon="0.3048">
        <ele>1570.6</ele>
        <time>2022-09-25T08:26:35Z</time>
      </trkpt>
      <trkpt lat="42.90579" lon="0.30478">
        <ele>1569.8</ele>
        <time>2022-09-25T08:26:37Z</time>
      </trkpt>
      <trkpt lat="42.90574" lon="0.30474">
        <ele>1568.8</ele>
        <time>2022-09-25T08:26:39Z</time>
      </trkpt>
      <trkpt lat="42.9057" lon="0.30472">
        <ele>1568</ele>
        <time>2022-09-25T08:26:41Z</time>
      </trkpt>
      <trkpt lat="42.90568" lon="0.30471">
        <ele>1567.8</ele>
        <time>2022-09-25T08:26:42Z</time>
      </trkpt>
      <trkpt lat="42.90564" lon="0.30468">
        <ele>1566.6</ele>
        <time>2022-09-25T08:26:46Z</time>
      </trkpt>
      <trkpt lat="42.90563" lon="0.30468">
        <ele>1565.6</ele>
        <time>2022-09-25T08:26:49Z</time>
      </trkpt>
      <trkpt lat="42.90563" lon="0.30468">
        <ele>1565</ele>
        <time>2022-09-25T08:26:51Z</time>
      </trkpt>
      <trkpt lat="42.90561" lon="0.30468">
        <ele>1564.4</ele>
        <time>2022-09-25T08:26:55Z</time>
      </trkpt>
      <trkpt lat="42.90561" lon="0.30468">
        <ele>1564.2</ele>
        <time>2022-09-25T08:26:58Z</time>
      </trkpt>
      <trkpt lat="42.90561" lon="0.30468">
        <ele>1563.6</ele>
        <time>2022-09-25T08:27:07Z</time>
      </trkpt>
      <trkpt lat="42.90559" lon="0.30468">
        <ele>1563.6</ele>
        <time>2022-09-25T08:27:08Z</time>
      </trkpt>
      <trkpt lat="42.90556" lon="0.30467">
        <ele>1563.4</ele>
        <time>2022-09-25T08:27:09Z</time>
      </trkpt>
      <trkpt lat="42.90537" lon="0.30469">
        <ele>1562.4</ele>
        <time>2022-09-25T08:27:16Z</time>
      </trkpt>
      <trkpt lat="42.9053" lon="0.30471">
        <ele>1561.2</ele>
        <time>2022-09-25T08:27:19Z</time>
      </trkpt>
      <trkpt lat="42.90524" lon="0.30473">
        <ele>1560.6</ele>
        <time>2022-09-25T08:27:23Z</time>
      </trkpt>
      <trkpt lat="42.9052" lon="0.30474">
        <ele>1560.2</ele>
        <time>2022-09-25T08:27:25Z</time>
      </trkpt>
      <trkpt lat="42.90509" lon="0.30479">
        <ele>1559.2</ele>
        <time>2022-09-25T08:27:30Z</time>
      </trkpt>
      <trkpt lat="42.90502" lon="0.30482">
        <ele>1558</ele>
        <time>2022-09-25T08:27:34Z</time>
      </trkpt>
      <trkpt lat="42.90487" lon="0.30489">
        <ele>1556.8</ele>
        <time>2022-09-25T08:27:40Z</time>
      </trkpt>
      <trkpt lat="42.90474" lon="0.30496">
        <ele>1555.8</ele>
        <time>2022-09-25T08:27:47Z</time>
      </trkpt>
      <trkpt lat="42.90464" lon="0.30497">
        <ele>1554.8</ele>
        <time>2022-09-25T08:27:52Z</time>
      </trkpt>
      <trkpt lat="42.90462" lon="0.30497">
        <ele>1554.2</ele>
        <time>2022-09-25T08:27:53Z</time>
      </trkpt>
      <trkpt lat="42.90458" lon="0.30496">
        <ele>1553.6</ele>
        <time>2022-09-25T08:27:55Z</time>
      </trkpt>
      <trkpt lat="42.9045" lon="0.30497">
        <ele>1552.4</ele>
        <time>2022-09-25T08:27:59Z</time>
      </trkpt>
      <trkpt lat="42.90448" lon="0.30498">
        <ele>1552</ele>
        <time>2022-09-25T08:28:01Z</time>
      </trkpt>
      <trkpt lat="42.90448" lon="0.30498">
        <ele>1551.4</ele>
        <time>2022-09-25T08:28:04Z</time>
      </trkpt>
      <trkpt lat="42.90446" lon="0.30498">
        <ele>1550.8</ele>
        <time>2022-09-25T08:28:09Z</time>
      </trkpt>
      <trkpt lat="42.90439" lon="0.30497">
        <ele>1550.4</ele>
        <time>2022-09-25T08:28:13Z</time>
      </trkpt>
      <trkpt lat="42.90437" lon="0.30497">
        <ele>1550.4</ele>
        <time>2022-09-25T08:28:14Z</time>
      </trkpt>
      <trkpt lat="42.90418" lon="0.30499">
        <ele>1549.2</ele>
        <time>2022-09-25T08:28:20Z</time>
      </trkpt>
      <trkpt lat="42.90412" lon="0.30499">
        <ele>1548</ele>
        <time>2022-09-25T08:28:22Z</time>
      </trkpt>
      <trkpt lat="42.90402" lon="0.30501">
        <ele>1546.8</ele>
        <time>2022-09-25T08:28:25Z</time>
      </trkpt>
      <trkpt lat="42.90399" lon="0.30501">
        <ele>1546.2</ele>
        <time>2022-09-25T08:28:26Z</time>
      </trkpt>
      <trkpt lat="42.90393" lon="0.30501">
        <ele>1545</ele>
        <time>2022-09-25T08:28:28Z</time>
      </trkpt>
      <trkpt lat="42.90388" lon="0.30502">
        <ele>1544.2</ele>
        <time>2022-09-25T08:28:30Z</time>
      </trkpt>
      <trkpt lat="42.90383" lon="0.30504">
        <ele>1543.6</ele>
        <time>2022-09-25T08:28:32Z</time>
      </trkpt>
      <trkpt lat="42.90374" lon="0.30506">
        <ele>1542.6</ele>
        <time>2022-09-25T08:28:35Z</time>
      </trkpt>
      <trkpt lat="42.90362" lon="0.3051">
        <ele>1541.4</ele>
        <time>2022-09-25T08:28:38Z</time>
      </trkpt>
      <trkpt lat="42.90358" lon="0.30511">
        <ele>1541.2</ele>
        <time>2022-09-25T08:28:39Z</time>
      </trkpt>
      <trkpt lat="42.90353" lon="0.30512">
        <ele>1541.2</ele>
        <time>2022-09-25T08:28:40Z</time>
      </trkpt>
      <trkpt lat="42.90343" lon="0.30512">
        <ele>1540.2</ele>
        <time>2022-09-25T08:28:42Z</time>
      </trkpt>
      <trkpt lat="42.90333" lon="0.30513">
        <ele>1539</ele>
        <time>2022-09-25T08:28:44Z</time>
      </trkpt>
      <trkpt lat="42.90325" lon="0.30514">
        <ele>1538</ele>
        <time>2022-09-25T08:28:46Z</time>
      </trkpt>
      <trkpt lat="42.9032" lon="0.30514">
        <ele>1537.6</ele>
        <time>2022-09-25T08:28:47Z</time>
      </trkpt>
      <trkpt lat="42.90313" lon="0.30513">
        <ele>1536.6</ele>
        <time>2022-09-25T08:28:49Z</time>
      </trkpt>
      <trkpt lat="42.90307" lon="0.30512">
        <ele>1535.2</ele>
        <time>2022-09-25T08:28:51Z</time>
      </trkpt>
      <trkpt lat="42.90298" lon="0.30514">
        <ele>1534</ele>
        <time>2022-09-25T08:28:54Z</time>
      </trkpt>
      <trkpt lat="42.90292" lon="0.30514">
        <ele>1533</ele>
        <time>2022-09-25T08:28:57Z</time>
      </trkpt>
      <trkpt lat="42.9029" lon="0.30513">
        <ele>1533</ele>
        <time>2022-09-25T08:28:58Z</time>
      </trkpt>
      <trkpt lat="42.90281" lon="0.30512">
        <ele>1532.6</ele>
        <time>2022-09-25T08:29:02Z</time>
      </trkpt>
      <trkpt lat="42.90267" lon="0.30509">
        <ele>1533.2</ele>
        <time>2022-09-25T08:29:08Z</time>
      </trkpt>
      <trkpt lat="42.90252" lon="0.30508">
        <ele>1534.2</ele>
        <time>2022-09-25T08:29:15Z</time>
      </trkpt>
      <trkpt lat="42.90248" lon="0.30508">
        <ele>1534.4</ele>
        <time>2022-09-25T08:29:17Z</time>
      </trkpt>
      <trkpt lat="42.90233" lon="0.30513">
        <ele>1535.2</ele>
        <time>2022-09-25T08:29:24Z</time>
      </trkpt>
      <trkpt lat="42.90231" lon="0.30514">
        <ele>1535.4</ele>
        <time>2022-09-25T08:29:25Z</time>
      </trkpt>
      <trkpt lat="42.90218" lon="0.30522">
        <ele>1536.4</ele>
        <time>2022-09-25T08:29:32Z</time>
      </trkpt>
      <trkpt lat="42.90216" lon="0.30524">
        <ele>1536.6</ele>
        <time>2022-09-25T08:29:33Z</time>
      </trkpt>
      <trkpt lat="42.90202" lon="0.30532">
        <ele>1537.4</ele>
        <time>2022-09-25T08:29:40Z</time>
      </trkpt>
      <trkpt lat="42.902" lon="0.30533">
        <ele>1537.6</ele>
        <time>2022-09-25T08:29:41Z</time>
      </trkpt>
      <trkpt lat="42.90183" lon="0.30546">
        <ele>1538.4</ele>
        <time>2022-09-25T08:29:49Z</time>
      </trkpt>
      <trkpt lat="42.90177" lon="0.30552">
        <ele>1538.6</ele>
        <time>2022-09-25T08:29:52Z</time>
      </trkpt>
      <trkpt lat="42.90166" lon="0.3056">
        <ele>1538.6</ele>
        <time>2022-09-25T08:29:56Z</time>
      </trkpt>
      <trkpt lat="42.90148" lon="0.30572">
        <ele>1539</ele>
        <time>2022-09-25T08:30:04Z</time>
      </trkpt>
      <trkpt lat="42.90135" lon="0.30576">
        <ele>1539.6</ele>
        <time>2022-09-25T08:30:10Z</time>
      </trkpt>
      <trkpt lat="42.90117" lon="0.30564">
        <ele>1539.4</ele>
        <time>2022-09-25T08:30:17Z</time>
      </trkpt>
      <trkpt lat="42.90112" lon="0.30561">
        <ele>1539.6</ele>
        <time>2022-09-25T08:30:19Z</time>
      </trkpt>
      <trkpt lat="42.90096" lon="0.30548">
        <ele>1540.8</ele>
        <time>2022-09-25T08:30:26Z</time>
      </trkpt>
      <trkpt lat="42.90085" lon="0.30539">
        <ele>1542</ele>
        <time>2022-09-25T08:30:31Z</time>
      </trkpt>
      <trkpt lat="42.90076" lon="0.30531">
        <ele>1542.6</ele>
        <time>2022-09-25T08:30:35Z</time>
      </trkpt>
      <trkpt lat="42.90072" lon="0.30527">
        <ele>1543</ele>
        <time>2022-09-25T08:30:37Z</time>
      </trkpt>
      <trkpt lat="42.90061" lon="0.30514">
        <ele>1543.8</ele>
        <time>2022-09-25T08:30:42Z</time>
      </trkpt>
      <trkpt lat="42.90059" lon="0.30511">
        <ele>1543.8</ele>
        <time>2022-09-25T08:30:43Z</time>
      </trkpt>
      <trkpt lat="42.9005" lon="0.30498">
        <ele>1545</ele>
        <time>2022-09-25T08:30:48Z</time>
      </trkpt>
      <trkpt lat="42.90048" lon="0.30496">
        <ele>1545</ele>
        <time>2022-09-25T08:30:49Z</time>
      </trkpt>
      <trkpt lat="42.9004" lon="0.30477">
        <ele>1546</ele>
        <time>2022-09-25T08:30:55Z</time>
      </trkpt>
      <trkpt lat="42.90029" lon="0.30456">
        <ele>1547.2</ele>
        <time>2022-09-25T08:31:02Z</time>
      </trkpt>
      <trkpt lat="42.90027" lon="0.30449">
        <ele>1547.4</ele>
        <time>2022-09-25T08:31:04Z</time>
      </trkpt>
      <trkpt lat="42.90023" lon="0.3044">
        <ele>1548.2</ele>
        <time>2022-09-25T08:31:07Z</time>
      </trkpt>
      <trkpt lat="42.90018" lon="0.30427">
        <ele>1548.8</ele>
        <time>2022-09-25T08:31:11Z</time>
      </trkpt>
      <trkpt lat="42.90016" lon="0.30424">
        <ele>1548.8</ele>
        <time>2022-09-25T08:31:12Z</time>
      </trkpt>
      <trkpt lat="42.90011" lon="0.30414">
        <ele>1549.4</ele>
        <time>2022-09-25T08:31:15Z</time>
      </trkpt>
      <trkpt lat="42.90007" lon="0.30411">
        <ele>1550</ele>
        <time>2022-09-25T08:31:17Z</time>
      </trkpt>
      <trkpt lat="42.89998" lon="0.3041">
        <ele>1550.6</ele>
        <time>2022-09-25T08:31:21Z</time>
      </trkpt>
      <trkpt lat="42.89995" lon="0.30412">
        <ele>1550.6</ele>
        <time>2022-09-25T08:31:22Z</time>
      </trkpt>
      <trkpt lat="42.89993" lon="0.30415">
        <ele>1551</ele>
        <time>2022-09-25T08:31:23Z</time>
      </trkpt>
      <trkpt lat="42.89989" lon="0.30428">
        <ele>1551.8</ele>
        <time>2022-09-25T08:31:27Z</time>
      </trkpt>
      <trkpt lat="42.8999" lon="0.30437">
        <ele>1552</ele>
        <time>2022-09-25T08:31:29Z</time>
      </trkpt>
      <trkpt lat="42.89995" lon="0.30447">
        <ele>1552.6</ele>
        <time>2022-09-25T08:31:32Z</time>
      </trkpt>
      <trkpt lat="42.90002" lon="0.30459">
        <ele>1553</ele>
        <time>2022-09-25T08:31:36Z</time>
      </trkpt>
      <trkpt lat="42.90013" lon="0.30474">
        <ele>1553.4</ele>
        <time>2022-09-25T08:31:41Z</time>
      </trkpt>
      <trkpt lat="42.90021" lon="0.30503">
        <ele>1554</ele>
        <time>2022-09-25T08:31:48Z</time>
      </trkpt>
      <trkpt lat="42.90026" lon="0.3052">
        <ele>1554.2</ele>
        <time>2022-09-25T08:31:52Z</time>
      </trkpt>
      <trkpt lat="42.9003" lon="0.30533">
        <ele>1554.4</ele>
        <time>2022-09-25T08:31:55Z</time>
      </trkpt>
      <trkpt lat="42.90044" lon="0.30571">
        <ele>1554.8</ele>
        <time>2022-09-25T08:32:04Z</time>
      </trkpt>
      <trkpt lat="42.90044" lon="0.30588">
        <ele>1555.2</ele>
        <time>2022-09-25T08:32:08Z</time>
      </trkpt>
      <trkpt lat="42.90042" lon="0.30591">
        <ele>1555.2</ele>
        <time>2022-09-25T08:32:09Z</time>
      </trkpt>
      <trkpt lat="42.90037" lon="0.30592">
        <ele>1555.4</ele>
        <time>2022-09-25T08:32:11Z</time>
      </trkpt>
      <trkpt lat="42.90025" lon="0.30583">
        <ele>1555.8</ele>
        <time>2022-09-25T08:32:16Z</time>
      </trkpt>
      <trkpt lat="42.90021" lon="0.30578">
        <ele>1556.2</ele>
        <time>2022-09-25T08:32:18Z</time>
      </trkpt>
      <trkpt lat="42.90013" lon="0.30574">
        <ele>1557.2</ele>
        <time>2022-09-25T08:32:22Z</time>
      </trkpt>
      <trkpt lat="42.90011" lon="0.30574">
        <ele>1557.4</ele>
        <time>2022-09-25T08:32:23Z</time>
      </trkpt>
      <trkpt lat="42.90005" lon="0.30575">
        <ele>1558.4</ele>
        <time>2022-09-25T08:32:27Z</time>
      </trkpt>
      <trkpt lat="42.90004" lon="0.30575">
        <ele>1558.6</ele>
        <time>2022-09-25T08:32:28Z</time>
      </trkpt>
      <trkpt lat="42.90003" lon="0.30575">
        <ele>1558.8</ele>
        <time>2022-09-25T08:32:29Z</time>
      </trkpt>
      <trkpt lat="42.90002" lon="0.30574">
        <ele>1559</ele>
        <time>2022-09-25T08:32:30Z</time>
      </trkpt>
      <trkpt lat="42.90001" lon="0.30574">
        <ele>1559</ele>
        <time>2022-09-25T08:32:32Z</time>
      </trkpt>
      <trkpt lat="42.89996" lon="0.30575">
        <ele>1559.4</ele>
        <time>2022-09-25T08:32:45Z</time>
      </trkpt>
      <trkpt lat="42.89981" lon="0.30579">
        <ele>1559.6</ele>
        <time>2022-09-25T08:32:53Z</time>
      </trkpt>
      <trkpt lat="42.89971" lon="0.30583">
        <ele>1559.2</ele>
        <time>2022-09-25T08:32:59Z</time>
      </trkpt>
      <trkpt lat="42.89971" lon="0.30585">
        <ele>1559.2</ele>
        <time>2022-09-25T08:33:00Z</time>
      </trkpt>
      <trkpt lat="42.89974" lon="0.30587">
        <ele>1558.8</ele>
        <time>2022-09-25T08:33:03Z</time>
      </trkpt>
      <trkpt lat="42.89991" lon="0.30581">
        <ele>1559.4</ele>
        <time>2022-09-25T08:33:13Z</time>
      </trkpt>
      <trkpt lat="42.89995" lon="0.3058">
        <ele>1559.8</ele>
        <time>2022-09-25T08:33:15Z</time>
      </trkpt>
      <trkpt lat="42.90006" lon="0.30578">
        <ele>1560</ele>
        <time>2022-09-25T08:33:19Z</time>
      </trkpt>
      <trkpt lat="42.9002" lon="0.30583">
        <ele>1560</ele>
        <time>2022-09-25T08:33:23Z</time>
      </trkpt>
      <trkpt lat="42.90024" lon="0.30587">
        <ele>1559.8</ele>
        <time>2022-09-25T08:33:24Z</time>
      </trkpt>
      <trkpt lat="42.90033" lon="0.30594">
        <ele>1559.6</ele>
        <time>2022-09-25T08:33:26Z</time>
      </trkpt>
      <trkpt lat="42.90041" lon="0.30596">
        <ele>1558.8</ele>
        <time>2022-09-25T08:33:28Z</time>
      </trkpt>
      <trkpt lat="42.90045" lon="0.30593">
        <ele>1558.4</ele>
        <time>2022-09-25T08:33:29Z</time>
      </trkpt>
      <trkpt lat="42.90047" lon="0.30586">
        <ele>1558</ele>
        <time>2022-09-25T08:33:30Z</time>
      </trkpt>
      <trkpt lat="42.90045" lon="0.30574">
        <ele>1557.4</ele>
        <time>2022-09-25T08:33:32Z</time>
      </trkpt>
      <trkpt lat="42.90042" lon="0.30564">
        <ele>1557</ele>
        <time>2022-09-25T08:33:34Z</time>
      </trkpt>
      <trkpt lat="42.90038" lon="0.30551">
        <ele>1556.4</ele>
        <time>2022-09-25T08:33:36Z</time>
      </trkpt>
      <trkpt lat="42.90031" lon="0.3053">
        <ele>1555.2</ele>
        <time>2022-09-25T08:33:40Z</time>
      </trkpt>
      <trkpt lat="42.90028" lon="0.3052">
        <ele>1555</ele>
        <time>2022-09-25T08:33:42Z</time>
      </trkpt>
      <trkpt lat="42.90018" lon="0.30484">
        <ele>1554.4</ele>
        <time>2022-09-25T08:33:49Z</time>
      </trkpt>
      <trkpt lat="42.90015" lon="0.30478">
        <ele>1554.4</ele>
        <time>2022-09-25T08:33:50Z</time>
      </trkpt>
      <trkpt lat="42.9001" lon="0.30468">
        <ele>1554.2</ele>
        <time>2022-09-25T08:33:52Z</time>
      </trkpt>
      <trkpt lat="42.90004" lon="0.30459">
        <ele>1554.2</ele>
        <time>2022-09-25T08:33:54Z</time>
      </trkpt>
      <trkpt lat="42.90001" lon="0.30454">
        <ele>1554.2</ele>
        <time>2022-09-25T08:33:55Z</time>
      </trkpt>
      <trkpt lat="42.89995" lon="0.30445">
        <ele>1554</ele>
        <time>2022-09-25T08:33:57Z</time>
      </trkpt>
      <trkpt lat="42.89993" lon="0.30433">
        <ele>1553.8</ele>
        <time>2022-09-25T08:33:59Z</time>
      </trkpt>
      <trkpt lat="42.89998" lon="0.30421">
        <ele>1553.6</ele>
        <time>2022-09-25T08:34:01Z</time>
      </trkpt>
      <trkpt lat="42.90001" lon="0.30419">
        <ele>1553.4</ele>
        <time>2022-09-25T08:34:02Z</time>
      </trkpt>
      <trkpt lat="42.90011" lon="0.30422">
        <ele>1553</ele>
        <time>2022-09-25T08:34:04Z</time>
      </trkpt>
      <trkpt lat="42.90018" lon="0.30436">
        <ele>1552.6</ele>
        <time>2022-09-25T08:34:06Z</time>
      </trkpt>
      <trkpt lat="42.90022" lon="0.30444">
        <ele>1552</ele>
        <time>2022-09-25T08:34:07Z</time>
      </trkpt>
      <trkpt lat="42.90025" lon="0.3045">
        <ele>1552</ele>
        <time>2022-09-25T08:34:08Z</time>
      </trkpt>
      <trkpt lat="42.90037" lon="0.30474">
        <ele>1550.8</ele>
        <time>2022-09-25T08:34:11Z</time>
      </trkpt>
      <trkpt lat="42.90045" lon="0.30489">
        <ele>1550.2</ele>
        <time>2022-09-25T08:34:13Z</time>
      </trkpt>
      <trkpt lat="42.90061" lon="0.30514">
        <ele>1549.8</ele>
        <time>2022-09-25T08:34:16Z</time>
      </trkpt>
      <trkpt lat="42.90072" lon="0.30526">
        <ele>1549.2</ele>
        <time>2022-09-25T08:34:18Z</time>
      </trkpt>
      <trkpt lat="42.90078" lon="0.30533">
        <ele>1548.6</ele>
        <time>2022-09-25T08:34:19Z</time>
      </trkpt>
      <trkpt lat="42.90089" lon="0.30545">
        <ele>1547.4</ele>
        <time>2022-09-25T08:34:21Z</time>
      </trkpt>
      <trkpt lat="42.90107" lon="0.30561">
        <ele>1546</ele>
        <time>2022-09-25T08:34:24Z</time>
      </trkpt>
      <trkpt lat="42.90112" lon="0.30565">
        <ele>1545.6</ele>
        <time>2022-09-25T08:34:25Z</time>
      </trkpt>
      <trkpt lat="42.90121" lon="0.30573">
        <ele>1544.8</ele>
        <time>2022-09-25T08:34:27Z</time>
      </trkpt>
      <trkpt lat="42.90126" lon="0.30577">
        <ele>1543.6</ele>
        <time>2022-09-25T08:34:29Z</time>
      </trkpt>
      <trkpt lat="42.90129" lon="0.30578">
        <ele>1542.6</ele>
        <time>2022-09-25T08:34:30Z</time>
      </trkpt>
      <trkpt lat="42.90132" lon="0.30578">
        <ele>1542</ele>
        <time>2022-09-25T08:34:31Z</time>
      </trkpt>
      <trkpt lat="42.90133" lon="0.30578">
        <ele>1541.4</ele>
        <time>2022-09-25T08:34:32Z</time>
      </trkpt>
      <trkpt lat="42.90133" lon="0.30578">
        <ele>1541</ele>
        <time>2022-09-25T08:34:33Z</time>
      </trkpt>
      <trkpt lat="42.90133" lon="0.30578">
        <ele>1540.2</ele>
        <time>2022-09-25T08:34:35Z</time>
      </trkpt>
      <trkpt lat="42.90133" lon="0.30578">
        <ele>1539.2</ele>
        <time>2022-09-25T08:34:40Z</time>
      </trkpt>
      <trkpt lat="42.90133" lon="0.30578">
        <ele>1539.2</ele>
        <time>2022-09-25T08:34:41Z</time>
      </trkpt>
      <trkpt lat="42.90133" lon="0.30578">
        <ele>1539.2</ele>
        <time>2022-09-25T08:35:03Z</time>
      </trkpt>
      <trkpt lat="42.90133" lon="0.30578">
        <ele>1539</ele>
        <time>2022-09-25T08:35:53Z</time>
      </trkpt>
      <trkpt lat="42.90137" lon="0.30574">
        <ele>1539</ele>
        <time>2022-09-25T08:35:56Z</time>
      </trkpt>
      <trkpt lat="42.90145" lon="0.30567">
        <ele>1539</ele>
        <time>2022-09-25T08:36:01Z</time>
      </trkpt>
      <trkpt lat="42.90156" lon="0.30553">
        <ele>1538.4</ele>
        <time>2022-09-25T08:36:07Z</time>
      </trkpt>
      <trkpt lat="42.90161" lon="0.30546">
        <ele>1538.2</ele>
        <time>2022-09-25T08:36:09Z</time>
      </trkpt>
      <trkpt lat="42.9017" lon="0.30538">
        <ele>1538</ele>
        <time>2022-09-25T08:36:11Z</time>
      </trkpt>
      <trkpt lat="42.90186" lon="0.30514">
        <ele>1537</ele>
        <time>2022-09-25T08:36:15Z</time>
      </trkpt>
      <trkpt lat="42.90204" lon="0.30489">
        <ele>1535.6</ele>
        <time>2022-09-25T08:36:18Z</time>
      </trkpt>
      <trkpt lat="42.9021" lon="0.30482">
        <ele>1535.2</ele>
        <time>2022-09-25T08:36:19Z</time>
      </trkpt>
      <trkpt lat="42.90217" lon="0.30475">
        <ele>1534.6</ele>
        <time>2022-09-25T08:36:20Z</time>
      </trkpt>
      <trkpt lat="42.90242" lon="0.30457">
        <ele>1533.4</ele>
        <time>2022-09-25T08:36:23Z</time>
      </trkpt>
      <trkpt lat="42.9026" lon="0.30445">
        <ele>1532.4</ele>
        <time>2022-09-25T08:36:25Z</time>
      </trkpt>
      <trkpt lat="42.9028" lon="0.30433">
        <ele>1531</ele>
        <time>2022-09-25T08:36:27Z</time>
      </trkpt>
      <trkpt lat="42.9029" lon="0.30426">
        <ele>1530</ele>
        <time>2022-09-25T08:36:28Z</time>
      </trkpt>
      <trkpt lat="42.90311" lon="0.30413">
        <ele>1528.6</ele>
        <time>2022-09-25T08:36:30Z</time>
      </trkpt>
      <trkpt lat="42.90333" lon="0.30399">
        <ele>1526.4</ele>
        <time>2022-09-25T08:36:32Z</time>
      </trkpt>
      <trkpt lat="42.90355" lon="0.30382">
        <ele>1524.2</ele>
        <time>2022-09-25T08:36:34Z</time>
      </trkpt>
      <trkpt lat="42.90367" lon="0.30375">
        <ele>1523.4</ele>
        <time>2022-09-25T08:36:35Z</time>
      </trkpt>
      <trkpt lat="42.90378" lon="0.30368">
        <ele>1522</ele>
        <time>2022-09-25T08:36:36Z</time>
      </trkpt>
      <trkpt lat="42.90398" lon="0.30351">
        <ele>1519.6</ele>
        <time>2022-09-25T08:36:38Z</time>
      </trkpt>
      <trkpt lat="42.90407" lon="0.30341">
        <ele>1518.6</ele>
        <time>2022-09-25T08:36:39Z</time>
      </trkpt>
      <trkpt lat="42.90417" lon="0.3033">
        <ele>1516.8</ele>
        <time>2022-09-25T08:36:40Z</time>
      </trkpt>
      <trkpt lat="42.90426" lon="0.30319">
        <ele>1515.8</ele>
        <time>2022-09-25T08:36:41Z</time>
      </trkpt>
      <trkpt lat="42.90436" lon="0.30308">
        <ele>1513.8</ele>
        <time>2022-09-25T08:36:42Z</time>
      </trkpt>
      <trkpt lat="42.90445" lon="0.30297">
        <ele>1512.6</ele>
        <time>2022-09-25T08:36:43Z</time>
      </trkpt>
      <trkpt lat="42.90454" lon="0.30285">
        <ele>1511.4</ele>
        <time>2022-09-25T08:36:44Z</time>
      </trkpt>
      <trkpt lat="42.90473" lon="0.30263">
        <ele>1509</ele>
        <time>2022-09-25T08:36:46Z</time>
      </trkpt>
      <trkpt lat="42.90482" lon="0.30252">
        <ele>1507</ele>
        <time>2022-09-25T08:36:47Z</time>
      </trkpt>
      <trkpt lat="42.90492" lon="0.30242">
        <ele>1506</ele>
        <time>2022-09-25T08:36:48Z</time>
      </trkpt>
      <trkpt lat="42.90502" lon="0.30232">
        <ele>1504.4</ele>
        <time>2022-09-25T08:36:49Z</time>
      </trkpt>
      <trkpt lat="42.90522" lon="0.30211">
        <ele>1502.6</ele>
        <time>2022-09-25T08:36:51Z</time>
      </trkpt>
      <trkpt lat="42.90543" lon="0.3019">
        <ele>1499.8</ele>
        <time>2022-09-25T08:36:53Z</time>
      </trkpt>
      <trkpt lat="42.90564" lon="0.3017">
        <ele>1497.4</ele>
        <time>2022-09-25T08:36:55Z</time>
      </trkpt>
      <trkpt lat="42.90574" lon="0.30163">
        <ele>1496.6</ele>
        <time>2022-09-25T08:36:56Z</time>
      </trkpt>
      <trkpt lat="42.90584" lon="0.30157">
        <ele>1495.4</ele>
        <time>2022-09-25T08:36:57Z</time>
      </trkpt>
      <trkpt lat="42.90593" lon="0.30154">
        <ele>1494.6</ele>
        <time>2022-09-25T08:36:58Z</time>
      </trkpt>
      <trkpt lat="42.90601" lon="0.30153">
        <ele>1492.8</ele>
        <time>2022-09-25T08:36:59Z</time>
      </trkpt>
      <trkpt lat="42.90609" lon="0.30151">
        <ele>1492.2</ele>
        <time>2022-09-25T08:37:00Z</time>
      </trkpt>
      <trkpt lat="42.90616" lon="0.30149">
        <ele>1490</ele>
        <time>2022-09-25T08:37:01Z</time>
      </trkpt>
      <trkpt lat="42.90628" lon="0.30143">
        <ele>1487.4</ele>
        <time>2022-09-25T08:37:03Z</time>
      </trkpt>
      <trkpt lat="42.90635" lon="0.30132">
        <ele>1485</ele>
        <time>2022-09-25T08:37:05Z</time>
      </trkpt>
      <trkpt lat="42.90636" lon="0.30125">
        <ele>1484.2</ele>
        <time>2022-09-25T08:37:06Z</time>
      </trkpt>
      <trkpt lat="42.90634" lon="0.30119">
        <ele>1483</ele>
        <time>2022-09-25T08:37:07Z</time>
      </trkpt>
      <trkpt lat="42.9063" lon="0.30114">
        <ele>1482.4</ele>
        <time>2022-09-25T08:37:08Z</time>
      </trkpt>
      <trkpt lat="42.90625" lon="0.30111">
        <ele>1481.2</ele>
        <time>2022-09-25T08:37:09Z</time>
      </trkpt>
      <trkpt lat="42.90612" lon="0.30111">
        <ele>1479.6</ele>
        <time>2022-09-25T08:37:11Z</time>
      </trkpt>
      <trkpt lat="42.90599" lon="0.30112">
        <ele>1478.2</ele>
        <time>2022-09-25T08:37:13Z</time>
      </trkpt>
      <trkpt lat="42.90584" lon="0.30114">
        <ele>1477.2</ele>
        <time>2022-09-25T08:37:15Z</time>
      </trkpt>
      <trkpt lat="42.9057" lon="0.30117">
        <ele>1476.6</ele>
        <time>2022-09-25T08:37:17Z</time>
      </trkpt>
      <trkpt lat="42.90555" lon="0.30121">
        <ele>1476.2</ele>
        <time>2022-09-25T08:37:19Z</time>
      </trkpt>
      <trkpt lat="42.90526" lon="0.30131">
        <ele>1474.8</ele>
        <time>2022-09-25T08:37:23Z</time>
      </trkpt>
      <trkpt lat="42.9052" lon="0.30134">
        <ele>1474.6</ele>
        <time>2022-09-25T08:37:24Z</time>
      </trkpt>
      <trkpt lat="42.90509" lon="0.30139">
        <ele>1474.2</ele>
        <time>2022-09-25T08:37:26Z</time>
      </trkpt>
      <trkpt lat="42.90504" lon="0.30138">
        <ele>1474</ele>
        <time>2022-09-25T08:37:27Z</time>
      </trkpt>
      <trkpt lat="42.90501" lon="0.30134">
        <ele>1473.6</ele>
        <time>2022-09-25T08:37:28Z</time>
      </trkpt>
      <trkpt lat="42.90499" lon="0.30123">
        <ele>1472.6</ele>
        <time>2022-09-25T08:37:30Z</time>
      </trkpt>
      <trkpt lat="42.90502" lon="0.30117">
        <ele>1472.4</ele>
        <time>2022-09-25T08:37:31Z</time>
      </trkpt>
      <trkpt lat="42.90506" lon="0.30114">
        <ele>1471.8</ele>
        <time>2022-09-25T08:37:32Z</time>
      </trkpt>
      <trkpt lat="42.90512" lon="0.30113">
        <ele>1471.6</ele>
        <time>2022-09-25T08:37:33Z</time>
      </trkpt>
      <trkpt lat="42.90518" lon="0.30112">
        <ele>1471</ele>
        <time>2022-09-25T08:37:34Z</time>
      </trkpt>
      <trkpt lat="42.90524" lon="0.3011">
        <ele>1470.8</ele>
        <time>2022-09-25T08:37:35Z</time>
      </trkpt>
      <trkpt lat="42.90531" lon="0.30108">
        <ele>1470.4</ele>
        <time>2022-09-25T08:37:36Z</time>
      </trkpt>
      <trkpt lat="42.90558" lon="0.30094">
        <ele>1469.8</ele>
        <time>2022-09-25T08:37:40Z</time>
      </trkpt>
      <trkpt lat="42.90572" lon="0.30084">
        <ele>1469.2</ele>
        <time>2022-09-25T08:37:42Z</time>
      </trkpt>
      <trkpt lat="42.90587" lon="0.30074">
        <ele>1468.6</ele>
        <time>2022-09-25T08:37:44Z</time>
      </trkpt>
      <trkpt lat="42.90603" lon="0.30064">
        <ele>1467.8</ele>
        <time>2022-09-25T08:37:46Z</time>
      </trkpt>
      <trkpt lat="42.90612" lon="0.30061">
        <ele>1467.6</ele>
        <time>2022-09-25T08:37:47Z</time>
      </trkpt>
      <trkpt lat="42.9064" lon="0.30051">
        <ele>1466</ele>
        <time>2022-09-25T08:37:50Z</time>
      </trkpt>
      <trkpt lat="42.9066" lon="0.30044">
        <ele>1464.6</ele>
        <time>2022-09-25T08:37:52Z</time>
      </trkpt>
      <trkpt lat="42.90671" lon="0.30041">
        <ele>1464</ele>
        <time>2022-09-25T08:37:53Z</time>
      </trkpt>
      <trkpt lat="42.90681" lon="0.30038">
        <ele>1463.6</ele>
        <time>2022-09-25T08:37:54Z</time>
      </trkpt>
      <trkpt lat="42.90703" lon="0.30032">
        <ele>1462.2</ele>
        <time>2022-09-25T08:37:56Z</time>
      </trkpt>
      <trkpt lat="42.90715" lon="0.30029">
        <ele>1460.8</ele>
        <time>2022-09-25T08:37:57Z</time>
      </trkpt>
      <trkpt lat="42.90738" lon="0.30019">
        <ele>1459.4</ele>
        <time>2022-09-25T08:37:59Z</time>
      </trkpt>
      <trkpt lat="42.9076" lon="0.30008">
        <ele>1457.2</ele>
        <time>2022-09-25T08:38:01Z</time>
      </trkpt>
      <trkpt lat="42.90784" lon="0.29998">
        <ele>1455.6</ele>
        <time>2022-09-25T08:38:03Z</time>
      </trkpt>
      <trkpt lat="42.90808" lon="0.29988">
        <ele>1453.8</ele>
        <time>2022-09-25T08:38:05Z</time>
      </trkpt>
      <trkpt lat="42.90832" lon="0.29978">
        <ele>1451.8</ele>
        <time>2022-09-25T08:38:07Z</time>
      </trkpt>
      <trkpt lat="42.90858" lon="0.29968">
        <ele>1449.6</ele>
        <time>2022-09-25T08:38:09Z</time>
      </trkpt>
      <trkpt lat="42.90882" lon="0.29957">
        <ele>1447.8</ele>
        <time>2022-09-25T08:38:11Z</time>
      </trkpt>
      <trkpt lat="42.90895" lon="0.29951">
        <ele>1447.2</ele>
        <time>2022-09-25T08:38:12Z</time>
      </trkpt>
      <trkpt lat="42.90907" lon="0.29945">
        <ele>1445</ele>
        <time>2022-09-25T08:38:13Z</time>
      </trkpt>
      <trkpt lat="42.90932" lon="0.2993">
        <ele>1443.6</ele>
        <time>2022-09-25T08:38:15Z</time>
      </trkpt>
      <trkpt lat="42.90956" lon="0.29913">
        <ele>1441.4</ele>
        <time>2022-09-25T08:38:17Z</time>
      </trkpt>
      <trkpt lat="42.90967" lon="0.29904">
        <ele>1440.2</ele>
        <time>2022-09-25T08:38:18Z</time>
      </trkpt>
      <trkpt lat="42.90979" lon="0.29895">
        <ele>1438.8</ele>
        <time>2022-09-25T08:38:19Z</time>
      </trkpt>
      <trkpt lat="42.91001" lon="0.29879">
        <ele>1436.8</ele>
        <time>2022-09-25T08:38:21Z</time>
      </trkpt>
      <trkpt lat="42.9101" lon="0.29872">
        <ele>1435.2</ele>
        <time>2022-09-25T08:38:22Z</time>
      </trkpt>
      <trkpt lat="42.91019" lon="0.29866">
        <ele>1434.6</ele>
        <time>2022-09-25T08:38:23Z</time>
      </trkpt>
      <trkpt lat="42.91028" lon="0.29859">
        <ele>1433.6</ele>
        <time>2022-09-25T08:38:24Z</time>
      </trkpt>
      <trkpt lat="42.91036" lon="0.29852">
        <ele>1432.8</ele>
        <time>2022-09-25T08:38:25Z</time>
      </trkpt>
      <trkpt lat="42.91043" lon="0.29843">
        <ele>1431</ele>
        <time>2022-09-25T08:38:26Z</time>
      </trkpt>
      <trkpt lat="42.91048" lon="0.29833">
        <ele>1430.4</ele>
        <time>2022-09-25T08:38:27Z</time>
      </trkpt>
      <trkpt lat="42.91052" lon="0.29821">
        <ele>1428.8</ele>
        <time>2022-09-25T08:38:28Z</time>
      </trkpt>
      <trkpt lat="42.91054" lon="0.29808">
        <ele>1428.2</ele>
        <time>2022-09-25T08:38:29Z</time>
      </trkpt>
      <trkpt lat="42.91054" lon="0.29795">
        <ele>1427.4</ele>
        <time>2022-09-25T08:38:30Z</time>
      </trkpt>
      <trkpt lat="42.91053" lon="0.29782">
        <ele>1426.8</ele>
        <time>2022-09-25T08:38:31Z</time>
      </trkpt>
      <trkpt lat="42.91051" lon="0.29769">
        <ele>1425.6</ele>
        <time>2022-09-25T08:38:32Z</time>
      </trkpt>
      <trkpt lat="42.91048" lon="0.29756">
        <ele>1425</ele>
        <time>2022-09-25T08:38:33Z</time>
      </trkpt>
      <trkpt lat="42.91044" lon="0.29746">
        <ele>1424</ele>
        <time>2022-09-25T08:38:34Z</time>
      </trkpt>
      <trkpt lat="42.91035" lon="0.29727">
        <ele>1422.8</ele>
        <time>2022-09-25T08:38:36Z</time>
      </trkpt>
      <trkpt lat="42.91016" lon="0.2969">
        <ele>1422</ele>
        <time>2022-09-25T08:38:41Z</time>
      </trkpt>
      <trkpt lat="42.91012" lon="0.29683">
        <ele>1421.8</ele>
        <time>2022-09-25T08:38:42Z</time>
      </trkpt>
      <trkpt lat="42.90984" lon="0.29634">
        <ele>1421.4</ele>
        <time>2022-09-25T08:38:49Z</time>
      </trkpt>
      <trkpt lat="42.90972" lon="0.29609">
        <ele>1420.6</ele>
        <time>2022-09-25T08:38:52Z</time>
      </trkpt>
      <trkpt lat="42.90954" lon="0.29579">
        <ele>1419.4</ele>
        <time>2022-09-25T08:38:56Z</time>
      </trkpt>
      <trkpt lat="42.9095" lon="0.29571">
        <ele>1419</ele>
        <time>2022-09-25T08:38:57Z</time>
      </trkpt>
      <trkpt lat="42.90942" lon="0.29558">
        <ele>1418.4</ele>
        <time>2022-09-25T08:38:59Z</time>
      </trkpt>
      <trkpt lat="42.90912" lon="0.29511">
        <ele>1417.2</ele>
        <time>2022-09-25T08:39:05Z</time>
      </trkpt>
      <trkpt lat="42.90906" lon="0.29503">
        <ele>1417</ele>
        <time>2022-09-25T08:39:06Z</time>
      </trkpt>
      <trkpt lat="42.90888" lon="0.29478">
        <ele>1415.8</ele>
        <time>2022-09-25T08:39:09Z</time>
      </trkpt>
      <trkpt lat="42.9087" lon="0.29451">
        <ele>1415</ele>
        <time>2022-09-25T08:39:12Z</time>
      </trkpt>
      <trkpt lat="42.90864" lon="0.29442">
        <ele>1414.4</ele>
        <time>2022-09-25T08:39:13Z</time>
      </trkpt>
      <trkpt lat="42.90852" lon="0.29423">
        <ele>1413.2</ele>
        <time>2022-09-25T08:39:15Z</time>
      </trkpt>
      <trkpt lat="42.90839" lon="0.29405">
        <ele>1412.6</ele>
        <time>2022-09-25T08:39:17Z</time>
      </trkpt>
      <trkpt lat="42.90826" lon="0.29386">
        <ele>1411.6</ele>
        <time>2022-09-25T08:39:19Z</time>
      </trkpt>
      <trkpt lat="42.90809" lon="0.29353">
        <ele>1410.8</ele>
        <time>2022-09-25T08:39:22Z</time>
      </trkpt>
      <trkpt lat="42.90803" lon="0.29343">
        <ele>1410.4</ele>
        <time>2022-09-25T08:39:23Z</time>
      </trkpt>
      <trkpt lat="42.90797" lon="0.29333">
        <ele>1410</ele>
        <time>2022-09-25T08:39:24Z</time>
      </trkpt>
      <trkpt lat="42.90783" lon="0.29315">
        <ele>1408.6</ele>
        <time>2022-09-25T08:39:26Z</time>
      </trkpt>
      <trkpt lat="42.90766" lon="0.29298">
        <ele>1407.6</ele>
        <time>2022-09-25T08:39:28Z</time>
      </trkpt>
      <trkpt lat="42.9075" lon="0.29279">
        <ele>1406.4</ele>
        <time>2022-09-25T08:39:30Z</time>
      </trkpt>
      <trkpt lat="42.90743" lon="0.2927">
        <ele>1406.2</ele>
        <time>2022-09-25T08:39:31Z</time>
      </trkpt>
      <trkpt lat="42.90727" lon="0.29251">
        <ele>1405.2</ele>
        <time>2022-09-25T08:39:33Z</time>
      </trkpt>
      <trkpt lat="42.9071" lon="0.29231">
        <ele>1404</ele>
        <time>2022-09-25T08:39:35Z</time>
      </trkpt>
      <trkpt lat="42.90703" lon="0.2922">
        <ele>1403.4</ele>
        <time>2022-09-25T08:39:36Z</time>
      </trkpt>
      <trkpt lat="42.90691" lon="0.29195">
        <ele>1401.8</ele>
        <time>2022-09-25T08:39:38Z</time>
      </trkpt>
      <trkpt lat="42.90686" lon="0.29183">
        <ele>1401.2</ele>
        <time>2022-09-25T08:39:39Z</time>
      </trkpt>
      <trkpt lat="42.90682" lon="0.2917">
        <ele>1400.4</ele>
        <time>2022-09-25T08:39:40Z</time>
      </trkpt>
      <trkpt lat="42.90677" lon="0.29144">
        <ele>1398.8</ele>
        <time>2022-09-25T08:39:42Z</time>
      </trkpt>
      <trkpt lat="42.90671" lon="0.29124">
        <ele>1396.8</ele>
        <time>2022-09-25T08:39:44Z</time>
      </trkpt>
      <trkpt lat="42.90665" lon="0.29109">
        <ele>1394.6</ele>
        <time>2022-09-25T08:39:46Z</time>
      </trkpt>
      <trkpt lat="42.90652" lon="0.29093">
        <ele>1392.6</ele>
        <time>2022-09-25T08:39:48Z</time>
      </trkpt>
      <trkpt lat="42.90636" lon="0.29079">
        <ele>1391.2</ele>
        <time>2022-09-25T08:39:50Z</time>
      </trkpt>
      <trkpt lat="42.90617" lon="0.29066">
        <ele>1389.8</ele>
        <time>2022-09-25T08:39:52Z</time>
      </trkpt>
      <trkpt lat="42.90598" lon="0.29053">
        <ele>1388.4</ele>
        <time>2022-09-25T08:39:54Z</time>
      </trkpt>
      <trkpt lat="42.90576" lon="0.29037">
        <ele>1386.6</ele>
        <time>2022-09-25T08:39:56Z</time>
      </trkpt>
      <trkpt lat="42.90565" lon="0.29029">
        <ele>1386</ele>
        <time>2022-09-25T08:39:57Z</time>
      </trkpt>
      <trkpt lat="42.90557" lon="0.29023">
        <ele>1385</ele>
        <time>2022-09-25T08:39:58Z</time>
      </trkpt>
      <trkpt lat="42.90535" lon="0.29006">
        <ele>1383.6</ele>
        <time>2022-09-25T08:40:00Z</time>
      </trkpt>
      <trkpt lat="42.90528" lon="0.28997">
        <ele>1382.8</ele>
        <time>2022-09-25T08:40:01Z</time>
      </trkpt>
      <trkpt lat="42.90521" lon="0.28987">
        <ele>1382</ele>
        <time>2022-09-25T08:40:02Z</time>
      </trkpt>
      <trkpt lat="42.90517" lon="0.28979">
        <ele>1380.8</ele>
        <time>2022-09-25T08:40:03Z</time>
      </trkpt>
      <trkpt lat="42.90504" lon="0.28954">
        <ele>1378.6</ele>
        <time>2022-09-25T08:40:05Z</time>
      </trkpt>
      <trkpt lat="42.90497" lon="0.28929">
        <ele>1377.4</ele>
        <time>2022-09-25T08:40:07Z</time>
      </trkpt>
      <trkpt lat="42.90495" lon="0.28916">
        <ele>1377</ele>
        <time>2022-09-25T08:40:08Z</time>
      </trkpt>
      <trkpt lat="42.90495" lon="0.28903">
        <ele>1376.8</ele>
        <time>2022-09-25T08:40:09Z</time>
      </trkpt>
      <trkpt lat="42.90497" lon="0.28878">
        <ele>1375.6</ele>
        <time>2022-09-25T08:40:11Z</time>
      </trkpt>
      <trkpt lat="42.905" lon="0.28855">
        <ele>1374.6</ele>
        <time>2022-09-25T08:40:13Z</time>
      </trkpt>
      <trkpt lat="42.90502" lon="0.28845">
        <ele>1374.4</ele>
        <time>2022-09-25T08:40:14Z</time>
      </trkpt>
      <trkpt lat="42.90507" lon="0.28836">
        <ele>1373.8</ele>
        <time>2022-09-25T08:40:15Z</time>
      </trkpt>
      <trkpt lat="42.90517" lon="0.28823">
        <ele>1373.4</ele>
        <time>2022-09-25T08:40:17Z</time>
      </trkpt>
      <trkpt lat="42.90523" lon="0.28819">
        <ele>1373.2</ele>
        <time>2022-09-25T08:40:18Z</time>
      </trkpt>
      <trkpt lat="42.90535" lon="0.28809">
        <ele>1373.2</ele>
        <time>2022-09-25T08:40:21Z</time>
      </trkpt>
      <trkpt lat="42.90538" lon="0.28807">
        <ele>1373.2</ele>
        <time>2022-09-25T08:40:22Z</time>
      </trkpt>
      <trkpt lat="42.90553" lon="0.288">
        <ele>1373.2</ele>
        <time>2022-09-25T08:40:27Z</time>
      </trkpt>
      <trkpt lat="42.90575" lon="0.28798">
        <ele>1373</ele>
        <time>2022-09-25T08:40:32Z</time>
      </trkpt>
      <trkpt lat="42.90598" lon="0.28801">
        <ele>1372.2</ele>
        <time>2022-09-25T08:40:36Z</time>
      </trkpt>
      <trkpt lat="42.90611" lon="0.28803">
        <ele>1371.8</ele>
        <time>2022-09-25T08:40:38Z</time>
      </trkpt>
      <trkpt lat="42.90633" lon="0.28808">
        <ele>1371</ele>
        <time>2022-09-25T08:40:41Z</time>
      </trkpt>
      <trkpt lat="42.9065" lon="0.28812">
        <ele>1370</ele>
        <time>2022-09-25T08:40:43Z</time>
      </trkpt>
      <trkpt lat="42.90669" lon="0.28816">
        <ele>1368.8</ele>
        <time>2022-09-25T08:40:45Z</time>
      </trkpt>
      <trkpt lat="42.90695" lon="0.28821">
        <ele>1366.4</ele>
        <time>2022-09-25T08:40:48Z</time>
      </trkpt>
      <trkpt lat="42.90705" lon="0.28823">
        <ele>1365.4</ele>
        <time>2022-09-25T08:40:49Z</time>
      </trkpt>
      <trkpt lat="42.90717" lon="0.28825">
        <ele>1364</ele>
        <time>2022-09-25T08:40:50Z</time>
      </trkpt>
      <trkpt lat="42.90736" lon="0.28829">
        <ele>1362.6</ele>
        <time>2022-09-25T08:40:52Z</time>
      </trkpt>
      <trkpt lat="42.90751" lon="0.28832">
        <ele>1361</ele>
        <time>2022-09-25T08:40:54Z</time>
      </trkpt>
      <trkpt lat="42.90771" lon="0.28838">
        <ele>1359.2</ele>
        <time>2022-09-25T08:40:56Z</time>
      </trkpt>
      <trkpt lat="42.90789" lon="0.28843">
        <ele>1357.6</ele>
        <time>2022-09-25T08:40:58Z</time>
      </trkpt>
      <trkpt lat="42.90805" lon="0.28848">
        <ele>1355.6</ele>
        <time>2022-09-25T08:41:00Z</time>
      </trkpt>
      <trkpt lat="42.90815" lon="0.28852">
        <ele>1354.6</ele>
        <time>2022-09-25T08:41:01Z</time>
      </trkpt>
      <trkpt lat="42.90822" lon="0.28856">
        <ele>1354</ele>
        <time>2022-09-25T08:41:02Z</time>
      </trkpt>
      <trkpt lat="42.90828" lon="0.28859">
        <ele>1353</ele>
        <time>2022-09-25T08:41:03Z</time>
      </trkpt>
      <trkpt lat="42.90843" lon="0.28871">
        <ele>1351.8</ele>
        <time>2022-09-25T08:41:05Z</time>
      </trkpt>
      <trkpt lat="42.90857" lon="0.28883">
        <ele>1350.2</ele>
        <time>2022-09-25T08:41:07Z</time>
      </trkpt>
      <trkpt lat="42.90868" lon="0.28893">
        <ele>1349</ele>
        <time>2022-09-25T08:41:09Z</time>
      </trkpt>
      <trkpt lat="42.90881" lon="0.28906">
        <ele>1347.2</ele>
        <time>2022-09-25T08:41:11Z</time>
      </trkpt>
      <trkpt lat="42.90888" lon="0.28912">
        <ele>1346.6</ele>
        <time>2022-09-25T08:41:12Z</time>
      </trkpt>
      <trkpt lat="42.90895" lon="0.28918">
        <ele>1345</ele>
        <time>2022-09-25T08:41:13Z</time>
      </trkpt>
      <trkpt lat="42.90908" lon="0.2893">
        <ele>1343.2</ele>
        <time>2022-09-25T08:41:15Z</time>
      </trkpt>
      <trkpt lat="42.90921" lon="0.28941">
        <ele>1342</ele>
        <time>2022-09-25T08:41:17Z</time>
      </trkpt>
      <trkpt lat="42.90932" lon="0.28951">
        <ele>1340.8</ele>
        <time>2022-09-25T08:41:19Z</time>
      </trkpt>
      <trkpt lat="42.90943" lon="0.28961">
        <ele>1339.4</ele>
        <time>2022-09-25T08:41:21Z</time>
      </trkpt>
      <trkpt lat="42.90953" lon="0.2897">
        <ele>1338</ele>
        <time>2022-09-25T08:41:23Z</time>
      </trkpt>
      <trkpt lat="42.90964" lon="0.28981">
        <ele>1337.4</ele>
        <time>2022-09-25T08:41:26Z</time>
      </trkpt>
      <trkpt lat="42.90968" lon="0.28983">
        <ele>1336.8</ele>
        <time>2022-09-25T08:41:27Z</time>
      </trkpt>
      <trkpt lat="42.90975" lon="0.28988">
        <ele>1335.8</ele>
        <time>2022-09-25T08:41:29Z</time>
      </trkpt>
      <trkpt lat="42.90978" lon="0.28992">
        <ele>1335.2</ele>
        <time>2022-09-25T08:41:30Z</time>
      </trkpt>
      <trkpt lat="42.90983" lon="0.28997">
        <ele>1334.8</ele>
        <time>2022-09-25T08:41:31Z</time>
      </trkpt>
      <trkpt lat="42.90987" lon="0.29001">
        <ele>1334.4</ele>
        <time>2022-09-25T08:41:32Z</time>
      </trkpt>
      <trkpt lat="42.90991" lon="0.29005">
        <ele>1334.2</ele>
        <time>2022-09-25T08:41:33Z</time>
      </trkpt>
      <trkpt lat="42.91" lon="0.29009">
        <ele>1333.2</ele>
        <time>2022-09-25T08:41:35Z</time>
      </trkpt>
      <trkpt lat="42.91005" lon="0.2901">
        <ele>1332.2</ele>
        <time>2022-09-25T08:41:36Z</time>
      </trkpt>
      <trkpt lat="42.9101" lon="0.2901">
        <ele>1332</ele>
        <time>2022-09-25T08:41:37Z</time>
      </trkpt>
      <trkpt lat="42.91024" lon="0.29005">
        <ele>1330.4</ele>
        <time>2022-09-25T08:41:40Z</time>
      </trkpt>
      <trkpt lat="42.9103" lon="0.29003">
        <ele>1330.2</ele>
        <time>2022-09-25T08:41:41Z</time>
      </trkpt>
      <trkpt lat="42.91039" lon="0.28996">
        <ele>1329.4</ele>
        <time>2022-09-25T08:41:43Z</time>
      </trkpt>
      <trkpt lat="42.91046" lon="0.28988">
        <ele>1328.6</ele>
        <time>2022-09-25T08:41:45Z</time>
      </trkpt>
      <trkpt lat="42.9105" lon="0.28986">
        <ele>1328.2</ele>
        <time>2022-09-25T08:41:46Z</time>
      </trkpt>
      <trkpt lat="42.91055" lon="0.28985">
        <ele>1327.8</ele>
        <time>2022-09-25T08:41:47Z</time>
      </trkpt>
      <trkpt lat="42.9106" lon="0.28986">
        <ele>1327.6</ele>
        <time>2022-09-25T08:41:48Z</time>
      </trkpt>
      <trkpt lat="42.91071" lon="0.2899">
        <ele>1327</ele>
        <time>2022-09-25T08:41:50Z</time>
      </trkpt>
      <trkpt lat="42.91088" lon="0.28998">
        <ele>1326.6</ele>
        <time>2022-09-25T08:41:53Z</time>
      </trkpt>
      <trkpt lat="42.91107" lon="0.29002">
        <ele>1325.2</ele>
        <time>2022-09-25T08:41:56Z</time>
      </trkpt>
      <trkpt lat="42.91114" lon="0.29003">
        <ele>1324.8</ele>
        <time>2022-09-25T08:41:57Z</time>
      </trkpt>
      <trkpt lat="42.91125" lon="0.29003">
        <ele>1324</ele>
        <time>2022-09-25T08:41:59Z</time>
      </trkpt>
      <trkpt lat="42.91136" lon="0.29002">
        <ele>1323</ele>
        <time>2022-09-25T08:42:01Z</time>
      </trkpt>
      <trkpt lat="42.91142" lon="0.29001">
        <ele>1322.6</ele>
        <time>2022-09-25T08:42:02Z</time>
      </trkpt>
      <trkpt lat="42.91154" lon="0.28999">
        <ele>1321.6</ele>
        <time>2022-09-25T08:42:04Z</time>
      </trkpt>
      <trkpt lat="42.91166" lon="0.29001">
        <ele>1320.8</ele>
        <time>2022-09-25T08:42:06Z</time>
      </trkpt>
      <trkpt lat="42.91172" lon="0.29003">
        <ele>1319.8</ele>
        <time>2022-09-25T08:42:07Z</time>
      </trkpt>
      <trkpt lat="42.91177" lon="0.29005">
        <ele>1319</ele>
        <time>2022-09-25T08:42:08Z</time>
      </trkpt>
      <trkpt lat="42.91181" lon="0.29006">
        <ele>1318</ele>
        <time>2022-09-25T08:42:09Z</time>
      </trkpt>
      <trkpt lat="42.9119" lon="0.29009">
        <ele>1316.8</ele>
        <time>2022-09-25T08:42:11Z</time>
      </trkpt>
      <trkpt lat="42.91195" lon="0.29011">
        <ele>1316.6</ele>
        <time>2022-09-25T08:42:12Z</time>
      </trkpt>
      <trkpt lat="42.91198" lon="0.29012">
        <ele>1315.6</ele>
        <time>2022-09-25T08:42:13Z</time>
      </trkpt>
      <trkpt lat="42.91207" lon="0.29017">
        <ele>1314.4</ele>
        <time>2022-09-25T08:42:15Z</time>
      </trkpt>
      <trkpt lat="42.91218" lon="0.29021">
        <ele>1313.8</ele>
        <time>2022-09-25T08:42:17Z</time>
      </trkpt>
      <trkpt lat="42.91223" lon="0.29022">
        <ele>1313.6</ele>
        <time>2022-09-25T08:42:18Z</time>
      </trkpt>
      <trkpt lat="42.91227" lon="0.29023">
        <ele>1313</ele>
        <time>2022-09-25T08:42:19Z</time>
      </trkpt>
      <trkpt lat="42.91244" lon="0.29027">
        <ele>1311.8</ele>
        <time>2022-09-25T08:42:22Z</time>
      </trkpt>
      <trkpt lat="42.91249" lon="0.29029">
        <ele>1310.4</ele>
        <time>2022-09-25T08:42:23Z</time>
      </trkpt>
      <trkpt lat="42.91259" lon="0.29032">
        <ele>1309.2</ele>
        <time>2022-09-25T08:42:25Z</time>
      </trkpt>
      <trkpt lat="42.91266" lon="0.29034">
        <ele>1308.8</ele>
        <time>2022-09-25T08:42:26Z</time>
      </trkpt>
      <trkpt lat="42.91278" lon="0.29038">
        <ele>1308.2</ele>
        <time>2022-09-25T08:42:28Z</time>
      </trkpt>
      <trkpt lat="42.9129" lon="0.29041">
        <ele>1306.6</ele>
        <time>2022-09-25T08:42:30Z</time>
      </trkpt>
      <trkpt lat="42.91295" lon="0.29043">
        <ele>1306.4</ele>
        <time>2022-09-25T08:42:31Z</time>
      </trkpt>
      <trkpt lat="42.91314" lon="0.29051">
        <ele>1304.8</ele>
        <time>2022-09-25T08:42:34Z</time>
      </trkpt>
      <trkpt lat="42.91326" lon="0.29057">
        <ele>1303.6</ele>
        <time>2022-09-25T08:42:36Z</time>
      </trkpt>
      <trkpt lat="42.91338" lon="0.29062">
        <ele>1302.4</ele>
        <time>2022-09-25T08:42:38Z</time>
      </trkpt>
      <trkpt lat="42.91353" lon="0.29068">
        <ele>1301.2</ele>
        <time>2022-09-25T08:42:41Z</time>
      </trkpt>
      <trkpt lat="42.91361" lon="0.2907">
        <ele>1300.4</ele>
        <time>2022-09-25T08:42:43Z</time>
      </trkpt>
      <trkpt lat="42.91365" lon="0.29071">
        <ele>1299.8</ele>
        <time>2022-09-25T08:42:44Z</time>
      </trkpt>
      <trkpt lat="42.91375" lon="0.29071">
        <ele>1298.6</ele>
        <time>2022-09-25T08:42:47Z</time>
      </trkpt>
      <trkpt lat="42.91378" lon="0.2907">
        <ele>1298</ele>
        <time>2022-09-25T08:42:48Z</time>
      </trkpt>
      <trkpt lat="42.91385" lon="0.29069">
        <ele>1297.4</ele>
        <time>2022-09-25T08:42:50Z</time>
      </trkpt>
      <trkpt lat="42.91398" lon="0.29065">
        <ele>1296.4</ele>
        <time>2022-09-25T08:42:53Z</time>
      </trkpt>
      <trkpt lat="42.91402" lon="0.29064">
        <ele>1295.8</ele>
        <time>2022-09-25T08:42:54Z</time>
      </trkpt>
      <trkpt lat="42.91409" lon="0.29061">
        <ele>1295.2</ele>
        <time>2022-09-25T08:42:56Z</time>
      </trkpt>
      <trkpt lat="42.91419" lon="0.29052">
        <ele>1293.6</ele>
        <time>2022-09-25T08:42:59Z</time>
      </trkpt>
      <trkpt lat="42.91432" lon="0.29045">
        <ele>1292.6</ele>
        <time>2022-09-25T08:43:02Z</time>
      </trkpt>
      <trkpt lat="42.91436" lon="0.29043">
        <ele>1292.4</ele>
        <time>2022-09-25T08:43:03Z</time>
      </trkpt>
      <trkpt lat="42.91441" lon="0.29043">
        <ele>1292.2</ele>
        <time>2022-09-25T08:43:04Z</time>
      </trkpt>
      <trkpt lat="42.91455" lon="0.29044">
        <ele>1291</ele>
        <time>2022-09-25T08:43:07Z</time>
      </trkpt>
      <trkpt lat="42.91468" lon="0.29044">
        <ele>1289.8</ele>
        <time>2022-09-25T08:43:10Z</time>
      </trkpt>
      <trkpt lat="42.9148" lon="0.29046">
        <ele>1288</ele>
        <time>2022-09-25T08:43:13Z</time>
      </trkpt>
      <trkpt lat="42.91487" lon="0.29045">
        <ele>1287.2</ele>
        <time>2022-09-25T08:43:15Z</time>
      </trkpt>
      <trkpt lat="42.9149" lon="0.29044">
        <ele>1286.8</ele>
        <time>2022-09-25T08:43:16Z</time>
      </trkpt>
      <trkpt lat="42.91502" lon="0.29044">
        <ele>1285.6</ele>
        <time>2022-09-25T08:43:20Z</time>
      </trkpt>
      <trkpt lat="42.9151" lon="0.29046">
        <ele>1285</ele>
        <time>2022-09-25T08:43:23Z</time>
      </trkpt>
      <trkpt lat="42.91512" lon="0.29046">
        <ele>1284.2</ele>
        <time>2022-09-25T08:43:25Z</time>
      </trkpt>
      <trkpt lat="42.91514" lon="0.29046">
        <ele>1283.4</ele>
        <time>2022-09-25T08:43:30Z</time>
      </trkpt>
      <trkpt lat="42.91515" lon="0.29047">
        <ele>1283.4</ele>
        <time>2022-09-25T08:43:31Z</time>
      </trkpt>
      <trkpt lat="42.91519" lon="0.29048">
        <ele>1283.2</ele>
        <time>2022-09-25T08:43:36Z</time>
      </trkpt>
      <trkpt lat="42.91521" lon="0.29047">
        <ele>1283</ele>
        <time>2022-09-25T08:43:39Z</time>
      </trkpt>
      <trkpt lat="42.91525" lon="0.29046">
        <ele>1282.6</ele>
        <time>2022-09-25T08:43:46Z</time>
      </trkpt>
      <trkpt lat="42.91529" lon="0.29047">
        <ele>1282.6</ele>
        <time>2022-09-25T08:43:53Z</time>
      </trkpt>
      <trkpt lat="42.91532" lon="0.29046">
        <ele>1282.4</ele>
        <time>2022-09-25T08:44:00Z</time>
      </trkpt>
      <trkpt lat="42.91538" lon="0.29047">
        <ele>1282</ele>
        <time>2022-09-25T08:44:05Z</time>
      </trkpt>
      <trkpt lat="42.91548" lon="0.29048">
        <ele>1281.6</ele>
        <time>2022-09-25T08:44:10Z</time>
      </trkpt>
      <trkpt lat="42.9155" lon="0.29048">
        <ele>1281.6</ele>
        <time>2022-09-25T08:44:11Z</time>
      </trkpt>
      <trkpt lat="42.91564" lon="0.29051">
        <ele>1280.8</ele>
        <time>2022-09-25T08:44:18Z</time>
      </trkpt>
      <trkpt lat="42.91566" lon="0.29051">
        <ele>1280.6</ele>
        <time>2022-09-25T08:44:19Z</time>
      </trkpt>
      <trkpt lat="42.91572" lon="0.29053">
        <ele>1280.4</ele>
        <time>2022-09-25T08:44:22Z</time>
      </trkpt>
      <trkpt lat="42.91576" lon="0.29054">
        <ele>1280.2</ele>
        <time>2022-09-25T08:44:24Z</time>
      </trkpt>
      <trkpt lat="42.91584" lon="0.29052">
        <ele>1280</ele>
        <time>2022-09-25T08:44:27Z</time>
      </trkpt>
      <trkpt lat="42.91589" lon="0.29052">
        <ele>1279.8</ele>
        <time>2022-09-25T08:44:29Z</time>
      </trkpt>
      <trkpt lat="42.916" lon="0.29054">
        <ele>1279.4</ele>
        <time>2022-09-25T08:44:33Z</time>
      </trkpt>
      <trkpt lat="42.91608" lon="0.29057">
        <ele>1278.6</ele>
        <time>2022-09-25T08:44:37Z</time>
      </trkpt>
      <trkpt lat="42.9161" lon="0.29058">
        <ele>1278.2</ele>
        <time>2022-09-25T08:44:38Z</time>
      </trkpt>
      <trkpt lat="42.91617" lon="0.2906">
        <ele>1278</ele>
        <time>2022-09-25T08:44:42Z</time>
      </trkpt>
      <trkpt lat="42.9163" lon="0.29066">
        <ele>1277.6</ele>
        <time>2022-09-25T08:44:48Z</time>
      </trkpt>
      <trkpt lat="42.91645" lon="0.29072">
        <ele>1277.2</ele>
        <time>2022-09-25T08:44:53Z</time>
      </trkpt>
      <trkpt lat="42.91653" lon="0.29078">
        <ele>1277.2</ele>
        <time>2022-09-25T08:44:55Z</time>
      </trkpt>
      <trkpt lat="42.9166" lon="0.29082">
        <ele>1277</ele>
        <time>2022-09-25T08:44:57Z</time>
      </trkpt>
      <trkpt lat="42.91664" lon="0.29083">
        <ele>1277</ele>
        <time>2022-09-25T08:44:58Z</time>
      </trkpt>
      <trkpt lat="42.9169" lon="0.29097">
        <ele>1276.2</ele>
        <time>2022-09-25T08:45:05Z</time>
      </trkpt>
      <trkpt lat="42.91699" lon="0.29103">
        <ele>1275.8</ele>
        <time>2022-09-25T08:45:07Z</time>
      </trkpt>
      <trkpt lat="42.9171" lon="0.2911">
        <ele>1275.6</ele>
        <time>2022-09-25T08:45:09Z</time>
      </trkpt>
      <trkpt lat="42.91716" lon="0.29115">
        <ele>1275.6</ele>
        <time>2022-09-25T08:45:10Z</time>
      </trkpt>
      <trkpt lat="42.91735" lon="0.2913">
        <ele>1274.6</ele>
        <time>2022-09-25T08:45:13Z</time>
      </trkpt>
      <trkpt lat="42.91742" lon="0.29136">
        <ele>1273.8</ele>
        <time>2022-09-25T08:45:14Z</time>
      </trkpt>
      <trkpt lat="42.91749" lon="0.29141">
        <ele>1273.2</ele>
        <time>2022-09-25T08:45:15Z</time>
      </trkpt>
      <trkpt lat="42.91763" lon="0.2915">
        <ele>1272</ele>
        <time>2022-09-25T08:45:17Z</time>
      </trkpt>
      <trkpt lat="42.91776" lon="0.29159">
        <ele>1271</ele>
        <time>2022-09-25T08:45:19Z</time>
      </trkpt>
      <trkpt lat="42.91783" lon="0.29164">
        <ele>1270.4</ele>
        <time>2022-09-25T08:45:20Z</time>
      </trkpt>
      <trkpt lat="42.91802" lon="0.29179">
        <ele>1268.8</ele>
        <time>2022-09-25T08:45:23Z</time>
      </trkpt>
      <trkpt lat="42.91809" lon="0.29185">
        <ele>1268</ele>
        <time>2022-09-25T08:45:24Z</time>
      </trkpt>
      <trkpt lat="42.91814" lon="0.2919">
        <ele>1267.8</ele>
        <time>2022-09-25T08:45:25Z</time>
      </trkpt>
      <trkpt lat="42.91818" lon="0.29194">
        <ele>1267.2</ele>
        <time>2022-09-25T08:45:26Z</time>
      </trkpt>
      <trkpt lat="42.91829" lon="0.29203">
        <ele>1266.2</ele>
        <time>2022-09-25T08:45:28Z</time>
      </trkpt>
      <trkpt lat="42.91843" lon="0.29214">
        <ele>1265.2</ele>
        <time>2022-09-25T08:45:31Z</time>
      </trkpt>
      <trkpt lat="42.91865" lon="0.2923">
        <ele>1264</ele>
        <time>2022-09-25T08:45:36Z</time>
      </trkpt>
      <trkpt lat="42.9187" lon="0.29234">
        <ele>1263.8</ele>
        <time>2022-09-25T08:45:37Z</time>
      </trkpt>
      <trkpt lat="42.91885" lon="0.29243">
        <ele>1262.8</ele>
        <time>2022-09-25T08:45:40Z</time>
      </trkpt>
      <trkpt lat="42.91895" lon="0.29248">
        <ele>1262</ele>
        <time>2022-09-25T08:45:42Z</time>
      </trkpt>
      <trkpt lat="42.91905" lon="0.29254">
        <ele>1261.6</ele>
        <time>2022-09-25T08:45:44Z</time>
      </trkpt>
      <trkpt lat="42.91924" lon="0.29262">
        <ele>1260.4</ele>
        <time>2022-09-25T08:45:48Z</time>
      </trkpt>
      <trkpt lat="42.91928" lon="0.29264">
        <ele>1259.2</ele>
        <time>2022-09-25T08:45:49Z</time>
      </trkpt>
      <trkpt lat="42.91938" lon="0.29264">
        <ele>1258.4</ele>
        <time>2022-09-25T08:45:51Z</time>
      </trkpt>
      <trkpt lat="42.91942" lon="0.29263">
        <ele>1257.6</ele>
        <time>2022-09-25T08:45:52Z</time>
      </trkpt>
      <trkpt lat="42.9195" lon="0.29261">
        <ele>1256.2</ele>
        <time>2022-09-25T08:45:54Z</time>
      </trkpt>
      <trkpt lat="42.91958" lon="0.29259">
        <ele>1255.2</ele>
        <time>2022-09-25T08:45:56Z</time>
      </trkpt>
      <trkpt lat="42.91962" lon="0.29258">
        <ele>1254.6</ele>
        <time>2022-09-25T08:45:57Z</time>
      </trkpt>
      <trkpt lat="42.9197" lon="0.29258">
        <ele>1253.6</ele>
        <time>2022-09-25T08:45:59Z</time>
      </trkpt>
      <trkpt lat="42.91978" lon="0.29256">
        <ele>1252</ele>
        <time>2022-09-25T08:46:01Z</time>
      </trkpt>
      <trkpt lat="42.91989" lon="0.29253">
        <ele>1251.2</ele>
        <time>2022-09-25T08:46:03Z</time>
      </trkpt>
      <trkpt lat="42.91998" lon="0.2925">
        <ele>1250.6</ele>
        <time>2022-09-25T08:46:05Z</time>
      </trkpt>
      <trkpt lat="42.92004" lon="0.29249">
        <ele>1250.2</ele>
        <time>2022-09-25T08:46:06Z</time>
      </trkpt>
      <trkpt lat="42.92011" lon="0.29248">
        <ele>1249.6</ele>
        <time>2022-09-25T08:46:07Z</time>
      </trkpt>
      <trkpt lat="42.92017" lon="0.29248">
        <ele>1249.2</ele>
        <time>2022-09-25T08:46:08Z</time>
      </trkpt>
      <trkpt lat="42.92022" lon="0.29247">
        <ele>1248.4</ele>
        <time>2022-09-25T08:46:09Z</time>
      </trkpt>
      <trkpt lat="42.92036" lon="0.29245">
        <ele>1246.8</ele>
        <time>2022-09-25T08:46:12Z</time>
      </trkpt>
      <trkpt lat="42.92046" lon="0.29245">
        <ele>1246</ele>
        <time>2022-09-25T08:46:14Z</time>
      </trkpt>
      <trkpt lat="42.92051" lon="0.29245">
        <ele>1245.8</ele>
        <time>2022-09-25T08:46:15Z</time>
      </trkpt>
      <trkpt lat="42.92068" lon="0.29243">
        <ele>1244.8</ele>
        <time>2022-09-25T08:46:19Z</time>
      </trkpt>
      <trkpt lat="42.92073" lon="0.29242">
        <ele>1244.4</ele>
        <time>2022-09-25T08:46:20Z</time>
      </trkpt>
      <trkpt lat="42.92083" lon="0.29239">
        <ele>1244</ele>
        <time>2022-09-25T08:46:22Z</time>
      </trkpt>
      <trkpt lat="42.92087" lon="0.29236">
        <ele>1243.6</ele>
        <time>2022-09-25T08:46:23Z</time>
      </trkpt>
      <trkpt lat="42.92092" lon="0.29233">
        <ele>1243.2</ele>
        <time>2022-09-25T08:46:24Z</time>
      </trkpt>
      <trkpt lat="42.92097" lon="0.29231">
        <ele>1243</ele>
        <time>2022-09-25T08:46:25Z</time>
      </trkpt>
      <trkpt lat="42.92101" lon="0.29229">
        <ele>1242.4</ele>
        <time>2022-09-25T08:46:26Z</time>
      </trkpt>
      <trkpt lat="42.92116" lon="0.2923">
        <ele>1241.8</ele>
        <time>2022-09-25T08:46:29Z</time>
      </trkpt>
      <trkpt lat="42.9212" lon="0.29232">
        <ele>1241.4</ele>
        <time>2022-09-25T08:46:30Z</time>
      </trkpt>
      <trkpt lat="42.92139" lon="0.29242">
        <ele>1240</ele>
        <time>2022-09-25T08:46:34Z</time>
      </trkpt>
      <trkpt lat="42.92143" lon="0.29244">
        <ele>1240</ele>
        <time>2022-09-25T08:46:35Z</time>
      </trkpt>
      <trkpt lat="42.92153" lon="0.29247">
        <ele>1239.2</ele>
        <time>2022-09-25T08:46:37Z</time>
      </trkpt>
      <trkpt lat="42.92157" lon="0.29248">
        <ele>1238.8</ele>
        <time>2022-09-25T08:46:38Z</time>
      </trkpt>
      <trkpt lat="42.92162" lon="0.29251">
        <ele>1238.6</ele>
        <time>2022-09-25T08:46:39Z</time>
      </trkpt>
      <trkpt lat="42.9217" lon="0.29254">
        <ele>1238.4</ele>
        <time>2022-09-25T08:46:41Z</time>
      </trkpt>
      <trkpt lat="42.92181" lon="0.29255">
        <ele>1238</ele>
        <time>2022-09-25T08:46:43Z</time>
      </trkpt>
      <trkpt lat="42.92191" lon="0.29254">
        <ele>1237.6</ele>
        <time>2022-09-25T08:46:45Z</time>
      </trkpt>
      <trkpt lat="42.92203" lon="0.29254">
        <ele>1236.8</ele>
        <time>2022-09-25T08:46:47Z</time>
      </trkpt>
      <trkpt lat="42.92213" lon="0.2925">
        <ele>1236.6</ele>
        <time>2022-09-25T08:46:49Z</time>
      </trkpt>
      <trkpt lat="42.92233" lon="0.29239">
        <ele>1235.6</ele>
        <time>2022-09-25T08:46:52Z</time>
      </trkpt>
      <trkpt lat="42.92242" lon="0.29239">
        <ele>1235</ele>
        <time>2022-09-25T08:46:53Z</time>
      </trkpt>
      <trkpt lat="42.92258" lon="0.29239">
        <ele>1234.4</ele>
        <time>2022-09-25T08:46:55Z</time>
      </trkpt>
      <trkpt lat="42.92265" lon="0.2924">
        <ele>1233.8</ele>
        <time>2022-09-25T08:46:56Z</time>
      </trkpt>
      <trkpt lat="42.9228" lon="0.29242">
        <ele>1232.6</ele>
        <time>2022-09-25T08:46:58Z</time>
      </trkpt>
      <trkpt lat="42.92287" lon="0.29244">
        <ele>1232</ele>
        <time>2022-09-25T08:46:59Z</time>
      </trkpt>
      <trkpt lat="42.92302" lon="0.29246">
        <ele>1231.4</ele>
        <time>2022-09-25T08:47:01Z</time>
      </trkpt>
      <trkpt lat="42.92318" lon="0.29252">
        <ele>1230.6</ele>
        <time>2022-09-25T08:47:03Z</time>
      </trkpt>
      <trkpt lat="42.92324" lon="0.29253">
        <ele>1230</ele>
        <time>2022-09-25T08:47:04Z</time>
      </trkpt>
      <trkpt lat="42.92338" lon="0.29256">
        <ele>1228.2</ele>
        <time>2022-09-25T08:47:06Z</time>
      </trkpt>
      <trkpt lat="42.92343" lon="0.29255">
        <ele>1228</ele>
        <time>2022-09-25T08:47:07Z</time>
      </trkpt>
      <trkpt lat="42.92356" lon="0.29254">
        <ele>1227</ele>
        <time>2022-09-25T08:47:09Z</time>
      </trkpt>
      <trkpt lat="42.92364" lon="0.29254">
        <ele>1226.4</ele>
        <time>2022-09-25T08:47:10Z</time>
      </trkpt>
      <trkpt lat="42.9237" lon="0.29253">
        <ele>1226</ele>
        <time>2022-09-25T08:47:11Z</time>
      </trkpt>
      <trkpt lat="42.92385" lon="0.2925">
        <ele>1224.4</ele>
        <time>2022-09-25T08:47:13Z</time>
      </trkpt>
      <trkpt lat="42.92392" lon="0.29248">
        <ele>1223.4</ele>
        <time>2022-09-25T08:47:14Z</time>
      </trkpt>
      <trkpt lat="42.92399" lon="0.29246">
        <ele>1223</ele>
        <time>2022-09-25T08:47:15Z</time>
      </trkpt>
      <trkpt lat="42.92406" lon="0.29243">
        <ele>1221.6</ele>
        <time>2022-09-25T08:47:16Z</time>
      </trkpt>
      <trkpt lat="42.92422" lon="0.29233">
        <ele>1220.4</ele>
        <time>2022-09-25T08:47:18Z</time>
      </trkpt>
      <trkpt lat="42.9244" lon="0.29222">
        <ele>1219</ele>
        <time>2022-09-25T08:47:21Z</time>
      </trkpt>
      <trkpt lat="42.92448" lon="0.2922">
        <ele>1217.8</ele>
        <time>2022-09-25T08:47:22Z</time>
      </trkpt>
      <trkpt lat="42.92454" lon="0.29219">
        <ele>1217</ele>
        <time>2022-09-25T08:47:23Z</time>
      </trkpt>
      <trkpt lat="42.92458" lon="0.29218">
        <ele>1216</ele>
        <time>2022-09-25T08:47:24Z</time>
      </trkpt>
      <trkpt lat="42.9247" lon="0.29215">
        <ele>1215</ele>
        <time>2022-09-25T08:47:26Z</time>
      </trkpt>
      <trkpt lat="42.92483" lon="0.29211">
        <ele>1213.8</ele>
        <time>2022-09-25T08:47:28Z</time>
      </trkpt>
      <trkpt lat="42.92496" lon="0.29209">
        <ele>1212.6</ele>
        <time>2022-09-25T08:47:30Z</time>
      </trkpt>
      <trkpt lat="42.92502" lon="0.29209">
        <ele>1211.4</ele>
        <time>2022-09-25T08:47:31Z</time>
      </trkpt>
      <trkpt lat="42.92506" lon="0.29209">
        <ele>1210</ele>
        <time>2022-09-25T08:47:32Z</time>
      </trkpt>
      <trkpt lat="42.92511" lon="0.29208">
        <ele>1209.6</ele>
        <time>2022-09-25T08:47:33Z</time>
      </trkpt>
      <trkpt lat="42.92516" lon="0.29207">
        <ele>1208.8</ele>
        <time>2022-09-25T08:47:34Z</time>
      </trkpt>
      <trkpt lat="42.92525" lon="0.29206">
        <ele>1207</ele>
        <time>2022-09-25T08:47:36Z</time>
      </trkpt>
      <trkpt lat="42.92538" lon="0.29204">
        <ele>1205.6</ele>
        <time>2022-09-25T08:47:38Z</time>
      </trkpt>
      <trkpt lat="42.92544" lon="0.29203">
        <ele>1205.2</ele>
        <time>2022-09-25T08:47:39Z</time>
      </trkpt>
      <trkpt lat="42.92551" lon="0.29204">
        <ele>1204.8</ele>
        <time>2022-09-25T08:47:40Z</time>
      </trkpt>
      <trkpt lat="42.92557" lon="0.29205">
        <ele>1203.8</ele>
        <time>2022-09-25T08:47:41Z</time>
      </trkpt>
      <trkpt lat="42.92564" lon="0.29208">
        <ele>1203.4</ele>
        <time>2022-09-25T08:47:42Z</time>
      </trkpt>
      <trkpt lat="42.92571" lon="0.29211">
        <ele>1202.8</ele>
        <time>2022-09-25T08:47:43Z</time>
      </trkpt>
      <trkpt lat="42.92586" lon="0.29218">
        <ele>1201.8</ele>
        <time>2022-09-25T08:47:45Z</time>
      </trkpt>
      <trkpt lat="42.92611" lon="0.2922">
        <ele>1200.6</ele>
        <time>2022-09-25T08:47:48Z</time>
      </trkpt>
      <trkpt lat="42.92619" lon="0.29221">
        <ele>1200</ele>
        <time>2022-09-25T08:47:49Z</time>
      </trkpt>
      <trkpt lat="42.92627" lon="0.29221">
        <ele>1199.8</ele>
        <time>2022-09-25T08:47:50Z</time>
      </trkpt>
      <trkpt lat="42.92634" lon="0.29219">
        <ele>1199</ele>
        <time>2022-09-25T08:47:51Z</time>
      </trkpt>
      <trkpt lat="42.9264" lon="0.29218">
        <ele>1198.6</ele>
        <time>2022-09-25T08:47:52Z</time>
      </trkpt>
      <trkpt lat="42.92651" lon="0.29215">
        <ele>1198</ele>
        <time>2022-09-25T08:47:54Z</time>
      </trkpt>
      <trkpt lat="42.92662" lon="0.29212">
        <ele>1198</ele>
        <time>2022-09-25T08:47:56Z</time>
      </trkpt>
      <trkpt lat="42.92699" lon="0.29219">
        <ele>1197.2</ele>
        <time>2022-09-25T08:48:02Z</time>
      </trkpt>
      <trkpt lat="42.92718" lon="0.29228">
        <ele>1196.8</ele>
        <time>2022-09-25T08:48:05Z</time>
      </trkpt>
      <trkpt lat="42.92726" lon="0.2923">
        <ele>1196.8</ele>
        <time>2022-09-25T08:48:06Z</time>
      </trkpt>
      <trkpt lat="42.92732" lon="0.29232">
        <ele>1196.8</ele>
        <time>2022-09-25T08:48:07Z</time>
      </trkpt>
      <trkpt lat="42.92747" lon="0.29236">
        <ele>1195.2</ele>
        <time>2022-09-25T08:48:09Z</time>
      </trkpt>
      <trkpt lat="42.92754" lon="0.29238">
        <ele>1193.8</ele>
        <time>2022-09-25T08:48:10Z</time>
      </trkpt>
      <trkpt lat="42.92768" lon="0.29238">
        <ele>1192.8</ele>
        <time>2022-09-25T08:48:12Z</time>
      </trkpt>
      <trkpt lat="42.92776" lon="0.29238">
        <ele>1192.6</ele>
        <time>2022-09-25T08:48:13Z</time>
      </trkpt>
      <trkpt lat="42.92802" lon="0.29237">
        <ele>1190.8</ele>
        <time>2022-09-25T08:48:16Z</time>
      </trkpt>
      <trkpt lat="42.92809" lon="0.29234">
        <ele>1190.4</ele>
        <time>2022-09-25T08:48:17Z</time>
      </trkpt>
      <trkpt lat="42.92815" lon="0.2923">
        <ele>1189.6</ele>
        <time>2022-09-25T08:48:18Z</time>
      </trkpt>
      <trkpt lat="42.92825" lon="0.29221">
        <ele>1188.4</ele>
        <time>2022-09-25T08:48:20Z</time>
      </trkpt>
      <trkpt lat="42.92842" lon="0.29208">
        <ele>1187.2</ele>
        <time>2022-09-25T08:48:23Z</time>
      </trkpt>
      <trkpt lat="42.92856" lon="0.29199">
        <ele>1186.6</ele>
        <time>2022-09-25T08:48:25Z</time>
      </trkpt>
      <trkpt lat="42.92862" lon="0.29196">
        <ele>1186.2</ele>
        <time>2022-09-25T08:48:26Z</time>
      </trkpt>
      <trkpt lat="42.92883" lon="0.29189">
        <ele>1185</ele>
        <time>2022-09-25T08:48:29Z</time>
      </trkpt>
      <trkpt lat="42.92889" lon="0.29185">
        <ele>1184.4</ele>
        <time>2022-09-25T08:48:30Z</time>
      </trkpt>
      <trkpt lat="42.92895" lon="0.29181">
        <ele>1184</ele>
        <time>2022-09-25T08:48:31Z</time>
      </trkpt>
      <trkpt lat="42.92905" lon="0.29173">
        <ele>1182.8</ele>
        <time>2022-09-25T08:48:33Z</time>
      </trkpt>
      <trkpt lat="42.92909" lon="0.29169">
        <ele>1181.8</ele>
        <time>2022-09-25T08:48:34Z</time>
      </trkpt>
      <trkpt lat="42.92913" lon="0.29165">
        <ele>1180.8</ele>
        <time>2022-09-25T08:48:35Z</time>
      </trkpt>
      <trkpt lat="42.92918" lon="0.29161">
        <ele>1179.4</ele>
        <time>2022-09-25T08:48:36Z</time>
      </trkpt>
      <trkpt lat="42.92923" lon="0.29158">
        <ele>1178.6</ele>
        <time>2022-09-25T08:48:37Z</time>
      </trkpt>
      <trkpt lat="42.92929" lon="0.29156">
        <ele>1178.2</ele>
        <time>2022-09-25T08:48:38Z</time>
      </trkpt>
      <trkpt lat="42.92935" lon="0.29157">
        <ele>1177</ele>
        <time>2022-09-25T08:48:39Z</time>
      </trkpt>
      <trkpt lat="42.92948" lon="0.29162">
        <ele>1175.2</ele>
        <time>2022-09-25T08:48:41Z</time>
      </trkpt>
      <trkpt lat="42.92963" lon="0.29164">
        <ele>1173.6</ele>
        <time>2022-09-25T08:48:43Z</time>
      </trkpt>
      <trkpt lat="42.92979" lon="0.2916">
        <ele>1172.4</ele>
        <time>2022-09-25T08:48:45Z</time>
      </trkpt>
      <trkpt lat="42.93002" lon="0.29155">
        <ele>1170.6</ele>
        <time>2022-09-25T08:48:48Z</time>
      </trkpt>
      <trkpt lat="42.93015" lon="0.29162">
        <ele>1169.2</ele>
        <time>2022-09-25T08:48:50Z</time>
      </trkpt>
      <trkpt lat="42.93021" lon="0.29169">
        <ele>1168.4</ele>
        <time>2022-09-25T08:48:51Z</time>
      </trkpt>
      <trkpt lat="42.93026" lon="0.29177">
        <ele>1167.8</ele>
        <time>2022-09-25T08:48:52Z</time>
      </trkpt>
      <trkpt lat="42.93036" lon="0.29196">
        <ele>1166.4</ele>
        <time>2022-09-25T08:48:54Z</time>
      </trkpt>
      <trkpt lat="42.9304" lon="0.29207">
        <ele>1165.2</ele>
        <time>2022-09-25T08:48:55Z</time>
      </trkpt>
      <trkpt lat="42.93046" lon="0.29228">
        <ele>1163.6</ele>
        <time>2022-09-25T08:48:57Z</time>
      </trkpt>
      <trkpt lat="42.93049" lon="0.29237">
        <ele>1163.2</ele>
        <time>2022-09-25T08:48:58Z</time>
      </trkpt>
      <trkpt lat="42.93053" lon="0.29245">
        <ele>1162.4</ele>
        <time>2022-09-25T08:48:59Z</time>
      </trkpt>
      <trkpt lat="42.93059" lon="0.29251">
        <ele>1162</ele>
        <time>2022-09-25T08:49:00Z</time>
      </trkpt>
      <trkpt lat="42.93066" lon="0.29257">
        <ele>1161.2</ele>
        <time>2022-09-25T08:49:01Z</time>
      </trkpt>
      <trkpt lat="42.93073" lon="0.29262">
        <ele>1160.8</ele>
        <time>2022-09-25T08:49:02Z</time>
      </trkpt>
      <trkpt lat="42.93089" lon="0.2927">
        <ele>1160</ele>
        <time>2022-09-25T08:49:04Z</time>
      </trkpt>
      <trkpt lat="42.93106" lon="0.29277">
        <ele>1158.6</ele>
        <time>2022-09-25T08:49:06Z</time>
      </trkpt>
      <trkpt lat="42.93115" lon="0.29281">
        <ele>1157.6</ele>
        <time>2022-09-25T08:49:07Z</time>
      </trkpt>
      <trkpt lat="42.93123" lon="0.29284">
        <ele>1157</ele>
        <time>2022-09-25T08:49:08Z</time>
      </trkpt>
      <trkpt lat="42.93142" lon="0.29289">
        <ele>1155.8</ele>
        <time>2022-09-25T08:49:10Z</time>
      </trkpt>
      <trkpt lat="42.93152" lon="0.29291">
        <ele>1155.4</ele>
        <time>2022-09-25T08:49:11Z</time>
      </trkpt>
      <trkpt lat="42.93171" lon="0.29292">
        <ele>1154.4</ele>
        <time>2022-09-25T08:49:13Z</time>
      </trkpt>
      <trkpt lat="42.9319" lon="0.29291">
        <ele>1153</ele>
        <time>2022-09-25T08:49:15Z</time>
      </trkpt>
      <trkpt lat="42.93208" lon="0.29291">
        <ele>1152</ele>
        <time>2022-09-25T08:49:17Z</time>
      </trkpt>
      <trkpt lat="42.93238" lon="0.29286">
        <ele>1150.6</ele>
        <time>2022-09-25T08:49:20Z</time>
      </trkpt>
      <trkpt lat="42.93266" lon="0.29282">
        <ele>1149.4</ele>
        <time>2022-09-25T08:49:23Z</time>
      </trkpt>
      <trkpt lat="42.93282" lon="0.2928">
        <ele>1148.4</ele>
        <time>2022-09-25T08:49:24Z</time>
      </trkpt>
      <trkpt lat="42.93282" lon="0.2928">
        <ele>1147.8</ele>
        <time>2022-09-25T08:49:25Z</time>
      </trkpt>
      <trkpt lat="42.93294" lon="0.29282">
        <ele>1147</ele>
        <time>2022-09-25T08:49:26Z</time>
      </trkpt>
      <trkpt lat="42.93303" lon="0.2928">
        <ele>1145.8</ele>
        <time>2022-09-25T08:49:28Z</time>
      </trkpt>
      <trkpt lat="42.93314" lon="0.29275">
        <ele>1144</ele>
        <time>2022-09-25T08:49:30Z</time>
      </trkpt>
      <trkpt lat="42.93318" lon="0.29269">
        <ele>1142.6</ele>
        <time>2022-09-25T08:49:32Z</time>
      </trkpt>
      <trkpt lat="42.93326" lon="0.29257">
        <ele>1141.4</ele>
        <time>2022-09-25T08:49:34Z</time>
      </trkpt>
      <trkpt lat="42.93346" lon="0.29226">
        <ele>1140</ele>
        <time>2022-09-25T08:49:37Z</time>
      </trkpt>
      <trkpt lat="42.93359" lon="0.29211">
        <ele>1139.4</ele>
        <time>2022-09-25T08:49:39Z</time>
      </trkpt>
      <trkpt lat="42.93366" lon="0.29205">
        <ele>1138.6</ele>
        <time>2022-09-25T08:49:41Z</time>
      </trkpt>
      <trkpt lat="42.93391" lon="0.29189">
        <ele>1137.6</ele>
        <time>2022-09-25T08:49:44Z</time>
      </trkpt>
      <trkpt lat="42.93416" lon="0.29171">
        <ele>1136.2</ele>
        <time>2022-09-25T08:49:47Z</time>
      </trkpt>
      <trkpt lat="42.93433" lon="0.29159">
        <ele>1135.2</ele>
        <time>2022-09-25T08:49:49Z</time>
      </trkpt>
      <trkpt lat="42.93451" lon="0.29148">
        <ele>1135</ele>
        <time>2022-09-25T08:49:50Z</time>
      </trkpt>
      <trkpt lat="42.93469" lon="0.29138">
        <ele>1133.6</ele>
        <time>2022-09-25T08:49:53Z</time>
      </trkpt>
      <trkpt lat="42.93487" lon="0.29129">
        <ele>1132.6</ele>
        <time>2022-09-25T08:49:55Z</time>
      </trkpt>
      <trkpt lat="42.93496" lon="0.29125">
        <ele>1132.4</ele>
        <time>2022-09-25T08:49:56Z</time>
      </trkpt>
      <trkpt lat="42.93514" lon="0.29116">
        <ele>1131.2</ele>
        <time>2022-09-25T08:49:58Z</time>
      </trkpt>
      <trkpt lat="42.93539" lon="0.29097">
        <ele>1130.4</ele>
        <time>2022-09-25T08:50:00Z</time>
      </trkpt>
      <trkpt lat="42.93539" lon="0.29097">
        <ele>1129.8</ele>
        <time>2022-09-25T08:50:01Z</time>
      </trkpt>
      <trkpt lat="42.93554" lon="0.2908">
        <ele>1129.6</ele>
        <time>2022-09-25T08:50:02Z</time>
      </trkpt>
      <trkpt lat="42.9356" lon="0.2907">
        <ele>1129</ele>
        <time>2022-09-25T08:50:04Z</time>
      </trkpt>
      <trkpt lat="42.93571" lon="0.29048">
        <ele>1128.4</ele>
        <time>2022-09-25T08:50:05Z</time>
      </trkpt>
      <trkpt lat="42.93586" lon="0.29013">
        <ele>1127.4</ele>
        <time>2022-09-25T08:50:09Z</time>
      </trkpt>
      <trkpt lat="42.93607" lon="0.28969">
        <ele>1125.8</ele>
        <time>2022-09-25T08:50:12Z</time>
      </trkpt>
      <trkpt lat="42.93629" lon="0.2893">
        <ele>1124.8</ele>
        <time>2022-09-25T08:50:16Z</time>
      </trkpt>
      <trkpt lat="42.93647" lon="0.289">
        <ele>1124.2</ele>
        <time>2022-09-25T08:50:19Z</time>
      </trkpt>
      <trkpt lat="42.93662" lon="0.28867">
        <ele>1123.6</ele>
        <time>2022-09-25T08:50:22Z</time>
      </trkpt>
      <trkpt lat="42.93673" lon="0.28846">
        <ele>1123</ele>
        <time>2022-09-25T08:50:25Z</time>
      </trkpt>
      <trkpt lat="42.93691" lon="0.28814">
        <ele>1122.4</ele>
        <time>2022-09-25T08:50:27Z</time>
      </trkpt>
      <trkpt lat="42.93714" lon="0.28774">
        <ele>1121.4</ele>
        <time>2022-09-25T08:50:31Z</time>
      </trkpt>
      <trkpt lat="42.93728" lon="0.28751">
        <ele>1120.6</ele>
        <time>2022-09-25T08:50:33Z</time>
      </trkpt>
      <trkpt lat="42.93734" lon="0.28741">
        <ele>1120.2</ele>
        <time>2022-09-25T08:50:34Z</time>
      </trkpt>
      <trkpt lat="42.93753" lon="0.2871">
        <ele>1119.2</ele>
        <time>2022-09-25T08:50:38Z</time>
      </trkpt>
      <trkpt lat="42.9379" lon="0.28648">
        <ele>1117.8</ele>
        <time>2022-09-25T08:50:43Z</time>
      </trkpt>
      <trkpt lat="42.93809" lon="0.28617">
        <ele>1117</ele>
        <time>2022-09-25T08:50:46Z</time>
      </trkpt>
      <trkpt lat="42.93814" lon="0.28609">
        <ele>1116.6</ele>
        <time>2022-09-25T08:50:47Z</time>
      </trkpt>
      <trkpt lat="42.93833" lon="0.28575">
        <ele>1115.4</ele>
        <time>2022-09-25T08:50:51Z</time>
      </trkpt>
      <trkpt lat="42.93865" lon="0.28526">
        <ele>1114.2</ele>
        <time>2022-09-25T08:50:55Z</time>
      </trkpt>
      <trkpt lat="42.93877" lon="0.28507">
        <ele>1113</ele>
        <time>2022-09-25T08:50:58Z</time>
      </trkpt>
      <trkpt lat="42.939" lon="0.28468">
        <ele>1112.4</ele>
        <time>2022-09-25T08:51:01Z</time>
      </trkpt>
      <trkpt lat="42.93905" lon="0.28457">
        <ele>1112.2</ele>
        <time>2022-09-25T08:51:02Z</time>
      </trkpt>
      <trkpt lat="42.93909" lon="0.28446">
        <ele>1111.8</ele>
        <time>2022-09-25T08:51:03Z</time>
      </trkpt>
      <trkpt lat="42.93938" lon="0.28398">
        <ele>1110.6</ele>
        <time>2022-09-25T08:51:08Z</time>
      </trkpt>
      <trkpt lat="42.9397" lon="0.28351">
        <ele>1109.4</ele>
        <time>2022-09-25T08:51:13Z</time>
      </trkpt>
      <trkpt lat="42.9398" lon="0.28333">
        <ele>1108.8</ele>
        <time>2022-09-25T08:51:16Z</time>
      </trkpt>
      <trkpt lat="42.94001" lon="0.28304">
        <ele>1108.4</ele>
        <time>2022-09-25T08:51:18Z</time>
      </trkpt>
      <trkpt lat="42.94014" lon="0.28286">
        <ele>1107.8</ele>
        <time>2022-09-25T08:51:21Z</time>
      </trkpt>
      <trkpt lat="42.94028" lon="0.2827">
        <ele>1107.2</ele>
        <time>2022-09-25T08:51:22Z</time>
      </trkpt>
      <trkpt lat="42.94062" lon="0.2823">
        <ele>1106</ele>
        <time>2022-09-25T08:51:27Z</time>
      </trkpt>
      <trkpt lat="42.94068" lon="0.28221">
        <ele>1105.6</ele>
        <time>2022-09-25T08:51:28Z</time>
      </trkpt>
      <trkpt lat="42.94082" lon="0.28193">
        <ele>1104.8</ele>
        <time>2022-09-25T08:51:31Z</time>
      </trkpt>
      <trkpt lat="42.94103" lon="0.28146">
        <ele>1103.6</ele>
        <time>2022-09-25T08:51:35Z</time>
      </trkpt>
      <trkpt lat="42.94108" lon="0.28137">
        <ele>1103.2</ele>
        <time>2022-09-25T08:51:36Z</time>
      </trkpt>
      <trkpt lat="42.94116" lon="0.28126">
        <ele>1103</ele>
        <time>2022-09-25T08:51:37Z</time>
      </trkpt>
      <trkpt lat="42.94123" lon="0.28117">
        <ele>1102.4</ele>
        <time>2022-09-25T08:51:38Z</time>
      </trkpt>
      <trkpt lat="42.94141" lon="0.28101">
        <ele>1101</ele>
        <time>2022-09-25T08:51:40Z</time>
      </trkpt>
      <trkpt lat="42.94157" lon="0.28088">
        <ele>1099.2</ele>
        <time>2022-09-25T08:51:42Z</time>
      </trkpt>
      <trkpt lat="42.94177" lon="0.28073">
        <ele>1097</ele>
        <time>2022-09-25T08:51:44Z</time>
      </trkpt>
      <trkpt lat="42.94192" lon="0.2806">
        <ele>1095.4</ele>
        <time>2022-09-25T08:51:46Z</time>
      </trkpt>
      <trkpt lat="42.94199" lon="0.28054">
        <ele>1094.2</ele>
        <time>2022-09-25T08:51:48Z</time>
      </trkpt>
      <trkpt lat="42.94215" lon="0.2804">
        <ele>1092.6</ele>
        <time>2022-09-25T08:51:50Z</time>
      </trkpt>
      <trkpt lat="42.94219" lon="0.28039">
        <ele>1091.4</ele>
        <time>2022-09-25T08:51:51Z</time>
      </trkpt>
      <trkpt lat="42.94223" lon="0.2804">
        <ele>1091</ele>
        <time>2022-09-25T08:51:52Z</time>
      </trkpt>
      <trkpt lat="42.94226" lon="0.28043">
        <ele>1090.4</ele>
        <time>2022-09-25T08:51:53Z</time>
      </trkpt>
      <trkpt lat="42.9423" lon="0.28049">
        <ele>1089.8</ele>
        <time>2022-09-25T08:51:54Z</time>
      </trkpt>
      <trkpt lat="42.9423" lon="0.28049">
        <ele>1089</ele>
        <time>2022-09-25T08:51:55Z</time>
      </trkpt>
      <trkpt lat="42.94231" lon="0.28062">
        <ele>1088.6</ele>
        <time>2022-09-25T08:51:56Z</time>
      </trkpt>
      <trkpt lat="42.94231" lon="0.28068">
        <ele>1087.8</ele>
        <time>2022-09-25T08:51:57Z</time>
      </trkpt>
      <trkpt lat="42.9423" lon="0.28096">
        <ele>1086.6</ele>
        <time>2022-09-25T08:52:01Z</time>
      </trkpt>
      <trkpt lat="42.9423" lon="0.2811">
        <ele>1086.4</ele>
        <time>2022-09-25T08:52:04Z</time>
      </trkpt>
      <trkpt lat="42.9423" lon="0.28144">
        <ele>1086</ele>
        <time>2022-09-25T08:52:08Z</time>
      </trkpt>
      <trkpt lat="42.94228" lon="0.28159">
        <ele>1086</ele>
        <time>2022-09-25T08:52:10Z</time>
      </trkpt>
      <trkpt lat="42.9423" lon="0.28202">
        <ele>1086</ele>
        <time>2022-09-25T08:52:16Z</time>
      </trkpt>
      <trkpt lat="42.94232" lon="0.28216">
        <ele>1086.2</ele>
        <time>2022-09-25T08:52:18Z</time>
      </trkpt>
      <trkpt lat="42.94233" lon="0.28222">
        <ele>1086</ele>
        <time>2022-09-25T08:52:19Z</time>
      </trkpt>
      <trkpt lat="42.94233" lon="0.28241">
        <ele>1086</ele>
        <time>2022-09-25T08:52:22Z</time>
      </trkpt>
      <trkpt lat="42.94228" lon="0.28259">
        <ele>1086</ele>
        <time>2022-09-25T08:52:25Z</time>
      </trkpt>
      <trkpt lat="42.94223" lon="0.28277">
        <ele>1086</ele>
        <time>2022-09-25T08:52:29Z</time>
      </trkpt>
      <trkpt lat="42.94213" lon="0.28319">
        <ele>1086.4</ele>
        <time>2022-09-25T08:52:36Z</time>
      </trkpt>
      <trkpt lat="42.94206" lon="0.28353">
        <ele>1086.4</ele>
        <time>2022-09-25T08:52:43Z</time>
      </trkpt>
      <trkpt lat="42.94205" lon="0.28368">
        <ele>1086.8</ele>
        <time>2022-09-25T08:52:46Z</time>
      </trkpt>
      <trkpt lat="42.94206" lon="0.28387">
        <ele>1087</ele>
        <time>2022-09-25T08:52:50Z</time>
      </trkpt>
      <trkpt lat="42.94215" lon="0.28402">
        <ele>1087</ele>
        <time>2022-09-25T08:52:55Z</time>
      </trkpt>
      <trkpt lat="42.94225" lon="0.28418">
        <ele>1087.4</ele>
        <time>2022-09-25T08:53:01Z</time>
      </trkpt>
      <trkpt lat="42.94232" lon="0.28436">
        <ele>1087.6</ele>
        <time>2022-09-25T08:53:06Z</time>
      </trkpt>
      <trkpt lat="42.94234" lon="0.28439">
        <ele>1087.8</ele>
        <time>2022-09-25T08:53:07Z</time>
      </trkpt>
      <trkpt lat="42.94241" lon="0.28461">
        <ele>1088</ele>
        <time>2022-09-25T08:53:15Z</time>
      </trkpt>
      <trkpt lat="42.9424" lon="0.28472">
        <ele>1088.4</ele>
        <time>2022-09-25T08:53:19Z</time>
      </trkpt>
      <trkpt lat="42.94238" lon="0.28476">
        <ele>1088.6</ele>
        <time>2022-09-25T08:53:21Z</time>
      </trkpt>
      <trkpt lat="42.94236" lon="0.28479">
        <ele>1088.8</ele>
        <time>2022-09-25T08:53:23Z</time>
      </trkpt>
      <trkpt lat="42.9423" lon="0.28491">
        <ele>1089.8</ele>
        <time>2022-09-25T08:53:28Z</time>
      </trkpt>
      <trkpt lat="42.94231" lon="0.28493">
        <ele>1089.8</ele>
        <time>2022-09-25T08:53:29Z</time>
      </trkpt>
      <trkpt lat="42.94232" lon="0.28493">
        <ele>1090</ele>
        <time>2022-09-25T08:53:30Z</time>
      </trkpt>
      <trkpt lat="42.94233" lon="0.28493">
        <ele>1090</ele>
        <time>2022-09-25T08:53:32Z</time>
      </trkpt>
      <trkpt lat="42.94233" lon="0.28493">
        <ele>1090.2</ele>
        <time>2022-09-25T08:53:39Z</time>
      </trkpt>
      <trkpt lat="42.94233" lon="0.28493">
        <ele>1090.2</ele>
        <time>2022-09-25T08:53:55Z</time>
      </trkpt>
      <trkpt lat="42.94233" lon="0.28493">
        <ele>1090.2</ele>
        <time>2022-09-25T08:53:56Z</time>
      </trkpt>
      <trkpt lat="42.94233" lon="0.28493">
        <ele>1090.6</ele>
        <time>2022-09-25T08:54:22Z</time>
      </trkpt>
      <trkpt lat="42.94233" lon="0.28493">
        <ele>1090.8</ele>
        <time>2022-09-25T08:54:58Z</time>
      </trkpt>
      <trkpt lat="42.94233" lon="0.28493">
        <ele>1091</ele>
        <time>2022-09-25T08:55:03Z</time>
      </trkpt>
      <trkpt lat="42.94233" lon="0.28493">
        <ele>1091</ele>
        <time>2022-09-25T08:55:05Z</time>
      </trkpt>
    </trkseg>
  </trk>
</gpx>